Wetterdaten: Dienstag, 30.01.2018
Datum Zeit Temp. A. Pool Temp. Feuchte A. Luftdruck Regen Wind Richtung Richtung Sonnenschein ET UV Solar Taupunkt Windchill Windben Empfang
30.01.2018 00:00 8,2 C 4,4 C 80 % 1026,3 hPa 0,0 l/m 17,0 km/h (3 Bft) W-SW 237 0 min 0,000 mm 0,0 UV-I 0 W/m 5,0 C 2,1 C 27,4 km/h (4 Bft) 96,23 %
30.01.2018 00:02 8,2 C 4,4 C 80 % 1026,3 hPa 0,0 l/m 19,2 km/h (3 Bft) W 263 0 min 0,000 mm 0,0 UV-I 0 W/m 5,0 C 1,2 C 19,3 km/h (3 Bft) 11,76 %
30.01.2018 00:04 8,2 C 4,4 C 80 % 1026,3 hPa 0,0 l/m 20,4 km/h (4 Bft) W-SW 257 0 min 0,000 mm 0,0 UV-I 0 W/m 5,0 C 0,8 C 27,4 km/h (4 Bft) 85,29 %
30.01.2018 00:06 8,2 C 4,4 C 80 % 1026,3 hPa 0,0 l/m 20,0 km/h (4 Bft) W 270 0 min 0,000 mm 0,0 UV-I 0 W/m 5,0 C 1,0 C 33,8 km/h (5 Bft) 100,00 %
30.01.2018 00:08 8,2 C 4,4 C 79 % 1026,3 hPa 0,0 l/m 18,9 km/h (3 Bft) W-SW 248 0 min 0,000 mm 0,0 UV-I 0 W/m 4,8 C 1,4 C 29,0 km/h (5 Bft) 100,00 %
30.01.2018 00:10 8,2 C 4,4 C 79 % 1026,3 hPa 0,0 l/m 20,5 km/h (4 Bft) W 267 0 min 0,000 mm 0,0 UV-I 0 W/m 4,8 C 0,8 C 30,6 km/h (5 Bft) 100,00 %
30.01.2018 00:12 8,2 C 4,4 C 80 % 1026,4 hPa 0,0 l/m 16,3 km/h (3 Bft) W-SW 251 0 min 0,000 mm 0,0 UV-I 0 W/m 5,0 C 2,4 C 24,1 km/h (4 Bft) 100,00 %
30.01.2018 00:14 8,2 C 4,4 C 79 % 1026,4 hPa 0,0 l/m 16,0 km/h (3 Bft) W-SW 248 0 min 0,000 mm 0,0 UV-I 0 W/m 4,8 C 2,5 C 24,1 km/h (4 Bft) 100,00 %
30.01.2018 00:16 8,2 C 4,4 C 79 % 1026,4 hPa 0,0 l/m 17,7 km/h (3 Bft) W-SW 249 0 min 0,000 mm 0,0 UV-I 0 W/m 4,8 C 1,8 C 25,7 km/h (4 Bft) 98,00 %
30.01.2018 00:18 8,2 C 4,4 C 79 % 1026,4 hPa 0,0 l/m 19,2 km/h (3 Bft) W-SW 257 0 min 0,000 mm 0,0 UV-I 0 W/m 4,8 C 1,2 C 25,7 km/h (4 Bft) 97,73 %
30.01.2018 00:20 8,2 C 4,4 C 79 % 1026,4 hPa 0,0 l/m 16,1 km/h (3 Bft) W 260 0 min 0,000 mm 0,0 UV-I 0 W/m 4,8 C 2,5 C 25,7 km/h (4 Bft) 93,62 %
30.01.2018 00:22 8,2 C 4,4 C 79 % 1026,5 hPa 0,0 l/m 16,7 km/h (3 Bft) W 261 0 min 0,000 mm 0,0 UV-I 0 W/m 4,8 C 2,2 C 24,1 km/h (4 Bft) 98,11 %
30.01.2018 00:24 8,2 C 4,4 C 79 % 1026,5 hPa 0,0 l/m 19,7 km/h (3 Bft) W 274 0 min 0,000 mm 0,0 UV-I 0 W/m 4,8 C 1,1 C 30,6 km/h (5 Bft) 95,12 %
30.01.2018 00:26 8,3 C 4,4 C 78 % 1026,5 hPa 0,0 l/m 21,4 km/h (4 Bft) W-SW 238 0 min 0,000 mm 0,0 UV-I 0 W/m 4,7 C 0,6 C 32,2 km/h (5 Bft) 95,45 %
30.01.2018 00:28 8,3 C 4,4 C 78 % 1026,4 hPa 0,0 l/m 21,1 km/h (4 Bft) SW 236 0 min 0,000 mm 0,0 UV-I 0 W/m 4,7 C 0,7 C 30,6 km/h (5 Bft) 98,11 %
30.01.2018 00:30 8,3 C 4,4 C 78 % 1026,4 hPa 0,0 l/m 19,6 km/h (3 Bft) W 266 0 min 0,000 mm 0,0 UV-I 0 W/m 4,7 C 1,2 C 25,7 km/h (4 Bft) 98,11 %
30.01.2018 00:32 8,3 C 4,4 C 78 % 1026,4 hPa 0,0 l/m 19,8 km/h (3 Bft) SW 233 0 min 0,000 mm 0,0 UV-I 0 W/m 4,7 C 1,2 C 33,8 km/h (5 Bft) 97,14 %
30.01.2018 00:34 8,3 C 4,4 C 78 % 1026,4 hPa 0,0 l/m 22,2 km/h (4 Bft) W 260 0 min 0,000 mm 0,0 UV-I 0 W/m 4,7 C 0,4 C 32,2 km/h (5 Bft) 96,00 %
30.01.2018 00:36 8,3 C 4,4 C 78 % 1026,4 hPa 0,0 l/m 19,5 km/h (3 Bft) W 262 0 min 0,000 mm 0,0 UV-I 0 W/m 4,7 C 1,3 C 27,4 km/h (4 Bft) 98,00 %
30.01.2018 00:38 8,3 C 4,4 C 78 % 1026,4 hPa 0,0 l/m 19,5 km/h (3 Bft) W 267 0 min 0,000 mm 0,0 UV-I 0 W/m 4,7 C 1,3 C 30,6 km/h (5 Bft) 97,56 %
30.01.2018 00:40 8,3 C 4,4 C 78 % 1026,4 hPa 0,0 l/m 24,0 km/h (4 Bft) W-SW 257 0 min 0,000 mm 0,0 UV-I 0 W/m 4,7 C -0,2 C 40,2 km/h (6 Bft) 96,23 %
30.01.2018 00:42 8,3 C 4,4 C 78 % 1026,3 hPa 0,0 l/m 16,4 km/h (3 Bft) W-SW 257 0 min 0,000 mm 0,0 UV-I 0 W/m 4,7 C 2,5 C 27,4 km/h (4 Bft) 97,73 %
30.01.2018 00:44 8,3 C 4,4 C 77 % 1026,3 hPa 0,0 l/m 22,4 km/h (4 Bft) W-SW 238 0 min 0,000 mm 0,0 UV-I 0 W/m 4,5 C 0,3 C 35,4 km/h (5 Bft) 97,73 %
30.01.2018 00:46 8,3 C 4,4 C 77 % 1026,3 hPa 0,0 l/m 21,1 km/h (4 Bft) W-SW 257 0 min 0,000 mm 0,0 UV-I 0 W/m 4,5 C 0,7 C 37,0 km/h (5 Bft) 98,11 %
30.01.2018 00:48 8,3 C 4,4 C 77 % 1026,1 hPa 0,0 l/m 19,2 km/h (3 Bft) W-SW 253 0 min 0,000 mm 0,0 UV-I 0 W/m 4,5 C 1,4 C 35,4 km/h (5 Bft) 97,87 %
30.01.2018 00:50 8,4 C 4,4 C 77 % 1026,3 hPa 0,0 l/m 24,9 km/h (4 Bft) S-SW 208 0 min 0,000 mm 0,0 UV-I 0 W/m 4,6 C -0,3 C 37,0 km/h (5 Bft) 96,00 %
30.01.2018 00:52 8,4 C 4,4 C 77 % 1026,1 hPa 0,0 l/m 23,1 km/h (4 Bft) W-SW 246 0 min 0,000 mm 0,0 UV-I 0 W/m 4,6 C 0,2 C 32,2 km/h (5 Bft) 97,22 %
30.01.2018 00:54 8,4 C 4,4 C 77 % 1026,1 hPa 0,0 l/m 20,4 km/h (4 Bft) S-SW 203 0 min 0,000 mm 0,0 UV-I 0 W/m 4,6 C 1,1 C 32,2 km/h (5 Bft) 98,00 %
30.01.2018 00:56 8,4 C 4,4 C 76 % 1026,0 hPa 0,0 l/m 22,1 km/h (4 Bft) S-SW 206 0 min 0,000 mm 0,0 UV-I 0 W/m 4,4 C 0,5 C 32,2 km/h (5 Bft) 98,00 %
30.01.2018 00:58 8,4 C 4,4 C 76 % 1025,9 hPa 0,0 l/m 24,8 km/h (4 Bft) W-SW 248 0 min 0,000 mm 0,0 UV-I 0 W/m 4,4 C -0,3 C 32,2 km/h (5 Bft) 97,56 %
30.01.2018 01:00 8,4 C 4,4 C 76 % 1025,9 hPa 0,0 l/m 21,3 km/h (4 Bft) W-SW 238 0 min 0,051 mm 0,0 UV-I 0 W/m 4,4 C 0,8 C 35,4 km/h (5 Bft) 97,56 %
30.01.2018 01:02 8,5 C 4,4 C 76 % 1025,8 hPa 0,0 l/m 22,0 km/h (4 Bft) W-SW 250 0 min 0,000 mm 0,0 UV-I 0 W/m 4,5 C 0,7 C 32,2 km/h (5 Bft) 96,23 %
30.01.2018 01:04 8,5 C 4,4 C 76 % 1025,8 hPa 0,0 l/m 23,8 km/h (4 Bft) W-SW 244 0 min 0,000 mm 0,0 UV-I 0 W/m 4,5 C 0,1 C 35,4 km/h (5 Bft) 98,11 %
30.01.2018 01:06 8,5 C 4,4 C 76 % 1025,7 hPa 0,0 l/m 25,4 km/h (4 Bft) W-SW 242 0 min 0,000 mm 0,0 UV-I 0 W/m 4,5 C -0,3 C 35,4 km/h (5 Bft) 98,00 %
30.01.2018 01:08 8,5 C 4,4 C 76 % 1025,7 hPa 0,0 l/m 22,8 km/h (4 Bft) SW 220 0 min 0,000 mm 0,0 UV-I 0 W/m 4,5 C 0,4 C 35,4 km/h (5 Bft) 94,74 %
30.01.2018 01:10 8,6 C 4,4 C 76 % 1025,7 hPa 0,0 l/m 20,5 km/h (4 Bft) S-SW 200 0 min 0,000 mm 0,0 UV-I 0 W/m 4,6 C 1,3 C 30,6 km/h (5 Bft) 98,00 %
30.01.2018 01:12 8,5 C 4,4 C 77 % 1025,7 hPa 0,0 l/m 19,2 km/h (3 Bft) W 279 0 min 0,000 mm 0,0 UV-I 0 W/m 4,7 C 1,6 C 25,7 km/h (4 Bft) 98,11 %
30.01.2018 01:14 8,4 C 4,4 C 77 % 1025,7 hPa 0,0 l/m 19,7 km/h (3 Bft) S-SW 200 0 min 0,000 mm 0,0 UV-I 0 W/m 4,6 C 1,3 C 33,8 km/h (5 Bft) 92,11 %
30.01.2018 01:16 8,4 C 4,4 C 77 % 1025,6 hPa 0,0 l/m 25,3 km/h (4 Bft) SW 229 0 min 0,000 mm 0,0 UV-I 0 W/m 4,6 C -0,4 C 40,2 km/h (6 Bft) 96,43 %
30.01.2018 01:18 8,3 C 4,4 C 77 % 1025,7 hPa 0,0 l/m 21,2 km/h (4 Bft) W-SW 243 0 min 0,000 mm 0,0 UV-I 0 W/m 4,5 C 0,7 C 32,2 km/h (5 Bft) 92,68 %
30.01.2018 01:20 8,3 C 4,4 C 77 % 1025,6 hPa 0,0 l/m 20,1 km/h (4 Bft) W-SW 244 0 min 0,000 mm 0,0 UV-I 0 W/m 4,5 C 1,1 C 30,6 km/h (5 Bft) 92,45 %
30.01.2018 01:22 8,3 C 4,4 C 78 % 1025,6 hPa 0,0 l/m 17,9 km/h (3 Bft) W-SW 250 0 min 0,000 mm 0,0 UV-I 0 W/m 4,7 C 1,9 C 29,0 km/h (5 Bft) 95,74 %
30.01.2018 01:24 8,2 C 4,4 C 78 % 1025,6 hPa 0,0 l/m 20,4 km/h (4 Bft) S-SW 205 0 min 0,000 mm 0,0 UV-I 0 W/m 4,6 C 0,8 C 30,6 km/h (5 Bft) 95,83 %
30.01.2018 01:26 8,2 C 4,4 C 78 % 1025,6 hPa 0,0 l/m 20,4 km/h (4 Bft) SW 214 0 min 0,000 mm 0,0 UV-I 0 W/m 4,6 C 0,8 C 29,0 km/h (5 Bft) 93,55 %
30.01.2018 01:28 8,2 C 4,4 C 78 % 1025,6 hPa 0,0 l/m 15,4 km/h (3 Bft) W-SW 251 0 min 0,000 mm 0,0 UV-I 0 W/m 4,6 C 2,8 C 22,5 km/h (4 Bft) 95,92 %
30.01.2018 01:30 8,2 C 4,4 C 78 % 1025,7 hPa 0,0 l/m 19,7 km/h (3 Bft) SW 218 0 min 0,000 mm 0,0 UV-I 0 W/m 4,6 C 1,1 C 30,6 km/h (5 Bft) 92,86 %
30.01.2018 01:32 8,2 C 4,4 C 79 % 1025,6 hPa 0,0 l/m 16,3 km/h (3 Bft) S-SW 210 0 min 0,000 mm 0,0 UV-I 0 W/m 4,8 C 2,4 C 24,1 km/h (4 Bft) 95,12 %
30.01.2018 01:34 8,1 C 4,4 C 79 % 1025,6 hPa 0,0 l/m 18,4 km/h (3 Bft) SW 219 0 min 0,000 mm 0,0 UV-I 0 W/m 4,7 C 1,4 C 29,0 km/h (5 Bft) 96,23 %
30.01.2018 01:36 8,2 C 4,4 C 78 % 1025,6 hPa 0,0 l/m 21,0 km/h (4 Bft) W-SW 258 0 min 0,000 mm 0,0 UV-I 0 W/m 4,6 C 0,6 C 27,4 km/h (4 Bft) 96,00 %
30.01.2018 01:38 8,2 C 4,4 C 78 % 1025,6 hPa 0,0 l/m 23,1 km/h (4 Bft) SW 221 0 min 0,000 mm 0,0 UV-I 0 W/m 4,6 C -0,1 C 32,2 km/h (5 Bft) 91,49 %
30.01.2018 01:40 8,2 C 4,4 C 78 % 1025,6 hPa 0,0 l/m 22,7 km/h (4 Bft) SW 215 0 min 0,000 mm 0,0 UV-I 0 W/m 4,6 C 0,1 C 35,4 km/h (5 Bft) 98,00 %
30.01.2018 01:42 8,2 C 4,4 C 78 % 1025,6 hPa 0,0 l/m 19,7 km/h (3 Bft) SW 233 0 min 0,000 mm 0,0 UV-I 0 W/m 4,6 C 1,1 C 29,0 km/h (5 Bft) 94,74 %
30.01.2018 01:44 8,2 C 4,4 C 78 % 1025,7 hPa 0,0 l/m 23,0 km/h (4 Bft) SW 227 0 min 0,000 mm 0,0 UV-I 0 W/m 4,6 C -0,0 C 35,4 km/h (5 Bft) 98,11 %
30.01.2018 01:46 8,2 C 4,4 C 78 % 1025,6 hPa 0,0 l/m 19,2 km/h (3 Bft) SW 232 0 min 0,000 mm 0,0 UV-I 0 W/m 4,6 C 1,2 C 29,0 km/h (5 Bft) 98,00 %
30.01.2018 01:48 8,1 C 4,4 C 79 % 1025,6 hPa 0,0 l/m 20,4 km/h (4 Bft) W-SW 244 0 min 0,000 mm 0,0 UV-I 0 W/m 4,7 C 0,7 C 30,6 km/h (5 Bft) 95,45 %
30.01.2018 01:50 8,2 C 4,4 C 78 % 1025,7 hPa 0,0 l/m 20,2 km/h (4 Bft) SW 231 0 min 0,000 mm 0,0 UV-I 0 W/m 4,6 C 0,9 C 33,8 km/h (5 Bft) 94,34 %
30.01.2018 01:52 8,2 C 4,4 C 78 % 1025,7 hPa 0,0 l/m 21,1 km/h (4 Bft) W-SW 248 0 min 0,000 mm 0,0 UV-I 0 W/m 4,6 C 0,6 C 33,8 km/h (5 Bft) 97,37 %
30.01.2018 01:54 8,2 C 4,4 C 78 % 1025,7 hPa 0,0 l/m 20,5 km/h (4 Bft) SW 229 0 min 0,000 mm 0,0 UV-I 0 W/m 4,6 C 0,8 C 30,6 km/h (5 Bft) 98,00 %
30.01.2018 01:56 8,2 C 4,4 C 78 % 1025,7 hPa 0,0 l/m 22,6 km/h (4 Bft) W-SW 246 0 min 0,000 mm 0,0 UV-I 0 W/m 4,6 C 0,1 C 33,8 km/h (5 Bft) 100,00 %
30.01.2018 01:58 8,2 C 4,4 C 78 % 1025,7 hPa 0,0 l/m 22,1 km/h (4 Bft) SW 230 0 min 0,000 mm 0,0 UV-I 0 W/m 4,6 C 0,3 C 33,8 km/h (5 Bft) 100,00 %
30.01.2018 02:00 8,2 C 4,4 C 78 % 1025,8 hPa 0,0 l/m 20,5 km/h (4 Bft) W-SW 249 0 min 0,000 mm 0,0 UV-I 0 W/m 4,6 C 0,8 C 30,6 km/h (5 Bft) 100,00 %
30.01.2018 02:02 8,2 C 4,4 C 78 % 1025,8 hPa 0,0 l/m 20,4 km/h (4 Bft) W-SW 238 0 min 0,051 mm 0,0 UV-I 0 W/m 4,6 C 0,8 C 30,6 km/h (5 Bft) 98,00 %
30.01.2018 02:04 8,3 C 4,4 C 78 % 1025,8 hPa 0,0 l/m 20,3 km/h (4 Bft) W-SW 251 0 min 0,000 mm 0,0 UV-I 0 W/m 4,7 C 1,0 C 29,0 km/h (5 Bft) 100,00 %
30.01.2018 02:06 8,3 C 4,4 C 77 % 1025,8 hPa 0,0 l/m 22,5 km/h (4 Bft) W-SW 239 0 min 0,000 mm 0,0 UV-I 0 W/m 4,5 C 0,3 C 35,4 km/h (5 Bft) 100,00 %
30.01.2018 02:08 8,3 C 4,4 C 77 % 1025,7 hPa 0,0 l/m 18,1 km/h (3 Bft) SW 229 0 min 0,000 mm 0,0 UV-I 0 W/m 4,5 C 1,8 C 27,4 km/h (4 Bft) 100,00 %
30.01.2018 02:10 8,3 C 4,4 C 77 % 1025,7 hPa 0,0 l/m 24,6 km/h (4 Bft) W-SW 252 0 min 0,000 mm 0,0 UV-I 0 W/m 4,5 C -0,4 C 38,6 km/h (5 Bft) 100,00 %
30.01.2018 02:12 8,3 C 4,4 C 77 % 1025,7 hPa 0,0 l/m 17,6 km/h (3 Bft) SW 235 0 min 0,000 mm 0,0 UV-I 0 W/m 4,5 C 2,0 C 29,0 km/h (5 Bft) 98,00 %
30.01.2018 02:14 8,3 C 4,4 C 77 % 1025,7 hPa 0,0 l/m 23,3 km/h (4 Bft) SW 215 0 min 0,000 mm 0,0 UV-I 0 W/m 4,5 C 0,0 C 40,2 km/h (6 Bft) 100,00 %
30.01.2018 02:16 8,3 C 4,4 C 76 % 1025,6 hPa 0,0 l/m 25,6 km/h (4 Bft) SW 234 0 min 0,000 mm 0,0 UV-I 0 W/m 4,3 C -0,6 C 41,8 km/h (6 Bft) 100,00 %
30.01.2018 02:18 8,4 C 4,4 C 76 % 1025,7 hPa 0,0 l/m 28,3 km/h (4 Bft) W-SW 252 0 min 0,000 mm 0,0 UV-I 0 W/m 4,4 C -1,2 C 38,6 km/h (5 Bft) 100,00 %
30.01.2018 02:20 8,4 C 4,4 C 76 % 1025,7 hPa 0,0 l/m 18,8 km/h (3 Bft) W 273 0 min 0,000 mm 0,0 UV-I 0 W/m 4,4 C 1,6 C 32,2 km/h (5 Bft) 100,00 %
30.01.2018 02:22 8,4 C 4,4 C 76 % 1025,7 hPa 0,0 l/m 22,4 km/h (4 Bft) W-SW 256 0 min 0,000 mm 0,0 UV-I 0 W/m 4,4 C 0,4 C 35,4 km/h (5 Bft) 100,00 %
30.01.2018 02:24 8,4 C 4,4 C 76 % 1025,7 hPa 0,0 l/m 23,8 km/h (4 Bft) SW 231 0 min 0,000 mm 0,0 UV-I 0 W/m 4,4 C 0,0 C 32,2 km/h (5 Bft) 100,00 %
30.01.2018 02:26 8,3 C 4,4 C 76 % 1025,7 hPa 0,0 l/m 23,1 km/h (4 Bft) SW 234 0 min 0,000 mm 0,0 UV-I 0 W/m 4,3 C 0,1 C 35,4 km/h (5 Bft) 100,00 %
30.01.2018 02:28 8,4 C 4,4 C 76 % 1025,7 hPa 0,0 l/m 21,6 km/h (4 Bft) SW 229 0 min 0,000 mm 0,0 UV-I 0 W/m 4,4 C 0,7 C 29,0 km/h (5 Bft) 100,00 %
30.01.2018 02:30 8,4 C 4,4 C 76 % 1025,6 hPa 0,0 l/m 23,6 km/h (4 Bft) W-NW 297 0 min 0,000 mm 0,0 UV-I 0 W/m 4,4 C 0,1 C 37,0 km/h (5 Bft) 100,00 %
30.01.2018 02:32 8,4 C 4,4 C 76 % 1025,7 hPa 0,0 l/m 20,9 km/h (4 Bft) W-SW 244 0 min 0,000 mm 0,0 UV-I 0 W/m 4,4 C 0,9 C 32,2 km/h (5 Bft) 97,37 %
30.01.2018 02:34 8,4 C 4,4 C 76 % 1025,6 hPa 0,0 l/m 20,6 km/h (4 Bft) SW 224 0 min 0,000 mm 0,0 UV-I 0 W/m 4,4 C 1,0 C 30,6 km/h (5 Bft) 97,73 %
30.01.2018 02:36 8,3 C 4,4 C 77 % 1025,6 hPa 0,0 l/m 24,1 km/h (4 Bft) W 259 0 min 0,000 mm 0,0 UV-I 0 W/m 4,5 C -0,2 C 33,8 km/h (5 Bft) 98,21 %
30.01.2018 02:38 8,3 C 4,4 C 77 % 1025,6 hPa 0,0 l/m 20,0 km/h (4 Bft) W-SW 241 0 min 0,000 mm 0,0 UV-I 0 W/m 4,5 C 1,1 C 35,4 km/h (5 Bft) 96,00 %
30.01.2018 02:40 8,3 C 4,4 C 77 % 1025,6 hPa 0,0 l/m 25,7 km/h (4 Bft) SW 236 0 min 0,000 mm 0,0 UV-I 0 W/m 4,5 C -0,7 C 35,4 km/h (5 Bft) 97,37 %
30.01.2018 02:42 8,3 C 4,4 C 77 % 1025,6 hPa 0,0 l/m 23,7 km/h (4 Bft) SW 235 0 min 0,000 mm 0,0 UV-I 0 W/m 4,5 C -0,1 C 40,2 km/h (6 Bft) 98,00 %
30.01.2018 02:44 8,4 C 4,4 C 77 % 1025,6 hPa 0,0 l/m 24,8 km/h (4 Bft) W-SW 254 0 min 0,000 mm 0,0 UV-I 0 W/m 4,6 C -0,3 C 37,0 km/h (5 Bft) 100,00 %
30.01.2018 02:46 8,4 C 4,4 C 76 % 1025,5 hPa 0,0 l/m 28,8 km/h (4 Bft) W-SW 248 0 min 0,000 mm 0,0 UV-I 0 W/m 4,4 C -1,3 C 43,5 km/h (6 Bft) 100,00 %
30.01.2018 02:48 8,4 C 4,4 C 76 % 1025,6 hPa 0,0 l/m 26,3 km/h (4 Bft) SW 219 0 min 0,000 mm 0,0 UV-I 0 W/m 4,4 C -0,7 C 35,4 km/h (5 Bft) 100,00 %
30.01.2018 02:50 8,3 C 4,4 C 77 % 1025,6 hPa 0,0 l/m 20,8 km/h (4 Bft) W-SW 252 0 min 0,000 mm 0,0 UV-I 0 W/m 4,5 C 0,8 C 29,0 km/h (5 Bft) 100,00 %
30.01.2018 02:52 8,3 C 4,4 C 77 % 1025,5 hPa 0,0 l/m 27,4 km/h (4 Bft) W-SW 250 0 min 0,000 mm 0,0 UV-I 0 W/m 4,5 C -1,1 C 38,6 km/h (5 Bft) 100,00 %
30.01.2018 02:54 8,4 C 4,4 C 77 % 1025,5 hPa 0,0 l/m 26,3 km/h (4 Bft) W-SW 241 0 min 0,000 mm 0,0 UV-I 0 W/m 4,6 C -0,7 C 46,7 km/h (6 Bft) 100,00 %
30.01.2018 02:56 8,3 C 4,4 C 77 % 1025,5 hPa 0,0 l/m 17,7 km/h (3 Bft) W-SW 248 0 min 0,000 mm 0,0 UV-I 0 W/m 4,5 C 1,9 C 33,8 km/h (5 Bft) 100,00 %
30.01.2018 02:58 8,3 C 4,4 C 77 % 1025,6 hPa 0,0 l/m 26,4 km/h (4 Bft) W-SW 250 0 min 0,000 mm 0,0 UV-I 0 W/m 4,5 C -0,9 C 35,4 km/h (5 Bft) 98,11 %
30.01.2018 03:00 8,3 C 4,4 C 77 % 1025,6 hPa 0,0 l/m 23,6 km/h (4 Bft) W-SW 254 0 min 0,050 mm 0,0 UV-I 0 W/m 4,5 C -0,1 C 33,8 km/h (5 Bft) 100,00 %
30.01.2018 03:02 8,3 C 4,4 C 77 % 1025,6 hPa 0,0 l/m 21,2 km/h (4 Bft) W 278 0 min 0,000 mm 0,0 UV-I 0 W/m 4,5 C 0,7 C 30,6 km/h (5 Bft) 96,43 %
30.01.2018 03:04 8,3 C 4,4 C 77 % 1025,7 hPa 0,0 l/m 21,6 km/h (4 Bft) W 262 0 min 0,000 mm 0,0 UV-I 0 W/m 4,5 C 0,6 C 38,6 km/h (5 Bft) 100,00 %
30.01.2018 03:06 8,3 C 4,4 C 78 % 1025,6 hPa 0,0 l/m 17,1 km/h (3 Bft) W-SW 247 0 min 0,000 mm 0,0 UV-I 0 W/m 4,7 C 2,2 C 25,7 km/h (4 Bft) 100,00 %
30.01.2018 03:08 8,2 C 4,4 C 78 % 1025,6 hPa 0,0 l/m 22,5 km/h (4 Bft) W-SW 253 0 min 0,000 mm 0,0 UV-I 0 W/m 4,6 C 0,1 C 40,2 km/h (6 Bft) 100,00 %
30.01.2018 03:10 8,2 C 4,4 C 78 % 1025,5 hPa 0,0 l/m 24,5 km/h (4 Bft) W 269 0 min 0,000 mm 0,0 UV-I 0 W/m 4,6 C -0,5 C 40,2 km/h (6 Bft) 100,00 %
30.01.2018 03:12 8,2 C 4,4 C 78 % 1025,6 hPa 0,0 l/m 27,4 km/h (4 Bft) SW 216 0 min 0,000 mm 0,0 UV-I 0 W/m 4,6 C -1,2 C 40,2 km/h (6 Bft) 100,00 %
30.01.2018 03:14 8,2 C 4,4 C 78 % 1025,6 hPa 0,0 l/m 24,0 km/h (4 Bft) W-SW 254 0 min 0,000 mm 0,0 UV-I 0 W/m 4,6 C -0,3 C 57,9 km/h (7 Bft) 100,00 %
30.01.2018 03:16 8,2 C 4,4 C 78 % 1025,6 hPa 0,0 l/m 29,8 km/h (5 Bft) SW 234 0 min 0,000 mm 0,0 UV-I 0 W/m 4,6 C -1,8 C 43,5 km/h (6 Bft) 98,11 %
30.01.2018 03:18 8,2 C 4,4 C 78 % 1025,6 hPa 0,0 l/m 26,2 km/h (4 Bft) W 261 0 min 0,000 mm 0,0 UV-I 0 W/m 4,6 C -0,9 C 43,5 km/h (6 Bft) 97,73 %
30.01.2018 03:20 8,2 C 4,4 C 78 % 1025,5 hPa 0,0 l/m 28,9 km/h (5 Bft) W-SW 247 0 min 0,000 mm 0,0 UV-I 0 W/m 4,6 C -1,6 C 46,7 km/h (6 Bft) 100,00 %
30.01.2018 03:22 8,2 C 4,4 C 79 % 1025,5 hPa 0,0 l/m 30,6 km/h (5 Bft) W 265 0 min 0,000 mm 0,0 UV-I 0 W/m 4,8 C -2,0 C 43,5 km/h (6 Bft) 100,00 %
30.01.2018 03:24 8,1 C 4,4 C 79 % 1025,6 hPa 0,0 l/m 26,3 km/h (4 Bft) W 265 0 min 0,000 mm 0,0 UV-I 0 W/m 4,7 C -1,1 C 43,5 km/h (6 Bft) 98,08 %
30.01.2018 03:26 8,1 C 4,4 C 79 % 1025,6 hPa 0,0 l/m 27,1 km/h (4 Bft) W-SW 244 0 min 0,000 mm 0,0 UV-I 0 W/m 4,7 C -1,3 C 46,7 km/h (6 Bft) 97,62 %
30.01.2018 03:28 8,0 C 4,4 C 80 % 1025,6 hPa 0,0 l/m 21,4 km/h (4 Bft) W-SW 257 0 min 0,000 mm 0,0 UV-I 0 W/m 4,8 C 0,2 C 40,2 km/h (6 Bft) 96,23 %
30.01.2018 03:30 8,0 C 4,4 C 80 % 1025,6 hPa 0,0 l/m 27,4 km/h (4 Bft) W-SW 251 0 min 0,000 mm 0,0 UV-I 0 W/m 4,8 C -1,5 C 41,8 km/h (6 Bft) 97,37 %
30.01.2018 03:32 8,0 C 4,4 C 80 % 1025,7 hPa 0,0 l/m 26,7 km/h (4 Bft) SW 225 0 min 0,000 mm 0,0 UV-I 0 W/m 4,8 C -1,3 C 33,8 km/h (5 Bft) 96,00 %
30.01.2018 03:34 8,0 C 4,4 C 80 % 1025,6 hPa 0,0 l/m 24,3 km/h (4 Bft) SW 218 0 min 0,000 mm 0,0 UV-I 0 W/m 4,8 C -0,7 C 32,2 km/h (5 Bft) 96,00 %
30.01.2018 03:36 8,0 C 4,4 C 80 % 1025,6 hPa 0,0 l/m 26,2 km/h (4 Bft) W-NW 296 0 min 0,000 mm 0,0 UV-I 0 W/m 4,8 C -1,2 C 35,4 km/h (5 Bft) 98,00 %
30.01.2018 03:38 7,9 C 4,4 C 80 % 1025,6 hPa 0,0 l/m 23,9 km/h (4 Bft) W 264 0 min 0,000 mm 0,0 UV-I 0 W/m 4,7 C -0,7 C 38,6 km/h (5 Bft) 94,29 %
30.01.2018 03:40 7,9 C 4,4 C 81 % 1025,7 hPa 0,0 l/m 24,1 km/h (4 Bft) W-SW 253 0 min 0,000 mm 0,0 UV-I 0 W/m 4,8 C -0,8 C 33,8 km/h (5 Bft) 97,56 %
30.01.2018 03:42 7,8 C 4,4 C 81 % 1025,6 hPa 0,0 l/m 21,6 km/h (4 Bft) W-SW 245 0 min 0,000 mm 0,0 UV-I 0 W/m 4,7 C -0,1 C 30,6 km/h (5 Bft) 96,00 %
30.01.2018 03:44 7,8 C 4,4 C 81 % 1025,5 hPa 0,0 l/m 22,9 km/h (4 Bft) W-SW 248 0 min 0,000 mm 0,0 UV-I 0 W/m 4,7 C -0,5 C 38,6 km/h (5 Bft) 90,57 %
30.01.2018 03:46 7,8 C 4,4 C 81 % 1025,6 hPa 0,0 l/m 23,5 km/h (4 Bft) SW 215 0 min 0,000 mm 0,0 UV-I 0 W/m 4,7 C -0,7 C 37,0 km/h (5 Bft) 97,92 %
30.01.2018 03:48 7,8 C 4,4 C 82 % 1025,6 hPa 0,0 l/m 25,0 km/h (4 Bft) W 261 0 min 0,000 mm 0,0 UV-I 0 W/m 4,9 C -1,1 C 45,1 km/h (6 Bft) 96,30 %
30.01.2018 03:50 7,8 C 4,4 C 82 % 1025,6 hPa 0,0 l/m 23,1 km/h (4 Bft) W 268 0 min 0,000 mm 0,0 UV-I 0 W/m 4,9 C -0,6 C 33,8 km/h (5 Bft) 95,71 %
30.01.2018 03:52 7,7 C 4,4 C 82 % 1025,6 hPa 0,0 l/m 25,8 km/h (4 Bft) W 267 0 min 0,000 mm 0,0 UV-I 0 W/m 4,8 C -1,5 C 37,0 km/h (5 Bft) 98,00 %
30.01.2018 03:54 7,7 C 4,4 C 82 % 1025,6 hPa 0,0 l/m 21,6 km/h (4 Bft) SW 236 0 min 0,000 mm 0,0 UV-I 0 W/m 4,8 C -0,2 C 29,0 km/h (5 Bft) 96,97 %
30.01.2018 03:56 7,7 C 4,4 C 82 % 1025,6 hPa 0,0 l/m 25,6 km/h (4 Bft) SW 234 0 min 0,000 mm 0,0 UV-I 0 W/m 4,8 C -1,5 C 35,4 km/h (5 Bft) 98,31 %
30.01.2018 03:58 7,7 C 4,4 C 82 % 1025,5 hPa 0,0 l/m 23,0 km/h (4 Bft) W-SW 238 0 min 0,000 mm 0,0 UV-I 0 W/m 4,8 C -0,7 C 38,6 km/h (5 Bft) 100,00 %
30.01.2018 04:00 7,7 C 4,4 C 83 % 1025,4 hPa 0,0 l/m 26,1 km/h (4 Bft) SW 221 0 min 0,051 mm 0,0 UV-I 0 W/m 5,0 C -1,6 C 41,8 km/h (6 Bft) 100,00 %
30.01.2018 04:02 7,7 C 4,4 C 83 % 1025,5 hPa 0,0 l/m 22,5 km/h (4 Bft) SW 229 0 min 0,000 mm 0,0 UV-I 0 W/m 5,0 C -0,5 C 30,6 km/h (5 Bft) 95,83 %
30.01.2018 04:04 7,7 C 4,4 C 83 % 1025,5 hPa 0,0 l/m 23,2 km/h (4 Bft) SW 228 0 min 0,000 mm 0,0 UV-I 0 W/m 5,0 C -0,7 C 35,4 km/h (5 Bft) 97,78 %
30.01.2018 04:06 7,7 C 4,4 C 83 % 1025,6 hPa 0,0 l/m 24,3 km/h (4 Bft) W-SW 257 0 min 0,000 mm 0,0 UV-I 0 W/m 5,0 C -1,1 C 35,4 km/h (5 Bft) 97,87 %
30.01.2018 04:08 7,7 C 4,4 C 83 % 1025,6 hPa 0,0 l/m 22,3 km/h (4 Bft) SW 233 0 min 0,000 mm 0,0 UV-I 0 W/m 5,0 C -0,5 C 33,8 km/h (5 Bft) 100,00 %
30.01.2018 04:10 7,6 C 4,4 C 83 % 1025,6 hPa 0,0 l/m 24,2 km/h (4 Bft) W-SW 243 0 min 0,000 mm 0,0 UV-I 0 W/m 4,9 C -1,2 C 37,0 km/h (5 Bft) 100,00 %
30.01.2018 04:12 7,6 C 4,4 C 83 % 1025,6 hPa 0,0 l/m 24,4 km/h (4 Bft) W-SW 256 0 min 0,000 mm 0,0 UV-I 0 W/m 4,9 C -1,2 C 33,8 km/h (5 Bft) 100,00 %
30.01.2018 04:14 7,6 C 4,4 C 83 % 1025,6 hPa 0,0 l/m 22,5 km/h (4 Bft) W-SW 241 0 min 0,000 mm 0,0 UV-I 0 W/m 4,9 C -0,7 C 37,0 km/h (5 Bft) 97,37 %
30.01.2018 04:16 7,6 C 4,4 C 83 % 1025,6 hPa 0,0 l/m 18,2 km/h (3 Bft) SW 235 0 min 0,000 mm 0,0 UV-I 0 W/m 4,9 C 0,9 C 32,2 km/h (5 Bft) 98,21 %
30.01.2018 04:18 7,6 C 4,4 C 84 % 1025,7 hPa 0,0 l/m 21,4 km/h (4 Bft) W-SW 257 0 min 0,000 mm 0,0 UV-I 0 W/m 5,1 C -0,3 C 30,6 km/h (5 Bft) 100,00 %
30.01.2018 04:20 7,6 C 4,4 C 84 % 1025,6 hPa 0,0 l/m 21,6 km/h (4 Bft) W-SW 242 0 min 0,000 mm 0,0 UV-I 0 W/m 5,1 C -0,4 C 35,4 km/h (5 Bft) 100,00 %
30.01.2018 04:22 7,6 C 4,4 C 84 % 1025,6 hPa 0,0 l/m 21,5 km/h (4 Bft) W-SW 240 0 min 0,000 mm 0,0 UV-I 0 W/m 5,1 C -0,3 C 32,2 km/h (5 Bft) 100,00 %
30.01.2018 04:24 7,6 C 4,4 C 84 % 1025,6 hPa 0,0 l/m 21,8 km/h (4 Bft) W-SW 258 0 min 0,000 mm 0,0 UV-I 0 W/m 5,1 C -0,4 C 32,2 km/h (5 Bft) 97,87 %
30.01.2018 04:26 7,6 C 4,4 C 84 % 1025,7 hPa 0,0 l/m 19,8 km/h (3 Bft) W-SW 244 0 min 0,000 mm 0,0 UV-I 0 W/m 5,1 C 0,3 C 29,0 km/h (5 Bft) 100,00 %
30.01.2018 04:28 7,6 C 4,4 C 84 % 1025,7 hPa 0,0 l/m 21,7 km/h (4 Bft) SW 225 0 min 0,000 mm 0,0 UV-I 0 W/m 5,1 C -0,4 C 37,0 km/h (5 Bft) 100,00 %
30.01.2018 04:30 7,6 C 4,4 C 84 % 1025,7 hPa 0,0 l/m 19,2 km/h (3 Bft) W-SW 241 0 min 0,000 mm 0,0 UV-I 0 W/m 5,1 C 0,5 C 25,7 km/h (4 Bft) 100,00 %
30.01.2018 04:32 7,6 C 4,4 C 84 % 1025,7 hPa 0,0 l/m 21,3 km/h (4 Bft) SW 236 0 min 0,000 mm 0,0 UV-I 0 W/m 5,1 C -0,3 C 33,8 km/h (5 Bft) 100,00 %
30.01.2018 04:34 7,6 C 4,4 C 84 % 1025,7 hPa 0,0 l/m 24,0 km/h (4 Bft) W-SW 258 0 min 0,000 mm 0,0 UV-I 0 W/m 5,1 C -1,1 C 35,4 km/h (5 Bft) 100,00 %
30.01.2018 04:36 7,5 C 4,4 C 84 % 1025,8 hPa 0,0 l/m 19,6 km/h (3 Bft) W-SW 249 0 min 0,000 mm 0,0 UV-I 0 W/m 5,0 C 0,2 C 30,6 km/h (5 Bft) 100,00 %
30.01.2018 04:38 7,6 C 4,4 C 84 % 1025,7 hPa 0,0 l/m 20,8 km/h (4 Bft) W 264 0 min 0,000 mm 0,0 UV-I 0 W/m 5,1 C -0,1 C 32,2 km/h (5 Bft) 98,00 %
30.01.2018 04:40 7,5 C 4,4 C 84 % 1025,7 hPa 0,0 l/m 16,3 km/h (3 Bft) W-NW 292 0 min 0,000 mm 0,0 UV-I 0 W/m 5,0 C 1,5 C 27,4 km/h (4 Bft) 98,00 %
30.01.2018 04:42 7,6 C 4,4 C 84 % 1025,9 hPa 0,0 l/m 20,7 km/h (4 Bft) W-SW 244 0 min 0,000 mm 0,0 UV-I 0 W/m 5,1 C -0,1 C 32,2 km/h (5 Bft) 97,56 %
30.01.2018 04:44 7,6 C 4,4 C 84 % 1025,9 hPa 0,0 l/m 17,7 km/h (3 Bft) W 259 0 min 0,000 mm 0,0 UV-I 0 W/m 5,1 C 1,1 C 29,0 km/h (5 Bft) 97,56 %
30.01.2018 04:46 7,6 C 4,4 C 84 % 1025,9 hPa 0,0 l/m 19,5 km/h (3 Bft) W 263 0 min 0,000 mm 0,0 UV-I 0 W/m 5,1 C 0,4 C 27,4 km/h (4 Bft) 98,11 %
30.01.2018 04:48 7,6 C 4,4 C 84 % 1026,0 hPa 0,0 l/m 17,5 km/h (3 Bft) W-SW 251 0 min 0,000 mm 0,0 UV-I 0 W/m 5,1 C 1,1 C 30,6 km/h (5 Bft) 96,43 %
30.01.2018 04:50 7,6 C 4,4 C 84 % 1026,0 hPa 0,0 l/m 17,6 km/h (3 Bft) S-SO 168 0 min 0,000 mm 0,0 UV-I 0 W/m 5,1 C 1,1 C 27,4 km/h (4 Bft) 94,74 %
30.01.2018 04:52 7,5 C 4,4 C 84 % 1026,0 hPa 0,0 l/m 16,4 km/h (3 Bft) SW 232 0 min 0,000 mm 0,0 UV-I 0 W/m 5,0 C 1,5 C 20,9 km/h (4 Bft) 97,96 %
30.01.2018 04:54 7,6 C 4,4 C 84 % 1026,0 hPa 0,0 l/m 20,4 km/h (4 Bft) S 190 0 min 0,000 mm 0,0 UV-I 0 W/m 5,1 C 0,0 C 32,2 km/h (5 Bft) 94,34 %
30.01.2018 04:56 7,6 C 4,4 C 84 % 1026,0 hPa 0,0 l/m 20,6 km/h (4 Bft) SW 221 0 min 0,000 mm 0,0 UV-I 0 W/m 5,1 C -0,0 C 27,4 km/h (4 Bft) 100,00 %
30.01.2018 04:58 7,6 C 4,4 C 84 % 1025,9 hPa 0,0 l/m 22,6 km/h (4 Bft) W-SW 248 0 min 0,000 mm 0,0 UV-I 0 W/m 5,1 C -0,7 C 37,0 km/h (5 Bft) 93,18 %
30.01.2018 05:00 7,6 C 4,4 C 84 % 1025,9 hPa 0,0 l/m 15,6 km/h (3 Bft) W-SW 251 0 min 0,000 mm 0,0 UV-I 0 W/m 5,1 C 2,0 C 25,7 km/h (4 Bft) 96,00 %
30.01.2018 05:02 7,6 C 4,4 C 84 % 1025,9 hPa 0,0 l/m 16,0 km/h (3 Bft) W 266 0 min 0,026 mm 0,0 UV-I 0 W/m 5,1 C 1,8 C 22,5 km/h (4 Bft) 95,45 %
30.01.2018 05:04 7,6 C 4,4 C 84 % 1025,9 hPa 0,0 l/m 18,2 km/h (3 Bft) SW 235 0 min 0,000 mm 0,0 UV-I 0 W/m 5,1 C 0,9 C 33,8 km/h (5 Bft) 98,11 %
30.01.2018 05:06 7,6 C 4,4 C 84 % 1026,0 hPa 0,0 l/m 13,8 km/h (3 Bft) S-SW 212 0 min 0,000 mm 0,0 UV-I 0 W/m 5,1 C 2,8 C 20,9 km/h (4 Bft) 98,00 %
30.01.2018 05:08 7,6 C 4,4 C 84 % 1026,0 hPa 0,0 l/m 16,4 km/h (3 Bft) SW 228 0 min 0,000 mm 0,0 UV-I 0 W/m 5,1 C 1,6 C 27,4 km/h (4 Bft) 95,45 %
30.01.2018 05:10 7,6 C 4,4 C 84 % 1026,1 hPa 0,0 l/m 18,2 km/h (3 Bft) S-SW 205 0 min 0,000 mm 0,0 UV-I 0 W/m 5,1 C 0,9 C 29,0 km/h (5 Bft) 94,74 %
30.01.2018 05:12 7,6 C 4,4 C 84 % 1026,1 hPa 0,0 l/m 15,1 km/h (3 Bft) W 263 0 min 0,000 mm 0,0 UV-I 0 W/m 5,1 C 2,2 C 22,5 km/h (4 Bft) 98,11 %
30.01.2018 05:14 7,6 C 4,4 C 84 % 1026,1 hPa 0,0 l/m 12,5 km/h (3 Bft) W-SW 251 0 min 0,000 mm 0,0 UV-I 0 W/m 5,1 C 3,5 C 19,3 km/h (3 Bft) 97,44 %
30.01.2018 05:16 7,6 C 4,4 C 84 % 1026,3 hPa 0,0 l/m 15,6 km/h (3 Bft) W-SW 237 0 min 0,000 mm 0,0 UV-I 0 W/m 5,1 C 2,0 C 29,0 km/h (5 Bft) 100,00 %
30.01.2018 05:18 7,6 C 4,4 C 84 % 1026,4 hPa 0,0 l/m 11,3 km/h (2 Bft) S 186 0 min 0,000 mm 0,0 UV-I 0 W/m 5,1 C 4,1 C 19,3 km/h (3 Bft) 95,74 %
30.01.2018 05:20 7,6 C 4,4 C 84 % 1026,4 hPa 0,0 l/m 16,4 km/h (3 Bft) S-SW 209 0 min 0,000 mm 0,0 UV-I 0 W/m 5,1 C 1,6 C 24,1 km/h (4 Bft) 97,92 %
30.01.2018 05:22 7,6 C 4,4 C 83 % 1026,4 hPa 0,0 l/m 12,5 km/h (3 Bft) W-SW 245 0 min 0,000 mm 0,0 UV-I 0 W/m 4,9 C 3,5 C 17,7 km/h (3 Bft) 97,37 %
30.01.2018 05:24 7,6 C 4,4 C 84 % 1026,4 hPa 0,0 l/m 15,3 km/h (3 Bft) SW 215 0 min 0,000 mm 0,0 UV-I 0 W/m 5,1 C 2,1 C 22,5 km/h (4 Bft) 98,00 %
30.01.2018 05:26 7,6 C 4,4 C 83 % 1026,5 hPa 0,0 l/m 15,3 km/h (3 Bft) SW 226 0 min 0,000 mm 0,0 UV-I 0 W/m 4,9 C 2,1 C 22,5 km/h (4 Bft) 98,00 %
30.01.2018 05:28 7,6 C 4,4 C 83 % 1026,5 hPa 0,0 l/m 11,5 km/h (2 Bft) W-SW 241 0 min 0,000 mm 0,0 UV-I 0 W/m 4,9 C 4,0 C 19,3 km/h (3 Bft) 95,12 %
30.01.2018 05:30 7,5 C 4,4 C 84 % 1026,6 hPa 0,0 l/m 11,0 km/h (2 Bft) SW 235 0 min 0,000 mm 0,0 UV-I 0 W/m 5,0 C 4,2 C 14,5 km/h (3 Bft) 96,23 %
30.01.2018 05:32 7,5 C 4,4 C 84 % 1026,6 hPa 0,0 l/m 15,7 km/h (3 Bft) SW 229 0 min 0,000 mm 0,0 UV-I 0 W/m 5,0 C 1,8 C 20,9 km/h (4 Bft) 95,24 %
30.01.2018 05:34 7,4 C 4,4 C 84 % 1026,6 hPa 0,0 l/m 12,1 km/h (2 Bft) SW 219 0 min 0,000 mm 0,0 UV-I 0 W/m 4,9 C 3,5 C 20,9 km/h (4 Bft) 92,45 %
30.01.2018 05:36 7,4 C 4,4 C 83 % 1026,5 hPa 0,0 l/m 16,2 km/h (3 Bft) SW 229 0 min 0,000 mm 0,0 UV-I 0 W/m 4,7 C 1,4 C 24,1 km/h (4 Bft) 97,37 %
30.01.2018 05:38 7,4 C 4,4 C 83 % 1026,6 hPa 0,0 l/m 12,6 km/h (3 Bft) SW 227 0 min 0,000 mm 0,0 UV-I 0 W/m 4,7 C 3,2 C 17,7 km/h (3 Bft) 93,18 %
30.01.2018 05:40 7,4 C 4,4 C 84 % 1026,5 hPa 0,0 l/m 13,4 km/h (3 Bft) S-SW 196 0 min 0,000 mm 0,0 UV-I 0 W/m 4,9 C 2,8 C 19,3 km/h (3 Bft) 96,23 %
30.01.2018 05:42 7,4 C 4,4 C 84 % 1026,5 hPa 0,0 l/m 14,7 km/h (3 Bft) SW 227 0 min 0,000 mm 0,0 UV-I 0 W/m 4,9 C 2,1 C 20,9 km/h (4 Bft) 92,68 %
30.01.2018 05:44 7,5 C 4,4 C 84 % 1026,6 hPa 0,0 l/m 14,8 km/h (3 Bft) S-SW 205 0 min 0,000 mm 0,0 UV-I 0 W/m 5,0 C 2,2 C 20,9 km/h (4 Bft) 94,64 %
30.01.2018 05:46 7,4 C 4,4 C 84 % 1026,5 hPa 0,0 l/m 16,2 km/h (3 Bft) W-SW 245 0 min 0,000 mm 0,0 UV-I 0 W/m 4,9 C 1,4 C 20,9 km/h (4 Bft) 93,33 %
30.01.2018 05:48 7,4 C 4,4 C 84 % 1026,5 hPa 0,0 l/m 18,6 km/h (3 Bft) W-SW 244 0 min 0,000 mm 0,0 UV-I 0 W/m 4,9 C 0,5 C 24,1 km/h (4 Bft) 96,00 %
30.01.2018 05:50 7,4 C 4,4 C 84 % 1026,5 hPa 0,0 l/m 17,1 km/h (3 Bft) SW 227 0 min 0,000 mm 0,0 UV-I 0 W/m 4,9 C 1,1 C 22,5 km/h (4 Bft) 97,56 %
30.01.2018 05:52 7,4 C 4,4 C 84 % 1026,5 hPa 0,0 l/m 16,1 km/h (3 Bft) W-SW 252 0 min 0,000 mm 0,0 UV-I 0 W/m 4,9 C 1,5 C 24,1 km/h (4 Bft) 97,87 %
30.01.2018 05:54 7,4 C 4,4 C 84 % 1026,5 hPa 0,0 l/m 16,3 km/h (3 Bft) SW 218 0 min 0,000 mm 0,0 UV-I 0 W/m 4,9 C 1,4 C 20,9 km/h (4 Bft) 95,74 %
30.01.2018 05:56 7,4 C 4,4 C 84 % 1026,5 hPa 0,0 l/m 15,8 km/h (3 Bft) SW 221 0 min 0,000 mm 0,0 UV-I 0 W/m 4,9 C 1,6 C 25,7 km/h (4 Bft) 98,11 %
30.01.2018 05:58 7,4 C 4,4 C 84 % 1026,4 hPa 0,0 l/m 16,6 km/h (3 Bft) SW 236 0 min 0,000 mm 0,0 UV-I 0 W/m 4,9 C 1,3 C 22,5 km/h (4 Bft) 97,44 %
30.01.2018 06:00 7,4 C 4,4 C 84 % 1026,4 hPa 0,0 l/m 20,4 km/h (4 Bft) W-SW 255 0 min 0,025 mm 0,0 UV-I 0 W/m 4,9 C -0,2 C 27,4 km/h (4 Bft) 98,11 %
30.01.2018 06:02 7,4 C 4,4 C 84 % 1026,4 hPa 0,0 l/m 17,5 km/h (3 Bft) SW 223 0 min 0,000 mm 0,0 UV-I 0 W/m 4,9 C 0,9 C 29,0 km/h (5 Bft) 100,00 %
30.01.2018 06:04 7,4 C 4,4 C 84 % 1026,4 hPa 0,0 l/m 16,7 km/h (3 Bft) W-SW 253 0 min 0,000 mm 0,0 UV-I 0 W/m 4,9 C 1,2 C 22,5 km/h (4 Bft) 100,00 %
30.01.2018 06:06 7,4 C 4,4 C 84 % 1026,4 hPa 0,0 l/m 16,9 km/h (3 Bft) W 265 0 min 0,000 mm 0,0 UV-I 0 W/m 4,9 C 1,1 C 22,5 km/h (4 Bft) 100,00 %
30.01.2018 06:08 7,4 C 4,4 C 84 % 1026,4 hPa 0,0 l/m 19,7 km/h (3 Bft) SW 225 0 min 0,000 mm 0,0 UV-I 0 W/m 4,9 C 0,0 C 30,6 km/h (5 Bft) 98,11 %
30.01.2018 06:10 7,4 C 4,4 C 84 % 1026,4 hPa 0,0 l/m 20,9 km/h (4 Bft) SW 236 0 min 0,000 mm 0,0 UV-I 0 W/m 4,9 C -0,4 C 29,0 km/h (5 Bft) 97,73 %
30.01.2018 06:12 7,4 C 4,4 C 84 % 1026,4 hPa 0,0 l/m 20,5 km/h (4 Bft) W 269 0 min 0,000 mm 0,0 UV-I 0 W/m 4,9 C -0,3 C 27,4 km/h (4 Bft) 100,00 %
30.01.2018 06:14 7,5 C 4,4 C 84 % 1026,4 hPa 0,0 l/m 23,2 km/h (4 Bft) SW 225 0 min 0,000 mm 0,0 UV-I 0 W/m 5,0 C -1,0 C 30,6 km/h (5 Bft) 97,56 %
30.01.2018 06:16 7,5 C 4,4 C 84 % 1026,3 hPa 0,0 l/m 20,5 km/h (4 Bft) SW 215 0 min 0,000 mm 0,0 UV-I 0 W/m 5,0 C -0,1 C 29,0 km/h (5 Bft) 100,00 %
30.01.2018 06:18 7,5 C 4,4 C 84 % 1026,2 hPa 0,0 l/m 19,4 km/h (3 Bft) W 260 0 min 0,000 mm 0,0 UV-I 0 W/m 5,0 C 0,3 C 25,7 km/h (4 Bft) 100,00 %
30.01.2018 06:20 7,5 C 4,4 C 84 % 1026,3 hPa 0,0 l/m 18,0 km/h (3 Bft) SW 229 0 min 0,000 mm 0,0 UV-I 0 W/m 5,0 C 0,8 C 24,1 km/h (4 Bft) 97,87 %
30.01.2018 06:22 7,5 C 4,4 C 84 % 1026,3 hPa 0,0 l/m 17,6 km/h (3 Bft) W-SW 252 0 min 0,000 mm 0,0 UV-I 0 W/m 5,0 C 1,0 C 27,4 km/h (4 Bft) 100,00 %
30.01.2018 06:24 7,4 C 4,4 C 84 % 1026,3 hPa 0,0 l/m 21,0 km/h (4 Bft) W 263 0 min 0,000 mm 0,0 UV-I 0 W/m 4,9 C -0,4 C 37,0 km/h (5 Bft) 98,21 %
30.01.2018 06:26 7,4 C 4,4 C 85 % 1026,4 hPa 0,0 l/m 19,8 km/h (3 Bft) S-SW 209 0 min 0,000 mm 0,0 UV-I 0 W/m 5,0 C 0,0 C 27,4 km/h (4 Bft) 98,00 %
30.01.2018 06:28 7,3 C 4,4 C 85 % 1026,5 hPa 0,0 l/m 20,3 km/h (4 Bft) W-SW 251 0 min 0,000 mm 0,0 UV-I 0 W/m 4,9 C -0,3 C 30,6 km/h (5 Bft) 100,00 %
30.01.2018 06:30 7,3 C 4,4 C 85 % 1026,4 hPa 0,0 l/m 23,7 km/h (4 Bft) SW 236 0 min 0,000 mm 0,0 UV-I 0 W/m 4,9 C -1,4 C 35,4 km/h (5 Bft) 100,00 %
30.01.2018 06:32 7,3 C 4,4 C 85 % 1026,6 hPa 0,0 l/m 24,1 km/h (4 Bft) W-SW 250 0 min 0,000 mm 0,0 UV-I 0 W/m 4,9 C -1,6 C 37,0 km/h (5 Bft) 100,00 %
30.01.2018 06:34 7,3 C 4,4 C 85 % 1026,7 hPa 0,0 l/m 21,1 km/h (4 Bft) SW 232 0 min 0,000 mm 0,0 UV-I 0 W/m 4,9 C -0,6 C 32,2 km/h (5 Bft) 100,00 %
30.01.2018 06:36 7,3 C 4,4 C 85 % 1026,7 hPa 0,0 l/m 19,5 km/h (3 Bft) SW 234 0 min 0,000 mm 0,0 UV-I 0 W/m 4,9 C -0,0 C 25,7 km/h (4 Bft) 100,00 %
30.01.2018 06:38 7,3 C 4,4 C 85 % 1026,8 hPa 0,0 l/m 19,8 km/h (3 Bft) W-SW 244 0 min 0,000 mm 0,0 UV-I 0 W/m 4,9 C -0,1 C 25,7 km/h (4 Bft) 100,00 %
30.01.2018 06:40 7,3 C 4,4 C 86 % 1026,7 hPa 0,0 l/m 19,7 km/h (3 Bft) SW 230 0 min 0,000 mm 0,0 UV-I 0 W/m 5,1 C -0,1 C 27,4 km/h (4 Bft) 100,00 %
30.01.2018 06:42 7,3 C 4,4 C 86 % 1026,8 hPa 0,0 l/m 19,7 km/h (3 Bft) SW 217 0 min 0,000 mm 0,0 UV-I 0 W/m 5,1 C -0,1 C 29,0 km/h (5 Bft) 98,00 %
30.01.2018 06:44 7,2 C 4,4 C 86 % 1026,8 hPa 0,0 l/m 19,5 km/h (3 Bft) W-SW 240 0 min 0,000 mm 0,0 UV-I 0 W/m 5,0 C -0,1 C 30,6 km/h (5 Bft) 100,00 %
30.01.2018 06:46 7,2 C 4,4 C 86 % 1027,0 hPa 0,0 l/m 18,1 km/h (3 Bft) W-SW 250 0 min 0,000 mm 0,0 UV-I 0 W/m 5,0 C 0,4 C 30,6 km/h (5 Bft) 100,00 %
30.01.2018 06:48 7,2 C 4,4 C 86 % 1026,8 hPa 0,0 l/m 17,3 km/h (3 Bft) SW 229 0 min 0,000 mm 0,0 UV-I 0 W/m 5,0 C 0,7 C 25,7 km/h (4 Bft) 100,00 %
30.01.2018 06:50 7,1 C 4,4 C 86 % 1026,8 hPa 0,0 l/m 16,5 km/h (3 Bft) SW 220 0 min 0,000 mm 0,0 UV-I 0 W/m 4,9 C 0,9 C 25,7 km/h (4 Bft) 98,11 %
30.01.2018 06:52 7,1 C 4,4 C 86 % 1026,8 hPa 0,0 l/m 15,7 km/h (3 Bft) W-NW 301 0 min 0,000 mm 0,0 UV-I 0 W/m 4,9 C 1,3 C 29,0 km/h (5 Bft) 100,00 %
30.01.2018 06:54 7,1 C 4,4 C 86 % 1026,9 hPa 0,0 l/m 17,4 km/h (3 Bft) W-SW 242 0 min 0,000 mm 0,0 UV-I 0 W/m 4,9 C 0,6 C 22,5 km/h (4 Bft) 98,11 %
30.01.2018 06:56 7,1 C 4,4 C 86 % 1026,9 hPa 0,0 l/m 19,9 km/h (4 Bft) W-NW 287 0 min 0,000 mm 0,0 UV-I 0 W/m 4,9 C -0,4 C 27,4 km/h (4 Bft) 100,00 %
30.01.2018 06:58 7,2 C 4,4 C 86 % 1026,9 hPa 0,0 l/m 18,2 km/h (3 Bft) W-SW 251 0 min 0,000 mm 0,0 UV-I 0 W/m 5,0 C 0,4 C 24,1 km/h (4 Bft) 100,00 %
30.01.2018 07:00 7,2 C 4,4 C 86 % 1027,0 hPa 0,0 l/m 17,4 km/h (3 Bft) W-SW 256 0 min 0,025 mm 0,0 UV-I 0 W/m 5,0 C 0,7 C 22,5 km/h (4 Bft) 98,11 %
30.01.2018 07:02 7,2 C 4,4 C 86 % 1027,0 hPa 0,0 l/m 17,2 km/h (3 Bft) W-SW 252 0 min 0,000 mm 0,0 UV-I 0 W/m 5,0 C 0,8 C 24,1 km/h (4 Bft) 97,14 %
30.01.2018 07:04 7,2 C 4,4 C 86 % 1027,1 hPa 0,0 l/m 16,0 km/h (3 Bft) W 263 0 min 0,000 mm 0,0 UV-I 0 W/m 5,0 C 1,3 C 22,5 km/h (4 Bft) 100,00 %
30.01.2018 07:06 7,2 C 4,4 C 86 % 1027,1 hPa 0,0 l/m 19,3 km/h (3 Bft) SW 222 0 min 0,000 mm 0,0 UV-I 0 W/m 5,0 C -0,1 C 27,4 km/h (4 Bft) 95,12 %
30.01.2018 07:08 7,2 C 4,4 C 86 % 1027,1 hPa 0,0 l/m 16,6 km/h (3 Bft) W-SW 247 0 min 0,000 mm 0,0 UV-I 0 W/m 5,0 C 1,0 C 22,5 km/h (4 Bft) 100,00 %
30.01.2018 07:10 7,2 C 4,4 C 86 % 1027,1 hPa 0,0 l/m 17,0 km/h (3 Bft) W-SW 254 0 min 0,000 mm 0,0 UV-I 0 W/m 5,0 C 0,8 C 22,5 km/h (4 Bft) 97,87 %
30.01.2018 07:12 7,2 C 4,4 C 86 % 1027,1 hPa 0,0 l/m 17,0 km/h (3 Bft) W-SW 242 0 min 0,000 mm 0,0 UV-I 0 W/m 5,0 C 0,8 C 29,0 km/h (5 Bft) 100,00 %
30.01.2018 07:14 7,2 C 4,4 C 86 % 1027,0 hPa 0,0 l/m 16,5 km/h (3 Bft) W 269 0 min 0,000 mm 0,0 UV-I 0 W/m 5,0 C 1,1 C 24,1 km/h (4 Bft) 100,00 %
30.01.2018 07:16 7,2 C 4,4 C 85 % 1027,2 hPa 0,0 l/m 16,8 km/h (3 Bft) SW 230 0 min 0,000 mm 0,0 UV-I 0 W/m 4,9 C 0,9 C 20,9 km/h (4 Bft) 96,23 %
30.01.2018 07:18 7,2 C 4,4 C 85 % 1027,1 hPa 0,0 l/m 16,7 km/h (3 Bft) W-SW 254 0 min 0,000 mm 0,0 UV-I 0 W/m 4,9 C 1,0 C 24,1 km/h (4 Bft) 100,00 %
30.01.2018 07:20 7,2 C 4,4 C 85 % 1027,1 hPa 0,0 l/m 17,3 km/h (3 Bft) S-SW 196 0 min 0,000 mm 0,0 UV-I 0 W/m 4,9 C 0,7 C 25,7 km/h (4 Bft) 100,00 %
30.01.2018 07:22 7,3 C 4,4 C 85 % 1027,1 hPa 0,0 l/m 16,4 km/h (3 Bft) W 263 0 min 0,000 mm 0,0 UV-I 0 W/m 4,9 C 1,2 C 25,7 km/h (4 Bft) 100,00 %
30.01.2018 07:24 7,2 C 4,4 C 85 % 1027,1 hPa 0,0 l/m 16,5 km/h (3 Bft) W 267 0 min 0,000 mm 0,0 UV-I 0 W/m 4,9 C 1,1 C 24,1 km/h (4 Bft) 100,00 %
30.01.2018 07:26 7,2 C 4,4 C 86 % 1027,1 hPa 0,0 l/m 19,4 km/h (3 Bft) SW 232 0 min 0,000 mm 0,0 UV-I 0 W/m 5,0 C -0,1 C 30,6 km/h (5 Bft) 100,00 %
30.01.2018 07:28 7,2 C 4,4 C 86 % 1027,1 hPa 0,0 l/m 18,1 km/h (3 Bft) W 275 0 min 0,000 mm 0,0 UV-I 2 W/m 5,0 C 0,4 C 25,7 km/h (4 Bft) 98,00 %
30.01.2018 07:30 7,2 C 4,4 C 86 % 1027,1 hPa 0,0 l/m 18,9 km/h (3 Bft) W-SW 250 0 min 0,000 mm 0,0 UV-I 5 W/m 5,0 C 0,1 C 25,7 km/h (4 Bft) 100,00 %
30.01.2018 07:32 7,2 C 4,4 C 86 % 1027,2 hPa 0,0 l/m 19,4 km/h (3 Bft) W-NW 285 0 min 0,000 mm 0,0 UV-I 2 W/m 5,0 C -0,1 C 30,6 km/h (5 Bft) 100,00 %
30.01.2018 07:34 7,1 C 4,4 C 87 % 1027,6 hPa 0,0 l/m 13,9 km/h (3 Bft) W-SW 257 0 min 0,000 mm 0,0 UV-I 0 W/m 5,1 C 2,2 C 27,4 km/h (4 Bft) 97,87 %
30.01.2018 07:36 6,9 C 4,4 C 87 % 1027,5 hPa 0,0 l/m 8,6 km/h (2 Bft) N-NW 331 0 min 0,000 mm 0,0 UV-I 0 W/m 4,9 C 5,1 C 22,5 km/h (4 Bft) 97,87 %
30.01.2018 07:38 6,7 C 4,4 C 88 % 1027,6 hPa 0,2 l/m 15,7 km/h (3 Bft) W-NW 299 0 min 0,000 mm 0,0 UV-I 0 W/m 4,9 C 0,8 C 24,1 km/h (4 Bft) 95,74 %
30.01.2018 07:40 6,3 C 4,4 C 90 % 1027,7 hPa 0,0 l/m 11,8 km/h (2 Bft) W 263 0 min 0,000 mm 0,0 UV-I 0 W/m 4,8 C 2,4 C 16,1 km/h (3 Bft) 98,11 %
30.01.2018 07:42 6,1 C 4,4 C 90 % 1027,6 hPa 0,2 l/m 12,2 km/h (2 Bft) W-SW 250 0 min 0,000 mm 0,0 UV-I 5 W/m 4,6 C 1,9 C 25,7 km/h (4 Bft) 95,45 %
30.01.2018 07:44 5,9 C 4,4 C 91 % 1027,7 hPa 0,0 l/m 15,6 km/h (3 Bft) W-SW 258 0 min 0,000 mm 0,0 UV-I 5 W/m 4,5 C -0,1 C 24,1 km/h (4 Bft) 96,23 %
30.01.2018 07:46 5,8 C 4,4 C 92 % 1027,7 hPa 0,2 l/m 10,9 km/h (2 Bft) W 265 0 min 0,000 mm 0,0 UV-I 5 W/m 4,6 C 2,4 C 22,5 km/h (4 Bft) 97,44 %
30.01.2018 07:48 5,7 C 4,4 C 92 % 1027,7 hPa 0,0 l/m 8,6 km/h (2 Bft) NW 313 0 min 0,000 mm 0,0 UV-I 5 W/m 4,5 C 3,9 C 19,3 km/h (3 Bft) 98,08 %
30.01.2018 07:50 5,6 C 4,4 C 93 % 1027,7 hPa 0,0 l/m 10,7 km/h (2 Bft) W-NW 301 0 min 0,000 mm 0,0 UV-I 6 W/m 4,6 C 2,3 C 24,1 km/h (4 Bft) 97,87 %
30.01.2018 07:52 5,6 C 4,4 C 93 % 1027,8 hPa 0,0 l/m 11,7 km/h (2 Bft) W-NW 294 0 min 0,000 mm 0,0 UV-I 7 W/m 4,6 C 1,6 C 24,1 km/h (4 Bft) 97,44 %
30.01.2018 07:54 5,6 C 4,4 C 93 % 1027,7 hPa 0,0 l/m 12,0 km/h (2 Bft) W 279 0 min 0,000 mm 0,0 UV-I 8 W/m 4,6 C 1,4 C 19,3 km/h (3 Bft) 96,00 %
30.01.2018 07:56 5,6 C 4,4 C 93 % 1027,8 hPa 0,2 l/m 10,1 km/h (2 Bft) W-NW 292 0 min 0,000 mm 0,0 UV-I 8 W/m 4,6 C 2,7 C 17,7 km/h (3 Bft) 97,73 %
30.01.2018 07:58 5,6 C 4,4 C 93 % 1027,8 hPa 0,0 l/m 13,3 km/h (3 Bft) NW 319 0 min 0,000 mm 0,0 UV-I 7 W/m 4,6 C 0,7 C 24,1 km/h (4 Bft) 98,21 %
30.01.2018 08:00 5,5 C 4,4 C 93 % 1027,8 hPa 0,0 l/m 12,8 km/h (3 Bft) W-NW 283 0 min 0,026 mm 0,0 UV-I 9 W/m 4,5 C 0,9 C 19,3 km/h (3 Bft) 94,74 %
30.01.2018 08:02 5,5 C 4,4 C 93 % 1027,9 hPa 0,0 l/m 13,4 km/h (3 Bft) W-NW 298 0 min 0,000 mm 0,0 UV-I 9 W/m 4,5 C 0,5 C 27,4 km/h (4 Bft) 98,00 %
30.01.2018 08:04 5,5 C 4,4 C 93 % 1027,9 hPa 0,0 l/m 11,3 km/h (2 Bft) W-NW 292 0 min 0,000 mm 0,0 UV-I 9 W/m 4,5 C 1,8 C 19,3 km/h (3 Bft) 97,87 %
30.01.2018 08:06 5,5 C 4,4 C 93 % 1028,0 hPa 0,0 l/m 9,2 km/h (2 Bft) W-SW 246 0 min 0,000 mm 0,0 UV-I 12 W/m 4,5 C 3,2 C 16,1 km/h (3 Bft) 98,00 %
30.01.2018 08:08 5,5 C 4,4 C 94 % 1028,1 hPa 0,2 l/m 12,9 km/h (3 Bft) W 263 0 min 0,000 mm 0,0 UV-I 12 W/m 4,6 C 0,8 C 22,5 km/h (4 Bft) 100,00 %
30.01.2018 08:10 5,5 C 4,4 C 94 % 1028,1 hPa 0,0 l/m 12,7 km/h (3 Bft) W-NW 286 0 min 0,000 mm 0,0 UV-I 11 W/m 4,6 C 0,9 C 20,9 km/h (4 Bft) 100,00 %
30.01.2018 08:12 5,5 C 4,4 C 94 % 1028,1 hPa 0,0 l/m 11,1 km/h (2 Bft) W-SW 247 0 min 0,000 mm 0,0 UV-I 11 W/m 4,6 C 1,9 C 20,9 km/h (4 Bft) 97,56 %
30.01.2018 08:14 5,4 C 4,4 C 94 % 1028,0 hPa 0,0 l/m 12,4 km/h (3 Bft) W 278 0 min 0,000 mm 0,0 UV-I 10 W/m 4,5 C 1,0 C 17,7 km/h (3 Bft) 100,00 %
30.01.2018 08:16 5,4 C 4,4 C 94 % 1028,1 hPa 0,0 l/m 11,8 km/h (2 Bft) W 263 0 min 0,000 mm 0,0 UV-I 11 W/m 4,5 C 1,3 C 24,1 km/h (4 Bft) 100,00 %
30.01.2018 08:18 5,4 C 4,4 C 94 % 1028,1 hPa 0,2 l/m 14,3 km/h (3 Bft) W-SW 245 0 min 0,000 mm 0,0 UV-I 11 W/m 4,5 C -0,1 C 30,6 km/h (5 Bft) 97,14 %
30.01.2018 08:20 5,4 C 4,4 C 94 % 1028,1 hPa 0,0 l/m 12,8 km/h (3 Bft) W-SW 244 0 min 0,000 mm 0,0 UV-I 10 W/m 4,5 C 0,7 C 17,7 km/h (3 Bft) 100,00 %
30.01.2018 08:22 5,4 C 4,4 C 94 % 1028,2 hPa 0,0 l/m 15,4 km/h (3 Bft) W 263 0 min 0,000 mm 0,0 UV-I 12 W/m 4,5 C -0,6 C 29,0 km/h (5 Bft) 100,00 %
30.01.2018 08:24 5,4 C 4,4 C 94 % 1028,1 hPa 0,0 l/m 14,2 km/h (3 Bft) SW 232 0 min 0,000 mm 0,0 UV-I 14 W/m 4,5 C -0,0 C 27,4 km/h (4 Bft) 100,00 %
30.01.2018 08:26 5,4 C 4,4 C 94 % 1028,2 hPa 0,2 l/m 14,2 km/h (3 Bft) W-SW 243 0 min 0,000 mm 0,0 UV-I 12 W/m 4,5 C -0,0 C 27,4 km/h (4 Bft) 100,00 %
30.01.2018 08:28 5,4 C 4,4 C 94 % 1028,2 hPa 0,0 l/m 14,4 km/h (3 Bft) W-SW 257 0 min 0,000 mm 0,0 UV-I 13 W/m 4,5 C -0,1 C 25,7 km/h (4 Bft) 100,00 %
30.01.2018 08:30 5,4 C 4,4 C 94 % 1028,2 hPa 0,0 l/m 11,2 km/h (2 Bft) N-NW 338 0 min 0,000 mm 0,0 UV-I 17 W/m 4,5 C 1,7 C 19,3 km/h (3 Bft) 97,44 %
30.01.2018 08:32 5,4 C 4,4 C 94 % 1028,2 hPa 0,0 l/m 13,5 km/h (3 Bft) W 273 0 min 0,000 mm 0,0 UV-I 16 W/m 4,5 C 0,4 C 22,5 km/h (4 Bft) 100,00 %
30.01.2018 08:34 5,4 C 4,4 C 94 % 1028,2 hPa 0,2 l/m 16,5 km/h (3 Bft) W 279 0 min 0,000 mm 0,0 UV-I 18 W/m 4,5 C -1,2 C 29,0 km/h (5 Bft) 100,00 %
30.01.2018 08:36 5,4 C 4,4 C 94 % 1028,3 hPa 0,0 l/m 17,1 km/h (3 Bft) W-NW 290 0 min 0,000 mm 0,0 UV-I 17 W/m 4,5 C -1,4 C 30,6 km/h (5 Bft) 100,00 %
30.01.2018 08:38 5,4 C 4,4 C 94 % 1028,2 hPa 0,0 l/m 13,1 km/h (3 Bft) W-SW 248 0 min 0,000 mm 0,0 UV-I 24 W/m 4,5 C 0,6 C 25,7 km/h (4 Bft) 100,00 %
30.01.2018 08:40 5,4 C 4,4 C 94 % 1028,2 hPa 0,0 l/m 13,0 km/h (3 Bft) W 262 0 min 0,000 mm 0,0 UV-I 25 W/m 4,5 C 0,6 C 22,5 km/h (4 Bft) 100,00 %
30.01.2018 08:42 5,3 C 4,4 C 93 % 1028,2 hPa 0,0 l/m 16,3 km/h (3 Bft) W-NW 290 0 min 0,000 mm 0,0 UV-I 24 W/m 4,3 C -1,2 C 24,1 km/h (4 Bft) 100,00 %
30.01.2018 08:44 5,3 C 4,4 C 93 % 1028,3 hPa 0,0 l/m 11,8 km/h (2 Bft) W-SW 246 0 min 0,000 mm 0,0 UV-I 27 W/m 4,3 C 1,2 C 20,9 km/h (4 Bft) 100,00 %
30.01.2018 08:46 5,3 C 4,4 C 93 % 1028,3 hPa 0,0 l/m 9,7 km/h (2 Bft) W 260 0 min 0,000 mm 0,0 UV-I 36 W/m 4,3 C 2,6 C 16,1 km/h (3 Bft) 100,00 %
30.01.2018 08:48 5,4 C 4,4 C 93 % 1028,3 hPa 0,0 l/m 13,6 km/h (3 Bft) W 259 0 min 0,000 mm 0,0 UV-I 38 W/m 4,4 C 0,3 C 22,5 km/h (4 Bft) 98,00 %
30.01.2018 08:50 5,4 C 4,4 C 93 % 1028,3 hPa 0,0 l/m 17,3 km/h (3 Bft) W-SW 252 0 min 0,000 mm 0,0 UV-I 31 W/m 4,4 C -1,5 C 30,6 km/h (5 Bft) 97,37 %
30.01.2018 08:52 5,4 C 4,4 C 93 % 1028,3 hPa 0,0 l/m 13,2 km/h (3 Bft) W 273 0 min 0,000 mm 0,0 UV-I 40 W/m 4,4 C 0,5 C 17,7 km/h (3 Bft) 96,23 %
30.01.2018 08:54 5,5 C 4,4 C 93 % 1028,4 hPa 0,0 l/m 11,3 km/h (2 Bft) W-SW 253 0 min 0,000 mm 0,0 UV-I 47 W/m 4,5 C 1,8 C 16,1 km/h (3 Bft) 96,23 %
30.01.2018 08:56 5,5 C 4,4 C 93 % 1028,3 hPa 0,0 l/m 11,0 km/h (2 Bft) NW 313 0 min 0,000 mm 0,0 UV-I 50 W/m 4,5 C 2,0 C 24,1 km/h (4 Bft) 97,37 %
30.01.2018 08:58 5,5 C 4,4 C 93 % 1028,4 hPa 0,0 l/m 11,4 km/h (2 Bft) W-SW 251 0 min 0,000 mm 0,0 UV-I 65 W/m 4,5 C 1,7 C 20,9 km/h (4 Bft) 98,00 %
30.01.2018 09:00 5,6 C 4,4 C 93 % 1028,4 hPa 0,0 l/m 7,6 km/h (2 Bft) NW 305 0 min 0,025 mm 0,0 UV-I 78 W/m 4,6 C 4,6 C 14,5 km/h (3 Bft) 98,11 %
30.01.2018 09:02 5,6 C 4,4 C 93 % 1028,5 hPa 0,0 l/m 11,2 km/h (2 Bft) W 267 0 min 0,000 mm 0,0 UV-I 67 W/m 4,6 C 1,9 C 19,3 km/h (3 Bft) 94,87 %
30.01.2018 09:04 5,6 C 4,4 C 94 % 1028,5 hPa 0,0 l/m 13,0 km/h (3 Bft) W-SW 254 0 min 0,000 mm 0,0 UV-I 62 W/m 4,7 C 0,9 C 27,4 km/h (4 Bft) 98,08 %
30.01.2018 09:06 5,6 C 4,4 C 94 % 1028,5 hPa 0,0 l/m 9,3 km/h (2 Bft) W-SW 244 0 min 0,000 mm 0,0 UV-I 69 W/m 4,7 C 3,2 C 17,7 km/h (3 Bft) 97,62 %
30.01.2018 09:08 5,7 C 4,4 C 94 % 1028,5 hPa 0,0 l/m 10,2 km/h (2 Bft) W-NW 289 0 min 0,000 mm 0,0 UV-I 68 W/m 4,8 C 2,7 C 16,1 km/h (3 Bft) 98,21 %
30.01.2018 09:10 5,6 C 4,4 C 94 % 1028,6 hPa 0,0 l/m 11,2 km/h (2 Bft) W 261 0 min 0,000 mm 0,0 UV-I 61 W/m 4,7 C 1,9 C 16,1 km/h (3 Bft) 97,73 %
30.01.2018 09:12 5,6 C 4,4 C 94 % 1028,6 hPa 0,0 l/m 9,6 km/h (2 Bft) W-SW 245 0 min 0,000 mm 0,0 UV-I 67 W/m 4,7 C 3,0 C 14,5 km/h (3 Bft) 97,37 %
30.01.2018 09:14 5,6 C 4,4 C 94 % 1028,5 hPa 0,0 l/m 12,9 km/h (3 Bft) W 265 0 min 0,000 mm 0,0 UV-I 60 W/m 4,7 C 0,9 C 17,7 km/h (3 Bft) 96,23 %
30.01.2018 09:16 5,6 C 4,4 C 94 % 1028,5 hPa 0,0 l/m 16,2 km/h (3 Bft) W 267 0 min 0,000 mm 0,0 UV-I 65 W/m 4,7 C -0,8 C 30,6 km/h (5 Bft) 98,00 %
30.01.2018 09:18 5,6 C 4,4 C 93 % 1028,6 hPa 0,0 l/m 12,0 km/h (2 Bft) W 274 0 min 0,000 mm 0,0 UV-I 77 W/m 4,6 C 1,4 C 24,1 km/h (4 Bft) 97,37 %
30.01.2018 09:20 5,7 C 4,4 C 93 % 1028,5 hPa 0,0 l/m 14,9 km/h (3 Bft) W-NW 282 0 min 0,000 mm 0,0 UV-I 75 W/m 4,7 C -0,0 C 20,9 km/h (4 Bft) 98,00 %
30.01.2018 09:22 5,7 C 4,4 C 93 % 1028,6 hPa 0,0 l/m 15,0 km/h (3 Bft) W-NW 284 0 min 0,000 mm 0,0 UV-I 90 W/m 4,7 C -0,1 C 25,7 km/h (4 Bft) 98,00 %
30.01.2018 09:24 5,7 C 4,4 C 92 % 1028,6 hPa 0,0 l/m 15,0 km/h (3 Bft) W-SW 257 0 min 0,000 mm 0,0 UV-I 88 W/m 4,5 C -0,1 C 20,9 km/h (4 Bft) 97,56 %
30.01.2018 09:26 5,8 C 4,4 C 92 % 1028,6 hPa 0,0 l/m 13,2 km/h (3 Bft) W-SW 257 0 min 0,000 mm 0,0 UV-I 88 W/m 4,6 C 1,0 C 22,5 km/h (4 Bft) 96,23 %
30.01.2018 09:28 5,8 C 4,4 C 92 % 1028,6 hPa 0,0 l/m 13,5 km/h (3 Bft) W 277 0 min 0,000 mm 0,0 UV-I 110 W/m 4,6 C 0,8 C 20,9 km/h (4 Bft) 97,56 %
30.01.2018 09:30 5,8 C 4,4 C 93 % 1028,5 hPa 0,0 l/m 13,2 km/h (3 Bft) W-SW 250 0 min 0,000 mm 0,0 UV-I 102 W/m 4,8 C 1,0 C 22,5 km/h (4 Bft) 95,74 %
30.01.2018 09:32 5,8 C 4,4 C 93 % 1028,4 hPa 0,0 l/m 12,7 km/h (3 Bft) W 263 0 min 0,000 mm 0,0 UV-I 89 W/m 4,8 C 1,3 C 20,9 km/h (4 Bft) 98,00 %
30.01.2018 09:34 5,8 C 4,4 C 92 % 1028,4 hPa 0,0 l/m 14,1 km/h (3 Bft) W-NW 299 0 min 0,000 mm 0,0 UV-I 68 W/m 4,6 C 0,5 C 24,1 km/h (4 Bft) 97,87 %
30.01.2018 09:36 5,8 C 4,4 C 93 % 1028,5 hPa 0,0 l/m 12,9 km/h (3 Bft) W 265 0 min 0,000 mm 0,0 UV-I 64 W/m 4,8 C 1,2 C 24,1 km/h (4 Bft) 92,45 %
30.01.2018 09:38 5,8 C 4,4 C 92 % 1028,5 hPa 0,0 l/m 14,9 km/h (3 Bft) W 263 0 min 0,000 mm 0,0 UV-I 66 W/m 4,6 C 0,1 C 20,9 km/h (4 Bft) 95,12 %
30.01.2018 09:40 5,8 C 4,4 C 92 % 1028,6 hPa 0,0 l/m 15,3 km/h (3 Bft) W-NW 294 0 min 0,000 mm 0,0 UV-I 70 W/m 4,6 C -0,1 C 22,5 km/h (4 Bft) 98,00 %
30.01.2018 09:42 5,9 C 4,4 C 92 % 1028,6 hPa 0,0 l/m 14,9 km/h (3 Bft) W-NW 295 0 min 0,000 mm 0,0 UV-I 94 W/m 4,7 C 0,2 C 19,3 km/h (3 Bft) 95,74 %
30.01.2018 09:44 5,9 C 4,4 C 92 % 1028,6 hPa 0,0 l/m 14,2 km/h (3 Bft) W 261 0 min 0,000 mm 0,0 UV-I 84 W/m 4,7 C 0,6 C 19,3 km/h (3 Bft) 92,31 %
30.01.2018 09:46 5,9 C 4,4 C 92 % 1028,6 hPa 0,0 l/m 13,3 km/h (3 Bft) W 261 0 min 0,000 mm 0,0 UV-I 76 W/m 4,7 C 1,1 C 17,7 km/h (3 Bft) 96,00 %
30.01.2018 09:48 5,9 C 4,4 C 92 % 1028,6 hPa 0,0 l/m 11,6 km/h (2 Bft) W 259 0 min 0,000 mm 0,0 UV-I 80 W/m 4,7 C 2,0 C 16,1 km/h (3 Bft) 92,00 %
30.01.2018 09:50 5,9 C 4,4 C 92 % 1028,7 hPa 0,0 l/m 14,4 km/h (3 Bft) W-SW 257 0 min 0,000 mm 0,0 UV-I 80 W/m 4,7 C 0,5 C 25,7 km/h (4 Bft) 95,45 %
30.01.2018 09:52 6,0 C 4,4 C 92 % 1028,6 hPa 0,0 l/m 14,5 km/h (3 Bft) W-NW 290 0 min 0,000 mm 0,0 UV-I 65 W/m 4,8 C 0,5 C 20,9 km/h (4 Bft) 95,45 %
30.01.2018 09:54 5,9 C 4,4 C 91 % 1028,8 hPa 0,0 l/m 14,4 km/h (3 Bft) W-NW 289 0 min 0,000 mm 0,0 UV-I 58 W/m 4,5 C 0,5 C 25,7 km/h (4 Bft) 94,34 %
30.01.2018 09:56 5,9 C 4,4 C 91 % 1028,7 hPa 0,0 l/m 16,3 km/h (3 Bft) SW 231 0 min 0,000 mm 0,0 UV-I 54 W/m 4,5 C -0,5 C 29,0 km/h (5 Bft) 94,00 %
30.01.2018 09:58 5,9 C 4,4 C 90 % 1028,8 hPa 0,0 l/m 14,9 km/h (3 Bft) W 281 0 min 0,000 mm 0,0 UV-I 59 W/m 4,4 C 0,2 C 24,1 km/h (4 Bft) 97,37 %
30.01.2018 10:00 5,9 C 4,4 C 90 % 1028,8 hPa 0,0 l/m 16,2 km/h (3 Bft) W 268 0 min 0,051 mm 0,0 UV-I 65 W/m 4,4 C -0,4 C 24,1 km/h (4 Bft) 97,87 %
30.01.2018 10:02 5,9 C 4,4 C 91 % 1028,8 hPa 0,0 l/m 10,8 km/h (2 Bft) W-NW 295 0 min 0,000 mm 0,0 UV-I 77 W/m 4,5 C 2,5 C 22,5 km/h (4 Bft) 97,87 %
30.01.2018 10:04 5,9 C 4,4 C 90 % 1028,8 hPa 0,0 l/m 12,8 km/h (3 Bft) W-SW 257 0 min 0,000 mm 0,0 UV-I 71 W/m 4,4 C 1,3 C 20,9 km/h (4 Bft) 97,56 %
30.01.2018 10:06 5,9 C 4,4 C 90 % 1028,8 hPa 0,0 l/m 15,4 km/h (3 Bft) NW 318 0 min 0,000 mm 0,0 UV-I 64 W/m 4,4 C -0,0 C 33,8 km/h (5 Bft) 97,56 %
30.01.2018 10:08 5,9 C 4,4 C 90 % 1028,8 hPa 0,0 l/m 13,9 km/h (3 Bft) W-SW 250 0 min 0,000 mm 0,0 UV-I 62 W/m 4,4 C 0,7 C 20,9 km/h (4 Bft) 98,46 %
30.01.2018 10:10 5,9 C 4,4 C 89 % 1028,7 hPa 0,0 l/m 16,3 km/h (3 Bft) W-SW 250 0 min 0,000 mm 0,0 UV-I 60 W/m 4,2 C -0,5 C 29,0 km/h (5 Bft) 97,37 %
30.01.2018 10:12 5,9 C 4,4 C 89 % 1028,7 hPa 0,0 l/m 14,4 km/h (3 Bft) W 273 0 min 0,000 mm 0,0 UV-I 71 W/m 4,2 C 0,5 C 24,1 km/h (4 Bft) 98,00 %
30.01.2018 10:14 5,9 C 4,4 C 89 % 1028,8 hPa 0,0 l/m 19,2 km/h (3 Bft) W-SW 240 0 min 0,000 mm 0,0 UV-I 62 W/m 4,2 C -1,7 C 25,7 km/h (4 Bft) 98,00 %
30.01.2018 10:16 5,9 C 4,4 C 89 % 1028,7 hPa 0,0 l/m 17,9 km/h (3 Bft) W-SW 254 0 min 0,000 mm 0,0 UV-I 67 W/m 4,2 C -1,2 C 25,7 km/h (4 Bft) 100,00 %
30.01.2018 10:18 5,9 C 4,4 C 89 % 1028,8 hPa 0,0 l/m 14,5 km/h (3 Bft) W-SW 257 0 min 0,000 mm 0,0 UV-I 63 W/m 4,2 C 0,4 C 24,1 km/h (4 Bft) 98,00 %
30.01.2018 10:20 5,9 C 4,4 C 89 % 1028,8 hPa 0,0 l/m 18,9 km/h (3 Bft) W 266 0 min 0,000 mm 0,0 UV-I 61 W/m 4,2 C -1,6 C 29,0 km/h (5 Bft) 100,00 %
30.01.2018 10:22 5,9 C 4,4 C 88 % 1028,8 hPa 0,0 l/m 12,9 km/h (3 Bft) W-SW 252 0 min 0,000 mm 0,0 UV-I 56 W/m 4,1 C 1,3 C 17,7 km/h (3 Bft) 100,00 %
30.01.2018 10:24 5,9 C 4,4 C 88 % 1028,9 hPa 0,0 l/m 14,3 km/h (3 Bft) SW 234 0 min 0,000 mm 0,0 UV-I 57 W/m 4,1 C 0,5 C 19,3 km/h (3 Bft) 97,73 %
30.01.2018 10:26 5,9 C 4,4 C 88 % 1028,8 hPa 0,0 l/m 14,9 km/h (3 Bft) W 264 0 min 0,000 mm 0,0 UV-I 56 W/m 4,1 C 0,2 C 19,3 km/h (3 Bft) 100,00 %
30.01.2018 10:28 5,9 C 4,4 C 88 % 1028,8 hPa 0,0 l/m 14,3 km/h (3 Bft) W-SW 247 0 min 0,000 mm 0,0 UV-I 67 W/m 4,1 C 0,5 C 19,3 km/h (3 Bft) 100,00 %
30.01.2018 10:30 5,9 C 4,4 C 88 % 1028,7 hPa 0,0 l/m 12,7 km/h (3 Bft) W 270 0 min 0,000 mm 0,0 UV-I 74 W/m 4,1 C 1,4 C 17,7 km/h (3 Bft) 100,00 %
30.01.2018 10:32 5,9 C 4,4 C 88 % 1028,7 hPa 0,0 l/m 12,7 km/h (3 Bft) W 263 0 min 0,000 mm 0,0 UV-I 83 W/m 4,1 C 1,4 C 20,9 km/h (4 Bft) 100,00 %
30.01.2018 10:34 6,0 C 4,4 C 88 % 1028,6 hPa 0,0 l/m 15,7 km/h (3 Bft) W 262 0 min 0,000 mm 0,0 UV-I 83 W/m 4,2 C -0,1 C 22,5 km/h (4 Bft) 100,00 %
30.01.2018 10:36 6,0 C 4,4 C 87 % 1028,6 hPa 0,0 l/m 11,8 km/h (2 Bft) W-SW 240 0 min 0,000 mm 0,0 UV-I 80 W/m 4,0 C 2,0 C 20,9 km/h (4 Bft) 100,00 %
30.01.2018 10:38 6,0 C 4,4 C 87 % 1028,7 hPa 0,0 l/m 11,4 km/h (2 Bft) W-NW 284 0 min 0,000 mm 0,0 UV-I 84 W/m 4,0 C 2,3 C 19,3 km/h (3 Bft) 100,00 %
30.01.2018 10:40 6,1 C 4,4 C 87 % 1028,8 hPa 0,0 l/m 14,7 km/h (3 Bft) W 265 0 min 0,000 mm 0,0 UV-I 86 W/m 4,1 C 0,6 C 19,3 km/h (3 Bft) 100,00 %
30.01.2018 10:42 6,1 C 4,4 C 87 % 1028,8 hPa 0,0 l/m 13,5 km/h (3 Bft) W-SW 255 0 min 0,000 mm 0,0 UV-I 86 W/m 4,1 C 1,2 C 19,3 km/h (3 Bft) 97,87 %
30.01.2018 10:44 6,1 C 4,4 C 86 % 1028,9 hPa 0,0 l/m 13,2 km/h (3 Bft) W 267 0 min 0,000 mm 0,0 UV-I 83 W/m 3,9 C 1,3 C 22,5 km/h (4 Bft) 100,00 %
30.01.2018 10:46 6,1 C 4,4 C 86 % 1028,9 hPa 0,0 l/m 11,7 km/h (2 Bft) W 267 0 min 0,000 mm 0,0 UV-I 79 W/m 3,9 C 2,2 C 17,7 km/h (3 Bft) 100,00 %
30.01.2018 10:49 6,1 C 4,4 C 86 % 1028,9 hPa 0,0 l/m 14,1 km/h (3 Bft) W-SW 246 0 min 0,000 mm 0,0 UV-I 72 W/m 3,9 C 0,9 C 20,9 km/h (4 Bft) 98,70 %
30.01.2018 10:50 6,1 C 4,4 C 86 % 1028,9 hPa 0,0 l/m 16,3 km/h (3 Bft) W 270 0 min 0,000 mm 0,0 UV-I 73 W/m 3,9 C -0,2 C 25,7 km/h (4 Bft) 100,00 %
30.01.2018 10:52 6,1 C 4,4 C 85 % 1028,9 hPa 0,0 l/m 18,0 km/h (3 Bft) W 261 0 min 0,000 mm 0,0 UV-I 70 W/m 3,8 C -1,0 C 25,7 km/h (4 Bft) 100,00 %
30.01.2018 10:54 6,1 C 4,4 C 86 % 1029,0 hPa 0,0 l/m 12,6 km/h (3 Bft) W 262 0 min 0,000 mm 0,0 UV-I 69 W/m 3,9 C 1,7 C 16,1 km/h (3 Bft) 97,73 %
30.01.2018 10:56 6,1 C 4,4 C 86 % 1029,0 hPa 0,0 l/m 10,9 km/h (2 Bft) W-SW 257 0 min 0,000 mm 0,0 UV-I 67 W/m 3,9 C 2,7 C 16,1 km/h (3 Bft) 100,00 %
30.01.2018 10:58 6,1 C 4,4 C 86 % 1028,9 hPa 0,0 l/m 15,0 km/h (3 Bft) W-SW 257 0 min 0,000 mm 0,0 UV-I 68 W/m 3,9 C 0,4 C 20,9 km/h (4 Bft) 96,00 %
30.01.2018 11:00 6,1 C 4,4 C 86 % 1028,9 hPa 0,0 l/m 12,4 km/h (3 Bft) W 276 0 min 0,000 mm 0,0 UV-I 72 W/m 3,9 C 1,8 C 22,5 km/h (4 Bft) 100,00 %
30.01.2018 11:02 6,1 C 4,4 C 86 % 1028,9 hPa 0,0 l/m 11,9 km/h (2 Bft) W 263 0 min 0,051 mm 0,0 UV-I 71 W/m 3,9 C 2,1 C 19,3 km/h (3 Bft) 100,00 %
30.01.2018 11:04 6,1 C 4,4 C 86 % 1028,9 hPa 0,0 l/m 13,6 km/h (3 Bft) W-SW 254 0 min 0,000 mm 0,0 UV-I 71 W/m 3,9 C 1,1 C 20,9 km/h (4 Bft) 94,74 %
30.01.2018 11:06 6,2 C 4,4 C 85 % 1028,9 hPa 0,0 l/m 14,8 km/h (3 Bft) W 263 0 min 0,000 mm 0,0 UV-I 75 W/m 3,9 C 0,6 C 22,5 km/h (4 Bft) 100,00 %
30.01.2018 11:08 6,2 C 4,4 C 86 % 1028,9 hPa 0,0 l/m 11,1 km/h (2 Bft) W 262 0 min 0,000 mm 0,0 UV-I 70 W/m 4,0 C 2,7 C 16,1 km/h (3 Bft) 100,00 %
30.01.2018 11:10 6,2 C 4,4 C 86 % 1028,9 hPa 0,0 l/m 11,1 km/h (2 Bft) W-NW 290 0 min 0,000 mm 0,0 UV-I 69 W/m 4,0 C 2,7 C 14,5 km/h (3 Bft) 100,00 %
30.01.2018 11:12 6,2 C 4,4 C 86 % 1028,9 hPa 0,0 l/m 13,0 km/h (3 Bft) W 260 0 min 0,000 mm 0,0 UV-I 66 W/m 4,0 C 1,6 C 19,3 km/h (3 Bft) 100,00 %
30.01.2018 11:14 6,2 C 4,4 C 85 % 1028,9 hPa 0,0 l/m 10,1 km/h (2 Bft) W 271 0 min 0,000 mm 0,0 UV-I 68 W/m 3,9 C 3,3 C 16,1 km/h (3 Bft) 100,00 %
30.01.2018 11:16 6,2 C 4,4 C 85 % 1029,0 hPa 0,0 l/m 15,4 km/h (3 Bft) W 263 0 min 0,000 mm 0,0 UV-I 72 W/m 3,9 C 0,3 C 20,9 km/h (4 Bft) 97,87 %
30.01.2018 11:18 6,2 C 4,4 C 84 % 1028,9 hPa 0,0 l/m 12,3 km/h (3 Bft) W 267 0 min 0,000 mm 0,0 UV-I 70 W/m 3,7 C 2,0 C 20,9 km/h (4 Bft) 100,00 %
30.01.2018 11:20 6,2 C 4,4 C 84 % 1028,9 hPa 0,0 l/m 9,9 km/h (2 Bft) W 259 0 min 0,000 mm 0,0 UV-I 68 W/m 3,7 C 3,5 C 19,3 km/h (3 Bft) 98,00 %
30.01.2018 11:22 6,3 C 4,4 C 83 % 1028,8 hPa 0,0 l/m 13,1 km/h (3 Bft) W-SW 246 0 min 0,000 mm 0,0 UV-I 68 W/m 3,6 C 1,6 C 20,9 km/h (4 Bft) 100,00 %
30.01.2018 11:24 6,3 C 4,4 C 83 % 1028,9 hPa 0,0 l/m 11,8 km/h (2 Bft) SW 234 0 min 0,000 mm 0,0 UV-I 67 W/m 3,6 C 2,4 C 19,3 km/h (3 Bft) 100,00 %
30.01.2018 11:26 6,3 C 4,4 C 83 % 1028,9 hPa 0,0 l/m 12,6 km/h (3 Bft) W 267 0 min 0,000 mm 0,0 UV-I 65 W/m 3,6 C 1,9 C 20,9 km/h (4 Bft) 100,00 %
30.01.2018 11:28 6,3 C 4,4 C 83 % 1028,9 hPa 0,0 l/m 12,2 km/h (2 Bft) W 277 0 min 0,000 mm 0,0 UV-I 65 W/m 3,6 C 2,1 C 19,3 km/h (3 Bft) 97,56 %
30.01.2018 11:30 6,3 C 4,4 C 83 % 1029,0 hPa 0,0 l/m 12,9 km/h (3 Bft) W 265 0 min 0,000 mm 0,0 UV-I 61 W/m 3,6 C 1,7 C 19,3 km/h (3 Bft) 100,00 %
30.01.2018 11:32 6,3 C 4,4 C 82 % 1029,0 hPa 0,0 l/m 14,7 km/h (3 Bft) W 265 0 min 0,000 mm 0,0 UV-I 63 W/m 3,5 C 0,8 C 25,7 km/h (4 Bft) 100,00 %
30.01.2018 11:34 6,3 C 4,4 C 82 % 1029,0 hPa 0,0 l/m 13,7 km/h (3 Bft) W 273 0 min 0,000 mm 0,0 UV-I 69 W/m 3,5 C 1,3 C 22,5 km/h (4 Bft) 95,83 %
30.01.2018 11:36 6,3 C 4,4 C 83 % 1029,0 hPa 0,0 l/m 13,3 km/h (3 Bft) NW 305 0 min 0,000 mm 0,0 UV-I 70 W/m 3,6 C 1,5 C 19,3 km/h (3 Bft) 100,00 %
30.01.2018 11:38 6,3 C 4,4 C 83 % 1029,0 hPa 0,0 l/m 9,9 km/h (2 Bft) W 274 0 min 0,000 mm 0,0 UV-I 64 W/m 3,6 C 3,6 C 14,5 km/h (3 Bft) 98,00 %
30.01.2018 11:40 6,2 C 4,4 C 83 % 1028,9 hPa 0,0 l/m 12,1 km/h (2 Bft) W-SW 248 0 min 0,000 mm 0,0 UV-I 60 W/m 3,5 C 2,1 C 19,3 km/h (3 Bft) 100,00 %
30.01.2018 11:42 6,2 C 4,4 C 83 % 1029,0 hPa 0,0 l/m 12,1 km/h (2 Bft) W-NW 290 0 min 0,000 mm 0,0 UV-I 60 W/m 3,5 C 2,1 C 19,3 km/h (3 Bft) 100,00 %
30.01.2018 11:44 6,3 C 4,4 C 82 % 1029,0 hPa 0,0 l/m 8,6 km/h (2 Bft) W-SW 254 0 min 0,000 mm 0,0 UV-I 61 W/m 3,5 C 4,5 C 19,3 km/h (3 Bft) 98,39 %
30.01.2018 11:46 6,2 C 4,4 C 83 % 1029,1 hPa 0,0 l/m 9,2 km/h (2 Bft) SW 236 0 min 0,000 mm 0,0 UV-I 59 W/m 3,5 C 4,0 C 14,5 km/h (3 Bft) 98,00 %
30.01.2018 11:48 6,2 C 4,4 C 83 % 1029,0 hPa 0,0 l/m 11,7 km/h (2 Bft) NW 304 0 min 0,000 mm 0,0 UV-I 58 W/m 3,5 C 2,3 C 17,7 km/h (3 Bft) 97,37 %
30.01.2018 11:50 6,2 C 4,4 C 83 % 1029,0 hPa 0,0 l/m 13,6 km/h (3 Bft) SW 234 0 min 0,000 mm 0,0 UV-I 62 W/m 3,5 C 1,2 C 22,5 km/h (4 Bft) 98,00 %
30.01.2018 11:52 6,2 C 4,4 C 82 % 1028,9 hPa 0,0 l/m 15,0 km/h (3 Bft) W 260 0 min 0,000 mm 0,0 UV-I 63 W/m 3,4 C 0,5 C 19,3 km/h (3 Bft) 98,11 %
30.01.2018 11:54 6,2 C 4,4 C 82 % 1028,9 hPa 0,0 l/m 12,2 km/h (2 Bft) W-SW 252 0 min 0,000 mm 0,0 UV-I 66 W/m 3,4 C 2,0 C 17,7 km/h (3 Bft) 97,56 %
30.01.2018 11:56 6,2 C 4,4 C 82 % 1028,9 hPa 0,0 l/m 12,5 km/h (3 Bft) W-SW 256 0 min 0,000 mm 0,0 UV-I 71 W/m 3,4 C 1,8 C 19,3 km/h (3 Bft) 96,00 %
30.01.2018 11:58 6,3 C 4,4 C 83 % 1028,9 hPa 0,0 l/m 12,0 km/h (2 Bft) W-SW 252 0 min 0,000 mm 0,0 UV-I 77 W/m 3,6 C 2,3 C 17,7 km/h (3 Bft) 98,00 %
30.01.2018 12:00 6,3 C 4,4 C 83 % 1028,9 hPa 0,0 l/m 14,0 km/h (3 Bft) W-SW 244 0 min 0,051 mm 0,0 UV-I 83 W/m 3,6 C 1,2 C 22,5 km/h (4 Bft) 97,44 %
30.01.2018 12:02 6,3 C 4,4 C 83 % 1028,9 hPa 0,0 l/m 9,8 km/h (2 Bft) W-SW 257 0 min 0,000 mm 0,0 UV-I 85 W/m 3,6 C 3,6 C 17,7 km/h (3 Bft) 98,00 %
30.01.2018 12:04 6,3 C 4,4 C 82 % 1028,9 hPa 0,0 l/m 11,9 km/h (2 Bft) W 268 0 min 0,000 mm 0,0 UV-I 86 W/m 3,5 C 2,3 C 17,7 km/h (3 Bft) 94,00 %
30.01.2018 12:06 6,3 C 4,4 C 83 % 1028,9 hPa 0,0 l/m 10,5 km/h (2 Bft) W 267 0 min 0,000 mm 0,0 UV-I 90 W/m 3,6 C 3,2 C 16,1 km/h (3 Bft) 97,73 %
30.01.2018 12:08 6,3 C 4,4 C 83 % 1028,9 hPa 0,0 l/m 10,9 km/h (2 Bft) W 269 0 min 0,000 mm 0,0 UV-I 93 W/m 3,6 C 2,9 C 17,7 km/h (3 Bft) 95,12 %
30.01.2018 12:10 6,3 C 4,4 C 82 % 1029,0 hPa 0,0 l/m 13,2 km/h (3 Bft) W-SW 253 0 min 0,000 mm 0,0 UV-I 94 W/m 3,5 C 1,6 C 20,9 km/h (4 Bft) 98,00 %
30.01.2018 12:12 6,3 C 4,4 C 82 % 1029,0 hPa 0,0 l/m 15,3 km/h (3 Bft) SW 227 0 min 0,000 mm 0,0 UV-I 95 W/m 3,5 C 0,5 C 22,5 km/h (4 Bft) 96,97 %
30.01.2018 12:14 6,3 C 4,4 C 82 % 1029,0 hPa 0,0 l/m 8,3 km/h (2 Bft) W-SW 247 0 min 0,000 mm 0,0 UV-I 91 W/m 3,5 C 4,7 C 12,9 km/h (3 Bft) 93,75 %
30.01.2018 12:16 6,3 C 4,4 C 82 % 1029,0 hPa 0,0 l/m 12,1 km/h (2 Bft) W 272 0 min 0,000 mm 0,0 UV-I 90 W/m 3,5 C 2,2 C 19,3 km/h (3 Bft) 97,92 %
30.01.2018 12:18 6,3 C 4,4 C 81 % 1029,0 hPa 0,0 l/m 14,0 km/h (3 Bft) W-SW 250 0 min 0,000 mm 0,0 UV-I 92 W/m 3,3 C 1,2 C 20,9 km/h (4 Bft) 97,37 %
30.01.2018 12:20 6,3 C 4,4 C 82 % 1029,0 hPa 0,0 l/m 14,3 km/h (3 Bft) W 269 0 min 0,000 mm 0,0 UV-I 91 W/m 3,5 C 1,0 C 20,9 km/h (4 Bft) 98,00 %
30.01.2018 12:22 6,3 C 4,4 C 82 % 1029,0 hPa 0,0 l/m 10,0 km/h (2 Bft) W-SW 253 0 min 0,000 mm 0,0 UV-I 95 W/m 3,5 C 3,5 C 14,5 km/h (3 Bft) 100,00 %
30.01.2018 12:24 6,3 C 4,4 C 82 % 1029,0 hPa 0,0 l/m 14,1 km/h (3 Bft) W-SW 252 0 min 0,000 mm 0,0 UV-I 89 W/m 3,5 C 1,1 C 19,3 km/h (3 Bft) 97,73 %
30.01.2018 12:26 6,3 C 4,4 C 82 % 1029,0 hPa 0,0 l/m 8,6 km/h (2 Bft) W-SW 251 0 min 0,000 mm 0,0 UV-I 85 W/m 3,5 C 4,5 C 11,3 km/h (2 Bft) 98,11 %
30.01.2018 12:28 6,3 C 4,4 C 82 % 1029,0 hPa 0,0 l/m 14,1 km/h (3 Bft) S-SW 209 0 min 0,000 mm 0,0 UV-I 90 W/m 3,5 C 1,1 C 22,5 km/h (4 Bft) 100,00 %
30.01.2018 12:30 6,3 C 4,4 C 82 % 1029,0 hPa 0,0 l/m 15,1 km/h (3 Bft) W-SW 246 0 min 0,000 mm 0,0 UV-I 88 W/m 3,5 C 0,6 C 22,5 km/h (4 Bft) 100,00 %
30.01.2018 12:32 6,3 C 4,4 C 82 % 1029,0 hPa 0,0 l/m 10,6 km/h (2 Bft) W-SW 241 0 min 0,000 mm 0,0 UV-I 84 W/m 3,5 C 3,1 C 16,1 km/h (3 Bft) 98,11 %
30.01.2018 12:34 6,3 C 4,4 C 82 % 1029,0 hPa 0,0 l/m 6,0 km/h (2 Bft) SW 230 0 min 0,000 mm 0,0 UV-I 87 W/m 3,5 C 6,3 C 12,9 km/h (3 Bft) 100,00 %
30.01.2018 12:36 6,3 C 4,4 C 83 % 1029,0 hPa 0,0 l/m 8,4 km/h (2 Bft) W-NW 294 0 min 0,000 mm 0,0 UV-I 86 W/m 3,6 C 4,7 C 16,1 km/h (3 Bft) 100,00 %
30.01.2018 12:38 6,3 C 4,4 C 83 % 1029,0 hPa 0,0 l/m 9,6 km/h (2 Bft) W 259 0 min 0,000 mm 0,0 UV-I 91 W/m 3,6 C 3,8 C 17,7 km/h (3 Bft) 98,00 %
30.01.2018 12:40 6,3 C 4,4 C 83 % 1028,9 hPa 0,0 l/m 8,1 km/h (2 Bft) W 275 0 min 0,000 mm 0,0 UV-I 85 W/m 3,6 C 4,9 C 14,5 km/h (3 Bft) 100,00 %
30.01.2018 12:42 6,3 C 4,4 C 83 % 1028,9 hPa 0,0 l/m 9,5 km/h (2 Bft) W 262 0 min 0,000 mm 0,0 UV-I 84 W/m 3,6 C 3,9 C 17,7 km/h (3 Bft) 100,00 %
30.01.2018 12:44 6,3 C 4,4 C 83 % 1028,8 hPa 0,0 l/m 13,3 km/h (3 Bft) W 261 0 min 0,000 mm 0,0 UV-I 86 W/m 3,6 C 1,5 C 20,9 km/h (4 Bft) 100,00 %
30.01.2018 12:46 6,3 C 4,4 C 83 % 1028,8 hPa 0,0 l/m 9,5 km/h (2 Bft) W-NW 298 0 min 0,000 mm 0,0 UV-I 95 W/m 3,6 C 3,9 C 14,5 km/h (3 Bft) 100,00 %
30.01.2018 12:48 6,3 C 4,4 C 84 % 1028,8 hPa 0,0 l/m 8,1 km/h (2 Bft) W 268 0 min 0,000 mm 0,0 UV-I 105 W/m 3,8 C 4,9 C 11,3 km/h (2 Bft) 100,00 %
30.01.2018 12:50 6,3 C 4,4 C 84 % 1028,8 hPa 0,0 l/m 7,0 km/h (2 Bft) W 275 0 min 0,000 mm 0,0 UV-I 112 W/m 3,8 C 5,8 C 11,3 km/h (2 Bft) 100,00 %
30.01.2018 12:52 6,3 C 4,4 C 84 % 1028,8 hPa 0,0 l/m 5,0 km/h (1 Bft) W-SW 248 0 min 0,000 mm 0,0 UV-I 120 W/m 3,8 C 6,3 C 9,7 km/h (2 Bft) 100,00 %
30.01.2018 12:54 6,4 C 4,4 C 84 % 1028,9 hPa 0,0 l/m 7,8 km/h (2 Bft) W-SW 255 0 min 0,000 mm 0,5 UV-I 132 W/m 3,9 C 5,2 C 12,9 km/h (3 Bft) 97,44 %
30.01.2018 12:56 6,4 C 4,4 C 84 % 1028,9 hPa 0,0 l/m 9,5 km/h (2 Bft) W-SW 252 0 min 0,000 mm 0,1 UV-I 125 W/m 3,9 C 4,0 C 17,7 km/h (3 Bft) 97,87 %
30.01.2018 12:58 6,4 C 4,4 C 84 % 1028,9 hPa 0,0 l/m 11,8 km/h (2 Bft) W 271 0 min 0,000 mm 0,0 UV-I 110 W/m 3,9 C 2,5 C 19,3 km/h (3 Bft) 98,00 %
30.01.2018 13:00 6,4 C 4,4 C 84 % 1028,9 hPa 0,0 l/m 5,4 km/h (1 Bft) W-SW 241 0 min 0,000 mm 0,0 UV-I 120 W/m 3,9 C 6,4 C 12,9 km/h (3 Bft) 98,00 %
30.01.2018 13:02 6,4 C 4,4 C 85 % 1028,9 hPa 0,0 l/m 8,2 km/h (2 Bft) W-SW 240 0 min 0,050 mm 0,0 UV-I 111 W/m 4,1 C 4,9 C 14,5 km/h (3 Bft) 97,87 %
30.01.2018 13:04 6,4 C 4,4 C 85 % 1028,9 hPa 0,0 l/m 10,1 km/h (2 Bft) W 260 0 min 0,000 mm 0,0 UV-I 109 W/m 4,1 C 3,6 C 16,1 km/h (3 Bft) 97,56 %
30.01.2018 13:06 6,3 C 4,4 C 84 % 1028,9 hPa 0,0 l/m 11,8 km/h (2 Bft) W-SW 257 0 min 0,000 mm 0,0 UV-I 101 W/m 3,8 C 2,4 C 16,1 km/h (3 Bft) 98,11 %
30.01.2018 13:08 6,3 C 4,4 C 85 % 1028,9 hPa 0,0 l/m 10,8 km/h (2 Bft) W 260 0 min 0,000 mm 0,0 UV-I 87 W/m 4,0 C 3,0 C 19,3 km/h (3 Bft) 97,37 %
30.01.2018 13:10 6,3 C 4,4 C 85 % 1028,8 hPa 0,0 l/m 3,9 km/h (1 Bft) W 275 0 min 0,000 mm 0,0 UV-I 91 W/m 4,0 C 6,3 C 6,4 km/h (2 Bft) 97,87 %
30.01.2018 13:12 6,3 C 4,4 C 86 % 1028,7 hPa 0,0 l/m 5,8 km/h (2 Bft) W-SW 246 0 min 0,000 mm 0,0 UV-I 95 W/m 4,1 C 6,3 C 11,3 km/h (2 Bft) 93,62 %
30.01.2018 13:14 6,3 C 4,4 C 86 % 1028,7 hPa 0,0 l/m 9,0 km/h (2 Bft) W-SW 254 0 min 0,000 mm 0,0 UV-I 100 W/m 4,1 C 4,2 C 19,3 km/h (3 Bft) 95,74 %
30.01.2018 13:16 6,3 C 4,4 C 86 % 1028,7 hPa 0,0 l/m 9,5 km/h (2 Bft) W 269 0 min 0,000 mm 0,0 UV-I 100 W/m 4,1 C 3,9 C 17,7 km/h (3 Bft) 98,00 %
30.01.2018 13:18 6,3 C 4,4 C 86 % 1028,7 hPa 0,0 l/m 7,5 km/h (2 Bft) W-SW 246 0 min 0,000 mm 0,0 UV-I 103 W/m 4,1 C 5,4 C 11,3 km/h (2 Bft) 95,12 %
30.01.2018 13:20 6,3 C 4,4 C 86 % 1028,7 hPa 0,0 l/m 9,9 km/h (2 Bft) W 263 0 min 0,000 mm 0,0 UV-I 109 W/m 4,1 C 3,6 C 19,3 km/h (3 Bft) 98,21 %
30.01.2018 13:22 6,3 C 4,4 C 86 % 1028,7 hPa 0,0 l/m 10,3 km/h (2 Bft) SW 231 0 min 0,000 mm 0,2 UV-I 124 W/m 4,1 C 3,3 C 14,5 km/h (3 Bft) 96,30 %
30.01.2018 13:24 6,3 C 4,4 C 86 % 1028,7 hPa 0,0 l/m 12,9 km/h (3 Bft) W-SW 257 0 min 0,000 mm 0,5 UV-I 131 W/m 4,1 C 1,7 C 20,9 km/h (4 Bft) 98,36 %
30.01.2018 13:26 6,2 C 4,4 C 86 % 1028,7 hPa 0,0 l/m 13,4 km/h (3 Bft) W 270 0 min 0,000 mm 0,5 UV-I 126 W/m 4,0 C 1,4 C 17,7 km/h (3 Bft) 98,00 %
30.01.2018 13:28 6,2 C 4,4 C 86 % 1028,6 hPa 0,0 l/m 12,7 km/h (3 Bft) W 261 0 min 0,000 mm 0,3 UV-I 125 W/m 4,0 C 1,7 C 19,3 km/h (3 Bft) 97,96 %
30.01.2018 13:30 6,2 C 4,4 C 86 % 1028,6 hPa 0,0 l/m 14,6 km/h (3 Bft) W 264 0 min 0,000 mm 0,0 UV-I 115 W/m 4,0 C 0,7 C 20,9 km/h (4 Bft) 97,87 %
30.01.2018 13:32 6,2 C 4,4 C 86 % 1028,6 hPa 0,0 l/m 14,1 km/h (3 Bft) W-SW 247 0 min 0,000 mm 0,0 UV-I 112 W/m 4,0 C 1,0 C 22,5 km/h (4 Bft) 97,62 %
30.01.2018 13:34 6,2 C 4,4 C 85 % 1028,6 hPa 0,0 l/m 10,2 km/h (2 Bft) W-SW 248 0 min 0,000 mm 0,0 UV-I 115 W/m 3,9 C 3,3 C 19,3 km/h (3 Bft) 96,15 %
30.01.2018 13:36 6,2 C 4,4 C 86 % 1028,6 hPa 0,0 l/m 13,8 km/h (3 Bft) W-SW 251 0 min 0,000 mm 0,1 UV-I 119 W/m 4,0 C 1,1 C 20,9 km/h (4 Bft) 94,87 %
30.01.2018 13:38 6,2 C 4,4 C 85 % 1028,6 hPa 0,0 l/m 13,7 km/h (3 Bft) W 260 0 min 0,000 mm 0,5 UV-I 125 W/m 3,9 C 1,2 C 17,7 km/h (3 Bft) 96,36 %
30.01.2018 13:40 6,2 C 4,4 C 86 % 1028,5 hPa 0,0 l/m 14,3 km/h (3 Bft) W-SW 254 0 min 0,000 mm 0,5 UV-I 133 W/m 4,0 C 0,9 C 20,9 km/h (4 Bft) 97,87 %
30.01.2018 13:42 6,3 C 4,4 C 86 % 1028,5 hPa 0,0 l/m 9,2 km/h (2 Bft) SW 232 0 min 0,000 mm 0,5 UV-I 142 W/m 4,1 C 4,1 C 16,1 km/h (3 Bft) 97,92 %
30.01.2018 13:44 6,3 C 4,4 C 86 % 1028,6 hPa 0,0 l/m 12,7 km/h (3 Bft) W-SW 249 0 min 0,000 mm 0,5 UV-I 142 W/m 4,1 C 1,9 C 17,7 km/h (3 Bft) 97,37 %
30.01.2018 13:46 6,3 C 4,4 C 86 % 1028,6 hPa 0,0 l/m 12,5 km/h (3 Bft) W-SW 246 0 min 0,000 mm 0,2 UV-I 138 W/m 4,1 C 2,0 C 16,1 km/h (3 Bft) 96,43 %
30.01.2018 13:48 6,3 C 4,4 C 86 % 1028,6 hPa 0,0 l/m 9,6 km/h (2 Bft) W-SW 242 0 min 0,000 mm 0,0 UV-I 134 W/m 4,1 C 3,8 C 14,5 km/h (3 Bft) 97,37 %
30.01.2018 13:50 6,3 C 4,4 C 86 % 1028,6 hPa 0,0 l/m 12,4 km/h (3 Bft) W-SW 257 0 min 0,000 mm 0,0 UV-I 135 W/m 4,1 C 2,0 C 17,7 km/h (3 Bft) 94,34 %
30.01.2018 13:52 6,3 C 4,4 C 87 % 1028,5 hPa 0,0 l/m 10,6 km/h (2 Bft) W-SW 254 0 min 0,000 mm 0,0 UV-I 127 W/m 4,3 C 3,1 C 16,1 km/h (3 Bft) 96,00 %
30.01.2018 13:54 6,3 C 4,4 C 87 % 1028,6 hPa 0,0 l/m 11,2 km/h (2 Bft) SW 220 0 min 0,000 mm 0,0 UV-I 113 W/m 4,3 C 2,7 C 17,7 km/h (3 Bft) 93,62 %
30.01.2018 13:56 6,3 C 4,4 C 87 % 1028,5 hPa 0,0 l/m 8,3 km/h (2 Bft) W 261 0 min 0,000 mm 0,0 UV-I 110 W/m 4,3 C 4,7 C 12,9 km/h (3 Bft) 97,37 %
30.01.2018 13:58 6,2 C 4,4 C 87 % 1028,5 hPa 0,0 l/m 5,9 km/h (2 Bft) W-SW 251 0 min 0,000 mm 0,0 UV-I 108 W/m 4,2 C 6,2 C 9,7 km/h (2 Bft) 90,00 %
30.01.2018 14:00 6,3 C 4,4 C 88 % 1028,5 hPa 0,0 l/m 5,5 km/h (1 Bft) W-SW 247 0 min 0,051 mm 0,0 UV-I 114 W/m 4,5 C 6,3 C 9,7 km/h (2 Bft) 96,00 %
30.01.2018 14:02 6,3 C 4,4 C 87 % 1028,5 hPa 0,0 l/m 6,9 km/h (2 Bft) SW 217 0 min 0,000 mm 0,0 UV-I 119 W/m 4,3 C 5,9 C 9,7 km/h (2 Bft) 95,12 %
30.01.2018 14:04 6,3 C 4,4 C 87 % 1028,5 hPa 0,0 l/m 8,7 km/h (2 Bft) W-SW 251 0 min 0,000 mm 0,0 UV-I 111 W/m 4,3 C 4,4 C 12,9 km/h (3 Bft) 95,74 %
30.01.2018 14:06 6,3 C 4,4 C 87 % 1028,5 hPa 0,0 l/m 8,2 km/h (2 Bft) W-SW 241 0 min 0,000 mm 0,0 UV-I 97 W/m 4,3 C 4,8 C 14,5 km/h (3 Bft) 100,00 %
30.01.2018 14:08 6,3 C 4,4 C 87 % 1028,6 hPa 0,0 l/m 7,3 km/h (2 Bft) SW 225 0 min 0,000 mm 0,0 UV-I 92 W/m 4,3 C 5,5 C 11,3 km/h (2 Bft) 91,67 %
30.01.2018 14:10 6,2 C 4,4 C 87 % 1028,5 hPa 0,0 l/m 9,4 km/h (2 Bft) W-SW 243 0 min 0,000 mm 0,0 UV-I 95 W/m 4,2 C 3,8 C 14,5 km/h (3 Bft) 96,00 %
30.01.2018 14:12 6,3 C 4,4 C 87 % 1028,5 hPa 0,0 l/m 12,4 km/h (3 Bft) SW 225 0 min 0,000 mm 0,0 UV-I 100 W/m 4,3 C 2,0 C 20,9 km/h (4 Bft) 95,74 %
30.01.2018 14:14 6,2 C 4,4 C 86 % 1028,4 hPa 0,0 l/m 11,6 km/h (2 Bft) SW 231 0 min 0,000 mm 0,0 UV-I 108 W/m 4,0 C 2,4 C 17,7 km/h (3 Bft) 98,00 %
30.01.2018 14:16 6,2 C 4,4 C 87 % 1028,4 hPa 0,0 l/m 7,1 km/h (2 Bft) SW 236 0 min 0,000 mm 0,0 UV-I 113 W/m 4,2 C 5,6 C 11,3 km/h (2 Bft) 97,56 %
30.01.2018 14:18 6,3 C 4,4 C 87 % 1028,4 hPa 0,0 l/m 8,7 km/h (2 Bft) SW 227 0 min 0,000 mm 0,0 UV-I 114 W/m 4,3 C 4,4 C 16,1 km/h (3 Bft) 96,00 %
30.01.2018 14:20 6,3 C 4,4 C 86 % 1028,3 hPa 0,0 l/m 10,9 km/h (2 Bft) SW 217 0 min 0,000 mm 0,0 UV-I 115 W/m 4,1 C 2,9 C 17,7 km/h (3 Bft) 98,21 %
30.01.2018 14:22 6,3 C 4,4 C 86 % 1028,3 hPa 0,0 l/m 8,6 km/h (2 Bft) SW 234 0 min 0,000 mm 0,0 UV-I 119 W/m 4,1 C 4,5 C 14,5 km/h (3 Bft) 100,00 %
30.01.2018 14:24 6,3 C 4,4 C 87 % 1028,3 hPa 0,0 l/m 8,0 km/h (2 Bft) S-SW 195 0 min 0,000 mm 0,0 UV-I 132 W/m 4,3 C 5,0 C 12,9 km/h (3 Bft) 100,00 %
30.01.2018 14:26 6,3 C 4,4 C 86 % 1028,3 hPa 0,0 l/m 8,3 km/h (2 Bft) W-SW 255 0 min 0,000 mm 0,0 UV-I 139 W/m 4,1 C 4,7 C 12,9 km/h (3 Bft) 100,00 %
30.01.2018 14:28 6,3 C 4,4 C 87 % 1028,2 hPa 0,0 l/m 7,2 km/h (2 Bft) W 271 0 min 0,000 mm 0,0 UV-I 135 W/m 4,3 C 5,6 C 11,3 km/h (2 Bft) 97,73 %
30.01.2018 14:30 6,4 C 4,4 C 87 % 1028,2 hPa 0,0 l/m 5,5 km/h (1 Bft) W-NW 284 0 min 0,000 mm 0,0 UV-I 134 W/m 4,4 C 6,4 C 9,7 km/h (2 Bft) 100,00 %
30.01.2018 14:32 6,4 C 4,4 C 87 % 1028,1 hPa 0,0 l/m 5,2 km/h (1 Bft) W-SW 252 0 min 0,000 mm 0,0 UV-I 130 W/m 4,4 C 6,4 C 8,0 km/h (2 Bft) 100,00 %
30.01.2018 14:34 6,4 C 4,4 C 86 % 1028,1 hPa 0,0 l/m 10,5 km/h (2 Bft) W-SW 248 0 min 0,000 mm 0,0 UV-I 131 W/m 4,2 C 3,3 C 16,1 km/h (3 Bft) 100,00 %
30.01.2018 14:36 6,5 C 4,4 C 86 % 1028,1 hPa 0,0 l/m 9,5 km/h (2 Bft) SW 222 0 min 0,000 mm 0,0 UV-I 148 W/m 4,3 C 4,1 C 14,5 km/h (3 Bft) 100,00 %
30.01.2018 14:38 6,6 C 4,4 C 86 % 1028,1 hPa 0,0 l/m 8,9 km/h (2 Bft) W-SW 244 0 min 0,000 mm 0,0 UV-I 159 W/m 4,4 C 4,6 C 19,3 km/h (3 Bft) 100,00 %
30.01.2018 14:40 6,6 C 4,4 C 86 % 1028,1 hPa 0,0 l/m 8,5 km/h (2 Bft) W 280 0 min 0,000 mm 0,0 UV-I 145 W/m 4,4 C 4,9 C 14,5 km/h (3 Bft) 100,00 %
30.01.2018 14:42 6,6 C 4,4 C 86 % 1028,1 hPa 0,0 l/m 8,9 km/h (2 Bft) W 276 0 min 0,000 mm 0,0 UV-I 153 W/m 4,4 C 4,6 C 16,1 km/h (3 Bft) 100,00 %
30.01.2018 14:44 6,7 C 4,4 C 86 % 1028,1 hPa 0,0 l/m 9,1 km/h (2 Bft) W-SW 239 0 min 0,000 mm 0,0 UV-I 149 W/m 4,5 C 4,6 C 12,9 km/h (3 Bft) 98,57 %
30.01.2018 14:46 6,7 C 4,4 C 86 % 1028,1 hPa 0,0 l/m 11,8 km/h (2 Bft) W 270 0 min 0,000 mm 0,0 UV-I 127 W/m 4,5 C 2,8 C 17,7 km/h (3 Bft) 100,00 %
30.01.2018 14:48 6,6 C 4,4 C 86 % 1028,1 hPa 0,0 l/m 10,5 km/h (2 Bft) W 265 0 min 0,000 mm 0,0 UV-I 130 W/m 4,4 C 3,5 C 14,5 km/h (3 Bft) 100,00 %
30.01.2018 14:50 6,6 C 4,4 C 85 % 1028,1 hPa 0,0 l/m 10,1 km/h (2 Bft) W 261 0 min 0,000 mm 0,0 UV-I 134 W/m 4,3 C 3,8 C 14,5 km/h (3 Bft) 100,00 %
30.01.2018 14:52 6,7 C 4,4 C 85 % 1028,1 hPa 0,0 l/m 11,8 km/h (2 Bft) W-NW 285 0 min 0,000 mm 0,0 UV-I 136 W/m 4,4 C 2,8 C 16,1 km/h (3 Bft) 100,00 %
30.01.2018 14:54 6,6 C 4,4 C 85 % 1028,1 hPa 0,0 l/m 8,8 km/h (2 Bft) SW 234 0 min 0,000 mm 0,0 UV-I 139 W/m 4,3 C 4,7 C 14,5 km/h (3 Bft) 100,00 %
30.01.2018 14:56 6,7 C 4,4 C 85 % 1028,1 hPa 0,0 l/m 9,3 km/h (2 Bft) W 265 2 min 0,000 mm 0,0 UV-I 153 W/m 4,4 C 4,4 C 12,9 km/h (3 Bft) 100,00 %
30.01.2018 14:58 6,7 C 4,4 C 85 % 1028,1 hPa 0,0 l/m 7,0 km/h (2 Bft) W 260 2 min 0,000 mm 0,0 UV-I 160 W/m 4,4 C 6,2 C 11,3 km/h (2 Bft) 100,00 %
30.01.2018 15:00 6,8 C 4,4 C 85 % 1028,1 hPa 0,0 l/m 12,9 km/h (3 Bft) S 190 2 min 0,000 mm 0,0 UV-I 172 W/m 4,5 C 2,3 C 20,9 km/h (4 Bft) 100,00 %
30.01.2018 15:02 6,8 C 4,4 C 85 % 1028,2 hPa 0,0 l/m 11,3 km/h (2 Bft) W 273 2 min 0,076 mm 0,0 UV-I 175 W/m 4,5 C 3,2 C 17,7 km/h (3 Bft) 98,00 %
30.01.2018 15:04 6,8 C 4,4 C 84 % 1028,1 hPa 0,0 l/m 11,7 km/h (2 Bft) S-SW 196 2 min 0,000 mm 0,0 UV-I 154 W/m 4,3 C 3,0 C 17,7 km/h (3 Bft) 100,00 %
30.01.2018 15:06 6,8 C 4,4 C 84 % 1028,1 hPa 0,0 l/m 11,6 km/h (2 Bft) W-SW 248 2 min 0,000 mm 0,0 UV-I 140 W/m 4,3 C 3,1 C 19,3 km/h (3 Bft) 100,00 %
30.01.2018 15:08 6,7 C 4,4 C 84 % 1028,1 hPa 0,0 l/m 14,2 km/h (3 Bft) W-SW 245 2 min 0,000 mm 0,0 UV-I 139 W/m 4,2 C 1,5 C 20,9 km/h (4 Bft) 100,00 %
30.01.2018 15:10 6,7 C 4,4 C 84 % 1028,1 hPa 0,0 l/m 14,4 km/h (3 Bft) SW 233 0 min 0,000 mm 0,0 UV-I 122 W/m 4,2 C 1,4 C 19,3 km/h (3 Bft) 100,00 %
30.01.2018 15:12 6,7 C 4,4 C 84 % 1028,1 hPa 0,0 l/m 12,2 km/h (2 Bft) W 262 0 min 0,000 mm 0,0 UV-I 118 W/m 4,2 C 2,6 C 20,9 km/h (4 Bft) 97,87 %
30.01.2018 15:14 6,7 C 4,4 C 84 % 1028,1 hPa 0,0 l/m 11,6 km/h (2 Bft) W-SW 250 2 min 0,000 mm 0,0 UV-I 142 W/m 4,2 C 2,9 C 17,7 km/h (3 Bft) 100,00 %
30.01.2018 15:16 6,7 C 4,4 C 84 % 1028,1 hPa 0,0 l/m 11,9 km/h (2 Bft) W-SW 254 2 min 0,000 mm 0,0 UV-I 179 W/m 4,2 C 2,8 C 19,3 km/h (3 Bft) 100,00 %
30.01.2018 15:18 6,7 C 4,4 C 84 % 1028,1 hPa 0,0 l/m 12,8 km/h (3 Bft) W 261 2 min 0,000 mm 0,0 UV-I 146 W/m 4,2 C 2,3 C 17,7 km/h (3 Bft) 100,00 %
30.01.2018 15:20 6,8 C 4,4 C 84 % 1028,1 hPa 0,0 l/m 13,2 km/h (3 Bft) W 263 2 min 0,000 mm 0,0 UV-I 140 W/m 4,3 C 2,2 C 19,3 km/h (3 Bft) 100,00 %
30.01.2018 15:22 6,8 C 4,4 C 84 % 1028,0 hPa 0,0 l/m 12,5 km/h (3 Bft) SW 227 2 min 0,000 mm 0,0 UV-I 133 W/m 4,3 C 2,5 C 17,7 km/h (3 Bft) 100,00 %
30.01.2018 15:24 6,8 C 4,4 C 83 % 1028,1 hPa 0,0 l/m 15,1 km/h (3 Bft) W 261 0 min 0,000 mm 0,0 UV-I 108 W/m 4,1 C 1,2 C 20,9 km/h (4 Bft) 100,00 %
30.01.2018 15:26 6,7 C 4,4 C 83 % 1028,0 hPa 0,0 l/m 13,3 km/h (3 Bft) W-SW 242 0 min 0,000 mm 0,0 UV-I 100 W/m 4,0 C 2,0 C 22,5 km/h (4 Bft) 98,00 %
30.01.2018 15:28 6,7 C 4,4 C 83 % 1028,0 hPa 0,0 l/m 9,4 km/h (2 Bft) W 262 0 min 0,000 mm 0,0 UV-I 93 W/m 4,0 C 4,4 C 17,7 km/h (3 Bft) 97,92 %
30.01.2018 15:30 6,7 C 4,4 C 83 % 1028,0 hPa 0,0 l/m 12,0 km/h (2 Bft) W 267 2 min 0,000 mm 0,0 UV-I 159 W/m 4,0 C 2,7 C 19,3 km/h (3 Bft) 97,37 %
30.01.2018 15:32 6,7 C 4,4 C 84 % 1027,9 hPa 0,0 l/m 11,1 km/h (2 Bft) W-SW 250 2 min 0,000 mm 0,0 UV-I 183 W/m 4,2 C 3,2 C 19,3 km/h (3 Bft) 100,00 %
30.01.2018 15:34 6,7 C 4,4 C 83 % 1027,9 hPa 0,0 l/m 8,8 km/h (2 Bft) W 270 2 min 0,000 mm 0,0 UV-I 150 W/m 4,0 C 4,8 C 12,9 km/h (3 Bft) 98,00 %
30.01.2018 15:36 6,7 C 4,4 C 83 % 1027,9 hPa 0,0 l/m 9,7 km/h (2 Bft) W-SW 249 2 min 0,000 mm 0,0 UV-I 113 W/m 4,0 C 4,2 C 14,5 km/h (3 Bft) 97,14 %
30.01.2018 15:38 6,7 C 4,4 C 84 % 1027,9 hPa 0,0 l/m 9,7 km/h (2 Bft) W-SW 247 2 min 0,000 mm 0,0 UV-I 126 W/m 4,2 C 4,2 C 16,1 km/h (3 Bft) 100,00 %
30.01.2018 15:40 6,8 C 4,4 C 84 % 1027,9 hPa 0,0 l/m 6,2 km/h (2 Bft) W 270 2 min 0,000 mm 0,0 UV-I 110 W/m 4,3 C 6,8 C 11,3 km/h (2 Bft) 100,00 %
30.01.2018 15:42 6,8 C 4,4 C 83 % 1028,0 hPa 0,0 l/m 9,4 km/h (2 Bft) W-SW 250 2 min 0,000 mm 0,0 UV-I 116 W/m 4,1 C 4,5 C 12,9 km/h (3 Bft) 97,87 %
30.01.2018 15:44 6,8 C 4,4 C 84 % 1027,9 hPa 0,0 l/m 7,5 km/h (2 Bft) W-NW 286 0 min 0,000 mm 0,0 UV-I 75 W/m 4,3 C 5,9 C 12,9 km/h (3 Bft) 100,00 %
30.01.2018 15:46 6,8 C 4,4 C 84 % 1027,9 hPa 0,0 l/m 5,9 km/h (2 Bft) W-SW 255 0 min 0,000 mm 0,0 UV-I 82 W/m 4,3 C 6,8 C 6,4 km/h (2 Bft) 100,00 %
30.01.2018 15:48 6,8 C 4,4 C 84 % 1027,9 hPa 0,0 l/m 10,2 km/h (2 Bft) SW 229 2 min 0,000 mm 0,0 UV-I 95 W/m 4,3 C 3,9 C 16,1 km/h (3 Bft) 97,87 %
30.01.2018 15:50 6,7 C 4,4 C 83 % 1027,9 hPa 0,0 l/m 10,0 km/h (2 Bft) SW 234 2 min 0,000 mm 0,0 UV-I 145 W/m 4,0 C 4,0 C 16,1 km/h (3 Bft) 97,56 %
30.01.2018 15:52 6,7 C 4,4 C 83 % 1027,8 hPa 0,0 l/m 11,0 km/h (2 Bft) W-SW 252 2 min 0,000 mm 0,0 UV-I 85 W/m 4,0 C 3,3 C 16,1 km/h (3 Bft) 98,11 %
30.01.2018 15:54 6,8 C 4,4 C 84 % 1027,8 hPa 0,0 l/m 8,4 km/h (2 Bft) W-SW 240 0 min 0,000 mm 0,0 UV-I 69 W/m 4,3 C 5,2 C 12,9 km/h (3 Bft) 97,87 %
30.01.2018 15:56 6,7 C 4,4 C 83 % 1027,9 hPa 0,0 l/m 10,0 km/h (2 Bft) W-SW 255 0 min 0,000 mm 0,0 UV-I 57 W/m 4,0 C 4,0 C 16,1 km/h (3 Bft) 96,30 %
30.01.2018 15:58 6,7 C 4,4 C 83 % 1027,9 hPa 0,0 l/m 10,6 km/h (2 Bft) W 263 2 min 0,000 mm 0,0 UV-I 86 W/m 4,0 C 3,6 C 12,9 km/h (3 Bft) 97,14 %
30.01.2018 16:00 6,7 C 4,4 C 83 % 1027,8 hPa 0,0 l/m 10,1 km/h (2 Bft) SW 236 2 min 0,077 mm 0,0 UV-I 90 W/m 4,0 C 3,9 C 16,1 km/h (3 Bft) 95,45 %
30.01.2018 16:02 6,7 C 4,4 C 83 % 1027,8 hPa 0,0 l/m 7,2 km/h (2 Bft) W-SW 239 2 min 0,000 mm 0,0 UV-I 81 W/m 4,0 C 6,0 C 14,5 km/h (3 Bft) 96,23 %
30.01.2018 16:04 6,7 C 4,4 C 83 % 1027,8 hPa 0,0 l/m 10,8 km/h (2 Bft) SW 215 0 min 0,000 mm 0,0 UV-I 64 W/m 4,0 C 3,4 C 16,1 km/h (3 Bft) 97,62 %
30.01.2018 16:06 6,7 C 4,4 C 82 % 1027,8 hPa 0,0 l/m 11,1 km/h (2 Bft) W-NW 287 2 min 0,000 mm 0,0 UV-I 80 W/m 3,8 C 3,2 C 14,5 km/h (3 Bft) 97,37 %
30.01.2018 16:08 6,7 C 4,4 C 83 % 1027,7 hPa 0,0 l/m 8,9 km/h (2 Bft) W-SW 250 2 min 0,000 mm 0,0 UV-I 84 W/m 4,0 C 4,7 C 16,1 km/h (3 Bft) 98,18 %
30.01.2018 16:10 6,7 C 4,4 C 83 % 1027,7 hPa 0,0 l/m 9,2 km/h (2 Bft) W 265 2 min 0,000 mm 0,0 UV-I 71 W/m 4,0 C 4,5 C 16,1 km/h (3 Bft) 97,56 %
30.01.2018 16:12 6,7 C 4,4 C 82 % 1027,7 hPa 0,0 l/m 9,4 km/h (2 Bft) W-SW 247 0 min 0,000 mm 0,0 UV-I 56 W/m 3,8 C 4,4 C 12,9 km/h (3 Bft) 98,21 %
30.01.2018 16:14 6,7 C 4,4 C 83 % 1027,7 hPa 0,0 l/m 8,1 km/h (2 Bft) W 259 0 min 0,000 mm 0,0 UV-I 54 W/m 4,0 C 5,3 C 12,9 km/h (3 Bft) 96,00 %
30.01.2018 16:16 6,7 C 4,4 C 83 % 1027,7 hPa 0,0 l/m 7,8 km/h (2 Bft) W 261 0 min 0,000 mm 0,0 UV-I 52 W/m 4,0 C 5,5 C 14,5 km/h (3 Bft) 97,56 %
30.01.2018 16:18 6,6 C 4,4 C 83 % 1027,6 hPa 0,0 l/m 7,8 km/h (2 Bft) W-SW 240 2 min 0,000 mm 0,0 UV-I 64 W/m 3,9 C 5,4 C 11,3 km/h (2 Bft) 100,00 %
30.01.2018 16:20 6,6 C 4,4 C 83 % 1027,7 hPa 0,0 l/m 8,8 km/h (2 Bft) W-SW 248 2 min 0,000 mm 0,0 UV-I 62 W/m 3,9 C 4,7 C 12,9 km/h (3 Bft) 96,23 %
30.01.2018 16:22 6,6 C 4,4 C 83 % 1027,7 hPa 0,0 l/m 8,4 km/h (2 Bft) W-SW 255 2 min 0,000 mm 0,0 UV-I 60 W/m 3,9 C 5,0 C 12,9 km/h (3 Bft) 98,00 %
30.01.2018 16:24 6,6 C 4,4 C 83 % 1027,7 hPa 0,0 l/m 6,9 km/h (2 Bft) W-SW 254 0 min 0,000 mm 0,0 UV-I 39 W/m 3,9 C 6,2 C 12,9 km/h (3 Bft) 97,14 %
30.01.2018 16:26 6,5 C 4,4 C 83 % 1027,6 hPa 0,0 l/m 8,7 km/h (2 Bft) W-SW 243 0 min 0,000 mm 0,0 UV-I 28 W/m 3,8 C 4,6 C 12,9 km/h (3 Bft) 100,00 %
30.01.2018 16:28 6,5 C 4,4 C 83 % 1027,6 hPa 0,0 l/m 8,9 km/h (2 Bft) W-SW 248 0 min 0,000 mm 0,0 UV-I 23 W/m 3,8 C 4,5 C 11,3 km/h (2 Bft) 100,00 %
30.01.2018 16:30 6,4 C 4,4 C 83 % 1027,6 hPa 0,0 l/m 7,2 km/h (2 Bft) SW 229 0 min 0,000 mm 0,0 UV-I 22 W/m 3,7 C 5,7 C 11,3 km/h (2 Bft) 100,00 %
30.01.2018 16:32 6,4 C 4,4 C 83 % 1027,6 hPa 0,0 l/m 8,0 km/h (2 Bft) SW 234 0 min 0,000 mm 0,0 UV-I 20 W/m 3,7 C 5,1 C 12,9 km/h (3 Bft) 100,00 %
30.01.2018 16:34 6,4 C 4,4 C 84 % 1027,6 hPa 0,0 l/m 7,2 km/h (2 Bft) W-SW 254 0 min 0,000 mm 0,0 UV-I 18 W/m 3,9 C 5,7 C 12,9 km/h (3 Bft) 96,23 %
30.01.2018 16:36 6,3 C 4,4 C 84 % 1027,6 hPa 0,0 l/m 8,8 km/h (2 Bft) W-SW 246 0 min 0,000 mm 0,0 UV-I 18 W/m 3,8 C 4,4 C 12,9 km/h (3 Bft) 100,00 %
30.01.2018 16:38 6,3 C 4,4 C 84 % 1027,6 hPa 0,0 l/m 7,3 km/h (2 Bft) W-SW 251 0 min 0,000 mm 0,0 UV-I 16 W/m 3,8 C 5,5 C 9,7 km/h (2 Bft) 100,00 %
30.01.2018 16:40 6,2 C 4,4 C 84 % 1027,6 hPa 0,0 l/m 7,6 km/h (2 Bft) SW 234 0 min 0,000 mm 0,0 UV-I 15 W/m 3,7 C 5,2 C 11,3 km/h (2 Bft) 97,87 %
30.01.2018 16:42 6,2 C 4,4 C 84 % 1027,5 hPa 0,0 l/m 7,2 km/h (2 Bft) SW 225 0 min 0,000 mm 0,0 UV-I 14 W/m 3,7 C 5,5 C 11,3 km/h (2 Bft) 100,00 %
30.01.2018 16:44 6,2 C 4,4 C 84 % 1027,5 hPa 0,0 l/m 6,0 km/h (2 Bft) SW 225 0 min 0,000 mm 0,0 UV-I 13 W/m 3,7 C 6,2 C 9,7 km/h (2 Bft) 100,00 %
30.01.2018 16:46 6,2 C 4,4 C 84 % 1027,5 hPa 0,0 l/m 7,7 km/h (2 Bft) W-SW 240 2 min 0,000 mm 0,0 UV-I 12 W/m 3,7 C 5,1 C 11,3 km/h (2 Bft) 100,00 %
30.01.2018 16:48 6,2 C 4,4 C 84 % 1027,5 hPa 0,0 l/m 6,9 km/h (2 Bft) SW 233 2 min 0,000 mm 0,0 UV-I 12 W/m 3,7 C 5,8 C 9,7 km/h (2 Bft) 100,00 %
30.01.2018 16:50 6,1 C 4,4 C 84 % 1027,5 hPa 0,0 l/m 8,3 km/h (2 Bft) W-SW 238 0 min 0,000 mm 0,0 UV-I 11 W/m 3,6 C 4,5 C 14,5 km/h (3 Bft) 98,11 %
30.01.2018 16:52 6,1 C 4,4 C 84 % 1027,5 hPa 0,0 l/m 9,1 km/h (2 Bft) SW 226 0 min 0,000 mm 0,0 UV-I 11 W/m 3,6 C 3,9 C 12,9 km/h (3 Bft) 100,00 %
30.01.2018 16:54 6,1 C 4,4 C 84 % 1027,4 hPa 0,0 l/m 8,5 km/h (2 Bft) S-SW 209 0 min 0,000 mm 0,0 UV-I 11 W/m 3,6 C 4,4 C 12,9 km/h (3 Bft) 100,00 %
30.01.2018 16:56 6,1 C 4,4 C 84 % 1027,4 hPa 0,0 l/m 8,1 km/h (2 Bft) SW 217 0 min 0,000 mm 0,0 UV-I 9 W/m 3,6 C 4,7 C 11,3 km/h (2 Bft) 100,00 %
30.01.2018 16:58 6,0 C 4,4 C 85 % 1027,4 hPa 0,0 l/m 7,8 km/h (2 Bft) SW 219 0 min 0,000 mm 0,0 UV-I 9 W/m 3,7 C 4,8 C 12,9 km/h (3 Bft) 100,00 %
30.01.2018 17:00 5,9 C 4,4 C 85 % 1027,5 hPa 0,0 l/m 5,5 km/h (1 Bft) S-SW 196 0 min 0,025 mm 0,0 UV-I 8 W/m 3,6 C 5,9 C 8,0 km/h (2 Bft) 100,00 %
30.01.2018 17:02 5,8 C 4,4 C 85 % 1027,4 hPa 0,0 l/m 6,8 km/h (2 Bft) SW 217 0 min 0,000 mm 0,0 UV-I 7 W/m 3,5 C 5,5 C 9,7 km/h (2 Bft) 100,00 %
30.01.2018 17:04 5,7 C 4,4 C 86 % 1027,4 hPa 0,0 l/m 6,8 km/h (2 Bft) S-SW 196 0 min 0,000 mm 0,0 UV-I 7 W/m 3,5 C 5,4 C 9,7 km/h (2 Bft) 100,00 %
30.01.2018 17:06 5,7 C 4,4 C 85 % 1027,4 hPa 0,0 l/m 5,3 km/h (1 Bft) S-SW 192 0 min 0,000 mm 0,0 UV-I 7 W/m 3,4 C 5,7 C 8,0 km/h (2 Bft) 100,00 %
30.01.2018 17:08 5,6 C 4,4 C 85 % 1027,4 hPa 0,0 l/m 6,0 km/h (2 Bft) S-SW 201 0 min 0,000 mm 0,0 UV-I 5 W/m 3,3 C 5,6 C 9,7 km/h (2 Bft) 96,23 %
30.01.2018 17:10 5,6 C 4,4 C 85 % 1027,4 hPa 0,0 l/m 5,6 km/h (1 Bft) S-SW 207 0 min 0,000 mm 0,0 UV-I 5 W/m 3,3 C 5,6 C 8,0 km/h (2 Bft) 97,37 %
30.01.2018 17:12 5,5 C 4,4 C 84 % 1027,3 hPa 0,0 l/m 6,1 km/h (2 Bft) S-SW 209 0 min 0,000 mm 0,0 UV-I 5 W/m 3,0 C 5,5 C 9,7 km/h (2 Bft) 96,00 %
30.01.2018 17:14 5,4 C 4,4 C 85 % 1027,3 hPa 0,0 l/m 4,4 km/h (1 Bft) S-SW 209 0 min 0,000 mm 0,0 UV-I 5 W/m 3,1 C 5,4 C 8,0 km/h (2 Bft) 96,23 %
30.01.2018 17:16 5,4 C 4,4 C 84 % 1027,3 hPa 0,0 l/m 4,3 km/h (1 Bft) SW 218 0 min 0,000 mm 0,0 UV-I 5 W/m 2,9 C 5,4 C 6,4 km/h (2 Bft) 97,56 %
30.01.2018 17:18 5,3 C 4,4 C 84 % 1027,3 hPa 0,0 l/m 3,0 km/h (1 Bft) SW 218 0 min 0,000 mm 0,0 UV-I 0 W/m 2,8 C 5,3 C 4,8 km/h (1 Bft) 94,34 %
30.01.2018 17:20 5,3 C 4,4 C 84 % 1027,3 hPa 0,0 l/m 3,1 km/h (1 Bft) SW 218 0 min 0,000 mm 0,0 UV-I 0 W/m 2,8 C 5,3 C 4,8 km/h (1 Bft) 97,44 %
30.01.2018 17:22 5,2 C 4,4 C 85 % 1027,3 hPa 0,0 l/m 2,8 km/h (1 Bft) SW 218 0 min 0,000 mm 0,0 UV-I 0 W/m 2,9 C 5,2 C 4,8 km/h (1 Bft) 94,00 %
30.01.2018 17:24 5,2 C 4,4 C 85 % 1027,2 hPa 0,0 l/m 2,4 km/h (1 Bft) SW 217 0 min 0,000 mm 0,0 UV-I 0 W/m 2,9 C 5,2 C 4,8 km/h (1 Bft) 98,11 %
30.01.2018 17:26 5,2 C 4,4 C 85 % 1027,2 hPa 0,0 l/m 1,6 km/h (1 Bft) SW 217 0 min 0,000 mm 0,0 UV-I 0 W/m 2,9 C 5,2 C 4,8 km/h (1 Bft) 94,29 %
30.01.2018 17:28 5,1 C 4,4 C 85 % 1027,2 hPa 0,0 l/m 1,7 km/h (1 Bft) SW 217 0 min 0,000 mm 0,0 UV-I 0 W/m 2,8 C 5,1 C 3,2 km/h (1 Bft) 98,11 %
30.01.2018 17:30 4,7 C 4,4 C 86 % 1027,2 hPa 0,0 l/m 1,9 km/h (1 Bft) SW 217 0 min 0,000 mm 0,0 UV-I 0 W/m 2,6 C 4,7 C 3,2 km/h (1 Bft) 96,23 %
30.01.2018 17:32 4,6 C 4,4 C 87 % 1027,2 hPa 0,0 l/m 2,4 km/h (1 Bft) SW 217 0 min 0,000 mm 0,0 UV-I 0 W/m 2,6 C 4,6 C 4,8 km/h (1 Bft) 97,37 %
30.01.2018 17:34 4,3 C 4,4 C 88 % 1027,2 hPa 0,0 l/m 2,6 km/h (1 Bft) SW 217 0 min 0,000 mm 0,0 UV-I 0 W/m 2,5 C 4,3 C 4,8 km/h (1 Bft) 98,11 %
30.01.2018 17:36 4,2 C 4,4 C 88 % 1027,2 hPa 0,0 l/m 2,8 km/h (1 Bft) SW 217 0 min 0,000 mm 0,0 UV-I 0 W/m 2,4 C 4,2 C 4,8 km/h (1 Bft) 97,87 %
30.01.2018 17:38 4,2 C 4,4 C 88 % 1027,3 hPa 0,0 l/m 2,1 km/h (1 Bft) SW 217 0 min 0,000 mm 0,0 UV-I 0 W/m 2,4 C 4,2 C 4,8 km/h (1 Bft) 97,87 %
30.01.2018 17:40 4,2 C 4,4 C 88 % 1027,3 hPa 0,0 l/m 2,5 km/h (1 Bft) SW 217 0 min 0,000 mm 0,0 UV-I 0 W/m 2,4 C 4,2 C 4,8 km/h (1 Bft) 97,37 %
30.01.2018 17:42 4,1 C 4,4 C 89 % 1027,3 hPa 0,0 l/m 2,8 km/h (1 Bft) SW 217 0 min 0,000 mm 0,0 UV-I 0 W/m 2,5 C 4,1 C 4,8 km/h (1 Bft) 97,87 %
30.01.2018 17:44 3,9 C 4,4 C 89 % 1027,2 hPa 0,0 l/m 2,9 km/h (1 Bft) SW 217 0 min 0,000 mm 0,0 UV-I 0 W/m 2,3 C 3,9 C 4,8 km/h (1 Bft) 98,00 %
30.01.2018 17:46 3,9 C 4,4 C 90 % 1027,2 hPa 0,0 l/m 2,9 km/h (1 Bft) SW 215 0 min 0,000 mm 0,0 UV-I 0 W/m 2,4 C 3,9 C 4,8 km/h (1 Bft) 96,00 %
30.01.2018 17:48 3,8 C 4,4 C 89 % 1027,2 hPa 0,0 l/m 2,1 km/h (1 Bft) S-SW 210 0 min 0,000 mm 0,0 UV-I 0 W/m 2,2 C 3,8 C 4,8 km/h (1 Bft) 94,00 %
30.01.2018 17:50 3,7 C 4,4 C 89 % 1027,2 hPa 0,0 l/m 2,2 km/h (1 Bft) S-SW 209 0 min 0,000 mm 0,0 UV-I 0 W/m 2,1 C 3,7 C 3,2 km/h (1 Bft) 95,74 %
30.01.2018 17:52 3,7 C 4,4 C 90 % 1027,2 hPa 0,0 l/m 2,4 km/h (1 Bft) S-SW 198 0 min 0,000 mm 0,0 UV-I 0 W/m 2,2 C 3,7 C 3,2 km/h (1 Bft) 97,87 %
30.01.2018 17:54 3,7 C 4,4 C 89 % 1027,2 hPa 0,0 l/m 2,4 km/h (1 Bft) S-SW 198 0 min 0,000 mm 0,0 UV-I 0 W/m 2,1 C 3,7 C 4,8 km/h (1 Bft) 97,56 %
30.01.2018 17:56 3,8 C 4,4 C 90 % 1027,2 hPa 0,0 l/m 3,4 km/h (1 Bft) S-SW 198 0 min 0,000 mm 0,0 UV-I 0 W/m 2,3 C 3,8 C 6,4 km/h (2 Bft) 95,83 %
30.01.2018 17:58 3,9 C 4,4 C 90 % 1027,1 hPa 0,0 l/m 2,3 km/h (1 Bft) S-SW 198 0 min 0,000 mm 0,0 UV-I 0 W/m 2,4 C 3,9 C 4,8 km/h (1 Bft) 97,87 %
30.01.2018 18:00 4,0 C 4,4 C 89 % 1027,1 hPa 0,0 l/m 3,0 km/h (1 Bft) S-SW 198 0 min 0,000 mm 0,0 UV-I 0 W/m 2,4 C 4,0 C 4,8 km/h (1 Bft) 97,73 %
30.01.2018 18:02 4,1 C 4,4 C 89 % 1027,2 hPa 0,0 l/m 2,8 km/h (1 Bft) S-SW 198 0 min 0,000 mm 0,0 UV-I 0 W/m 2,5 C 4,1 C 4,8 km/h (1 Bft) 94,00 %
30.01.2018 18:04 4,0 C 4,4 C 89 % 1027,2 hPa 0,0 l/m 1,3 km/h (1 Bft) S-SW 198 0 min 0,000 mm 0,0 UV-I 0 W/m 2,4 C 4,0 C 3,2 km/h (1 Bft) 96,00 %
30.01.2018 18:06 4,0 C 4,4 C 89 % 1027,2 hPa 0,0 l/m 2,3 km/h (1 Bft) S-SW 198 0 min 0,000 mm 0,0 UV-I 0 W/m 2,4 C 4,0 C 4,8 km/h (1 Bft) 95,12 %
30.01.2018 18:08 3,9 C 4,4 C 89 % 1027,1 hPa 0,0 l/m 2,5 km/h (1 Bft) S-SW 198 0 min 0,000 mm 0,0 UV-I 0 W/m 2,3 C 3,9 C 4,8 km/h (1 Bft) 96,00 %
30.01.2018 18:10 3,9 C 4,4 C 89 % 1027,1 hPa 0,0 l/m 2,9 km/h (1 Bft) S-SW 197 0 min 0,000 mm 0,0 UV-I 0 W/m 2,3 C 3,9 C 4,8 km/h (1 Bft) 96,00 %
30.01.2018 18:12 3,9 C 4,4 C 90 % 1027,1 hPa 0,0 l/m 2,7 km/h (1 Bft) S-SW 197 0 min 0,000 mm 0,0 UV-I 0 W/m 2,4 C 3,9 C 4,8 km/h (1 Bft) 97,56 %
30.01.2018 18:14 3,8 C 4,4 C 89 % 1027,1 hPa 0,0 l/m 2,4 km/h (1 Bft) S-SW 197 0 min 0,000 mm 0,0 UV-I 0 W/m 2,2 C 3,8 C 4,8 km/h (1 Bft) 96,23 %
30.01.2018 18:16 3,8 C 4,4 C 90 % 1027,1 hPa 0,0 l/m 2,5 km/h (1 Bft) S-SW 197 0 min 0,000 mm 0,0 UV-I 0 W/m 2,3 C 3,8 C 4,8 km/h (1 Bft) 94,74 %
30.01.2018 18:18 3,8 C 4,4 C 90 % 1027,1 hPa 0,0 l/m 1,3 km/h (1 Bft) S-SW 197 0 min 0,000 mm 0,0 UV-I 0 W/m 2,3 C 3,8 C 4,8 km/h (1 Bft) 97,87 %
30.01.2018 18:20 3,7 C 4,4 C 89 % 1027,1 hPa 0,0 l/m 0,7 km/h (0 Bft) S-SW 197 0 min 0,000 mm 0,0 UV-I 0 W/m 2,1 C 3,7 C 1,6 km/h (1 Bft) 96,00 %
30.01.2018 18:22 3,7 C 4,4 C 90 % 1027,2 hPa 0,0 l/m 1,4 km/h (1 Bft) S-SW 197 0 min 0,000 mm 0,0 UV-I 0 W/m 2,2 C 3,7 C 3,2 km/h (1 Bft) 96,00 %
30.01.2018 18:24 3,8 C 4,4 C 91 % 1027,1 hPa 0,0 l/m 1,8 km/h (1 Bft) S-SW 197 0 min 0,000 mm 0,0 UV-I 0 W/m 2,5 C 3,8 C 3,2 km/h (1 Bft) 97,37 %
30.01.2018 18:26 3,8 C 4,4 C 90 % 1027,1 hPa 0,0 l/m 2,3 km/h (1 Bft) S-SW 197 0 min 0,000 mm 0,0 UV-I 0 W/m 2,3 C 3,8 C 4,8 km/h (1 Bft) 98,00 %
30.01.2018 18:28 3,7 C 4,4 C 90 % 1027,1 hPa 0,0 l/m 0,9 km/h (0 Bft) S-SW 197 0 min 0,000 mm 0,0 UV-I 0 W/m 2,2 C 3,7 C 3,2 km/h (1 Bft) 96,00 %
30.01.2018 18:30 3,7 C 4,4 C 90 % 1027,2 hPa 0,0 l/m 1,7 km/h (1 Bft) S-SW 197 0 min 0,000 mm 0,0 UV-I 0 W/m 2,2 C 3,7 C 3,2 km/h (1 Bft) 97,87 %
30.01.2018 18:32 3,7 C 4,4 C 91 % 1027,1 hPa 0,0 l/m 0,9 km/h (0 Bft) S-SW 197 0 min 0,000 mm 0,0 UV-I 0 W/m 2,4 C 3,7 C 3,2 km/h (1 Bft) 97,62 %
30.01.2018 18:34 3,7 C 4,4 C 91 % 1027,1 hPa 0,0 l/m 0,6 km/h (0 Bft) S-SW 197 0 min 0,000 mm 0,0 UV-I 0 W/m 2,4 C 3,7 C 1,6 km/h (1 Bft) 97,87 %
30.01.2018 18:36 3,7 C 4,4 C 91 % 1027,1 hPa 0,0 l/m 1,5 km/h (1 Bft) S-SW 197 0 min 0,000 mm 0,0 UV-I 0 W/m 2,4 C 3,7 C 3,2 km/h (1 Bft) 95,74 %
30.01.2018 18:38 3,6 C 4,4 C 90 % 1027,1 hPa 0,0 l/m 2,3 km/h (1 Bft) S-SW 197 0 min 0,000 mm 0,0 UV-I 0 W/m 2,1 C 3,6 C 4,8 km/h (1 Bft) 95,74 %
30.01.2018 18:40 3,4 C 4,4 C 91 % 1027,1 hPa 0,0 l/m 1,1 km/h (1 Bft) S-SW 197 0 min 0,000 mm 0,0 UV-I 0 W/m 2,1 C 3,4 C 1,6 km/h (1 Bft) 98,21 %
30.01.2018 18:42 3,3 C 4,4 C 91 % 1027,1 hPa 0,0 l/m 2,0 km/h (1 Bft) S-SW 197 0 min 0,000 mm 0,0 UV-I 0 W/m 2,0 C 3,3 C 3,2 km/h (1 Bft) 100,00 %
30.01.2018 18:44 3,2 C 4,4 C 91 % 1027,1 hPa 0,0 l/m 1,3 km/h (1 Bft) S-SW 197 0 min 0,000 mm 0,0 UV-I 0 W/m 1,9 C 3,2 C 3,2 km/h (1 Bft) 98,39 %
30.01.2018 18:46 3,2 C 4,4 C 92 % 1027,1 hPa 0,0 l/m 2,7 km/h (1 Bft) S-SW 197 0 min 0,000 mm 0,0 UV-I 0 W/m 2,0 C 3,2 C 3,2 km/h (1 Bft) 100,00 %
30.01.2018 18:48 3,2 C 4,4 C 92 % 1027,1 hPa 0,0 l/m 2,3 km/h (1 Bft) S-SW 197 0 min 0,000 mm 0,0 UV-I 0 W/m 2,0 C 3,2 C 4,8 km/h (1 Bft) 100,00 %
30.01.2018 18:50 3,2 C 4,4 C 92 % 1027,1 hPa 0,0 l/m 2,7 km/h (1 Bft) S-SW 196 0 min 0,000 mm 0,0 UV-I 0 W/m 2,0 C 3,2 C 3,2 km/h (1 Bft) 100,00 %
30.01.2018 18:52 3,2 C 4,4 C 92 % 1027,0 hPa 0,0 l/m 2,3 km/h (1 Bft) S-SW 196 0 min 0,000 mm 0,0 UV-I 0 W/m 2,0 C 3,2 C 3,2 km/h (1 Bft) 100,00 %
30.01.2018 18:54 3,1 C 4,4 C 92 % 1027,1 hPa 0,0 l/m 2,3 km/h (1 Bft) S-SW 197 0 min 0,000 mm 0,0 UV-I 0 W/m 1,9 C 3,1 C 3,2 km/h (1 Bft) 100,00 %
30.01.2018 18:56 3,0 C 4,4 C 93 % 1027,1 hPa 0,0 l/m 2,6 km/h (1 Bft) S-SW 197 0 min 0,000 mm 0,0 UV-I 0 W/m 2,0 C 3,0 C 4,8 km/h (1 Bft) 97,87 %
30.01.2018 18:58 2,9 C 4,4 C 92 % 1027,1 hPa 0,0 l/m 2,3 km/h (1 Bft) S-SW 197 0 min 0,000 mm 0,0 UV-I 0 W/m 1,7 C 2,9 C 3,2 km/h (1 Bft) 100,00 %
30.01.2018 19:00 2,8 C 4,4 C 93 % 1027,1 hPa 0,0 l/m 2,4 km/h (1 Bft) S-SW 197 0 min 0,000 mm 0,0 UV-I 0 W/m 1,8 C 2,8 C 4,8 km/h (1 Bft) 100,00 %
30.01.2018 19:02 2,8 C 4,4 C 93 % 1027,1 hPa 0,0 l/m 2,5 km/h (1 Bft) S-SW 197 0 min 0,000 mm 0,0 UV-I 0 W/m 1,8 C 2,8 C 4,8 km/h (1 Bft) 97,87 %
30.01.2018 19:04 2,8 C 4,4 C 93 % 1027,1 hPa 0,0 l/m 2,3 km/h (1 Bft) S-SW 197 0 min 0,000 mm 0,0 UV-I 0 W/m 1,8 C 2,8 C 3,2 km/h (1 Bft) 98,00 %
30.01.2018 19:06 2,7 C 4,4 C 93 % 1027,2 hPa 0,0 l/m 1,2 km/h (1 Bft) S-SW 197 0 min 0,000 mm 0,0 UV-I 0 W/m 1,7 C 2,7 C 3,2 km/h (1 Bft) 98,00 %
30.01.2018 19:08 2,8 C 4,4 C 94 % 1027,2 hPa 0,0 l/m 0,8 km/h (0 Bft) S-SW 197 0 min 0,000 mm 0,0 UV-I 0 W/m 1,9 C 2,8 C 3,2 km/h (1 Bft) 100,00 %
30.01.2018 19:10 2,7 C 4,4 C 93 % 1027,2 hPa 0,0 l/m 0,1 km/h (0 Bft) S-SW 197 0 min 0,000 mm 0,0 UV-I 0 W/m 1,7 C 2,7 C 1,6 km/h (1 Bft) 100,00 %
30.01.2018 19:12 2,7 C 4,4 C 94 % 1027,2 hPa 0,0 l/m 0,0 km/h (0 Bft) S-SW 197 0 min 0,000 mm 0,0 UV-I 0 W/m 1,8 C 2,7 C 1,6 km/h (1 Bft) 97,44 %
30.01.2018 19:14 2,7 C 4,4 C 94 % 1027,1 hPa 0,0 l/m 0,4 km/h (0 Bft) S-SW 197 0 min 0,000 mm 0,0 UV-I 0 W/m 1,8 C 2,7 C 1,6 km/h (1 Bft) 100,00 %
30.01.2018 19:16 2,7 C 4,4 C 94 % 1027,1 hPa 0,0 l/m 0,4 km/h (0 Bft) S-SW 197 0 min 0,000 mm 0,0 UV-I 0 W/m 1,8 C 2,7 C 1,6 km/h (1 Bft) 100,00 %
30.01.2018 19:18 2,8 C 4,4 C 94 % 1027,1 hPa 0,0 l/m 0,2 km/h (0 Bft) S-SW 197 0 min 0,000 mm 0,0 UV-I 0 W/m 1,9 C 2,8 C 1,6 km/h (1 Bft) 100,00 %
30.01.2018 19:20 2,8 C 4,4 C 94 % 1027,1 hPa 0,0 l/m 0,0 km/h (0 Bft) S-SW 197 0 min 0,000 mm 0,0 UV-I 0 W/m 1,9 C 2,8 C 0,0 km/h (0 Bft) 97,87 %
30.01.2018 19:22 2,7 C 4,4 C 94 % 1027,2 hPa 0,0 l/m 0,0 km/h (0 Bft) S-SW 197 0 min 0,000 mm 0,0 UV-I 0 W/m 1,8 C 2,7 C 0,0 km/h (0 Bft) 100,00 %
30.01.2018 19:24 2,9 C 4,4 C 94 % 1027,1 hPa 0,0 l/m 0,0 km/h (0 Bft) S-SW 197 0 min 0,000 mm 0,0 UV-I 0 W/m 2,0 C 2,9 C 0,0 km/h (0 Bft) 100,00 %
30.01.2018 19:26 3,1 C 4,4 C 95 % 1027,1 hPa 0,0 l/m 0,0 km/h (0 Bft) S-SW 197 0 min 0,000 mm 0,0 UV-I 0 W/m 2,4 C 3,1 C 0,0 km/h (0 Bft) 100,00 %
30.01.2018 19:28 3,1 C 4,4 C 94 % 1027,1 hPa 0,0 l/m 0,0 km/h (0 Bft) S-SW 197 0 min 0,000 mm 0,0 UV-I 0 W/m 2,2 C 3,1 C 1,6 km/h (1 Bft) 100,00 %
30.01.2018 19:30 2,8 C 4,4 C 93 % 1027,1 hPa 0,0 l/m 0,7 km/h (0 Bft) S-SW 197 0 min 0,000 mm 0,0 UV-I 0 W/m 1,8 C 2,8 C 1,6 km/h (1 Bft) 96,00 %
30.01.2018 19:32 2,4 C 4,4 C 93 % 1027,1 hPa 0,0 l/m 0,0 km/h (0 Bft) S-SW 197 0 min 0,000 mm 0,0 UV-I 0 W/m 1,4 C 2,4 C 1,6 km/h (1 Bft) 98,11 %
30.01.2018 19:34 2,0 C 4,4 C 93 % 1027,1 hPa 0,0 l/m 1,0 km/h (0 Bft) S-SW 197 0 min 0,000 mm 0,0 UV-I 0 W/m 1,0 C 2,0 C 3,2 km/h (1 Bft) 100,00 %
30.01.2018 19:36 1,7 C 4,4 C 93 % 1027,1 hPa 0,0 l/m 2,3 km/h (1 Bft) S-SW 197 0 min 0,000 mm 0,0 UV-I 0 W/m 0,7 C 1,7 C 3,2 km/h (1 Bft) 100,00 %
30.01.2018 19:38 1,6 C 4,4 C 94 % 1027,1 hPa 0,0 l/m 3,3 km/h (1 Bft) S-SW 197 0 min 0,000 mm 0,0 UV-I 0 W/m 0,7 C 1,6 C 4,8 km/h (1 Bft) 100,00 %
30.01.2018 19:40 1,7 C 4,4 C 95 % 1027,1 hPa 0,0 l/m 3,9 km/h (1 Bft) S-SW 196 0 min 0,000 mm 0,0 UV-I 0 W/m 1,0 C 1,7 C 4,8 km/h (1 Bft) 100,00 %
30.01.2018 19:42 1,8 C 4,4 C 95 % 1027,0 hPa 0,0 l/m 3,4 km/h (1 Bft) S-SW 196 0 min 0,000 mm 0,0 UV-I 0 W/m 1,1 C 1,8 C 4,8 km/h (1 Bft) 100,00 %
30.01.2018 19:44 1,7 C 4,4 C 95 % 1027,1 hPa 0,0 l/m 2,2 km/h (1 Bft) S-SW 196 0 min 0,000 mm 0,0 UV-I 0 W/m 1,0 C 1,7 C 3,2 km/h (1 Bft) 100,00 %
30.01.2018 19:46 1,9 C 4,4 C 96 % 1027,1 hPa 0,0 l/m 0,4 km/h (0 Bft) S-SW 196 0 min 0,000 mm 0,0 UV-I 0 W/m 1,3 C 1,9 C 1,6 km/h (1 Bft) 100,00 %
30.01.2018 19:48 2,2 C 4,4 C 96 % 1027,1 hPa 0,0 l/m 1,2 km/h (1 Bft) S-SW 196 0 min 0,000 mm 0,0 UV-I 0 W/m 1,6 C 2,2 C 3,2 km/h (1 Bft) 97,87 %
30.01.2018 19:50 1,9 C 4,4 C 96 % 1027,1 hPa 0,0 l/m 0,6 km/h (0 Bft) S-SW 196 0 min 0,000 mm 0,0 UV-I 0 W/m 1,3 C 1,9 C 1,6 km/h (1 Bft) 97,22 %
30.01.2018 19:52 1,7 C 4,4 C 95 % 1027,1 hPa 0,0 l/m 0,9 km/h (0 Bft) S-SW 196 0 min 0,000 mm 0,0 UV-I 0 W/m 1,0 C 1,7 C 1,6 km/h (1 Bft) 100,00 %
30.01.2018 19:54 1,8 C 4,4 C 95 % 1027,0 hPa 0,0 l/m 1,4 km/h (1 Bft) S-SW 196 0 min 0,000 mm 0,0 UV-I 0 W/m 1,1 C 1,8 C 3,2 km/h (1 Bft) 100,00 %
30.01.2018 19:56 2,1 C 4,4 C 96 % 1027,1 hPa 0,0 l/m 1,9 km/h (1 Bft) S-SW 196 0 min 0,000 mm 0,0 UV-I 0 W/m 1,5 C 2,1 C 3,2 km/h (1 Bft) 98,00 %
30.01.2018 19:58 2,2 C 4,4 C 96 % 1027,1 hPa 0,0 l/m 1,9 km/h (1 Bft) S-SW 196 0 min 0,000 mm 0,0 UV-I 0 W/m 1,6 C 2,2 C 3,2 km/h (1 Bft) 100,00 %
30.01.2018 20:00 2,3 C 4,4 C 96 % 1027,1 hPa 0,0 l/m 1,3 km/h (1 Bft) S-SW 196 0 min 0,000 mm 0,0 UV-I 0 W/m 1,7 C 2,3 C 3,2 km/h (1 Bft) 100,00 %
30.01.2018 20:02 2,4 C 4,4 C 96 % 1027,1 hPa 0,0 l/m 0,9 km/h (0 Bft) S-SW 196 0 min 0,000 mm 0,0 UV-I 0 W/m 1,8 C 2,4 C 1,6 km/h (1 Bft) 100,00 %
30.01.2018 20:04 2,4 C 4,4 C 96 % 1027,1 hPa 0,0 l/m 0,0 km/h (0 Bft) S-SW 196 0 min 0,000 mm 0,0 UV-I 0 W/m 1,8 C 2,4 C 0,0 km/h (0 Bft) 100,00 %
30.01.2018 20:06 2,4 C 4,4 C 95 % 1027,0 hPa 0,0 l/m 0,1 km/h (0 Bft) S-SW 196 0 min 0,000 mm 0,0 UV-I 0 W/m 1,7 C 2,4 C 1,6 km/h (1 Bft) 100,00 %
30.01.2018 20:08 2,3 C 4,4 C 95 % 1027,0 hPa 0,0 l/m 0,4 km/h (0 Bft) S-SW 196 0 min 0,000 mm 0,0 UV-I 0 W/m 1,6 C 2,3 C 1,6 km/h (1 Bft) 100,00 %
30.01.2018 20:10 2,2 C 4,4 C 95 % 1026,9 hPa 0,0 l/m 0,9 km/h (0 Bft) S-SW 196 0 min 0,000 mm 0,0 UV-I 0 W/m 1,5 C 2,2 C 1,6 km/h (1 Bft) 98,00 %
30.01.2018 20:12 2,2 C 4,4 C 95 % 1026,9 hPa 0,0 l/m 0,6 km/h (0 Bft) S-SW 196 0 min 0,000 mm 0,0 UV-I 0 W/m 1,5 C 2,2 C 1,6 km/h (1 Bft) 100,00 %
30.01.2018 20:14 2,4 C 4,4 C 96 % 1026,9 hPa 0,0 l/m 1,9 km/h (1 Bft) S-SW 196 0 min 0,000 mm 0,0 UV-I 0 W/m 1,8 C 2,4 C 3,2 km/h (1 Bft) 100,00 %
30.01.2018 20:16 2,4 C 4,4 C 96 % 1026,9 hPa 0,0 l/m 1,6 km/h (1 Bft) S-SW 196 0 min 0,000 mm 0,0 UV-I 0 W/m 1,8 C 2,4 C 3,2 km/h (1 Bft) 97,37 %
30.01.2018 20:18 2,4 C 4,4 C 96 % 1026,9 hPa 0,0 l/m 1,8 km/h (1 Bft) S-SW 196 0 min 0,000 mm 0,0 UV-I 0 W/m 1,8 C 2,4 C 3,2 km/h (1 Bft) 100,00 %
30.01.2018 20:20 2,4 C 4,4 C 95 % 1026,9 hPa 0,0 l/m 3,2 km/h (1 Bft) S-SW 196 0 min 0,000 mm 0,0 UV-I 0 W/m 1,7 C 2,4 C 4,8 km/h (1 Bft) 98,00 %
30.01.2018 20:22 2,4 C 4,4 C 95 % 1026,9 hPa 0,0 l/m 3,1 km/h (1 Bft) S-SW 197 0 min 0,000 mm 0,0 UV-I 0 W/m 1,7 C 2,4 C 4,8 km/h (1 Bft) 98,00 %
30.01.2018 20:24 2,4 C 4,4 C 95 % 1026,9 hPa 0,0 l/m 2,7 km/h (1 Bft) S-SW 197 0 min 0,000 mm 0,0 UV-I 0 W/m 1,7 C 2,4 C 3,2 km/h (1 Bft) 95,12 %
30.01.2018 20:26 2,4 C 4,4 C 95 % 1026,9 hPa 0,0 l/m 2,7 km/h (1 Bft) S-SW 197 0 min 0,000 mm 0,0 UV-I 0 W/m 1,7 C 2,4 C 4,8 km/h (1 Bft) 98,11 %
30.01.2018 20:28 2,3 C 4,4 C 95 % 1026,9 hPa 0,0 l/m 3,9 km/h (1 Bft) S-SW 197 0 min 0,000 mm 0,0 UV-I 0 W/m 1,6 C 2,3 C 4,8 km/h (1 Bft) 97,62 %
30.01.2018 20:30 2,2 C 4,4 C 95 % 1026,8 hPa 0,0 l/m 2,7 km/h (1 Bft) S-SW 197 0 min 0,000 mm 0,0 UV-I 0 W/m 1,5 C 2,2 C 3,2 km/h (1 Bft) 98,00 %
30.01.2018 20:32 2,1 C 4,4 C 95 % 1026,8 hPa 0,0 l/m 2,5 km/h (1 Bft) S-SW 197 0 min 0,000 mm 0,0 UV-I 0 W/m 1,4 C 2,1 C 4,8 km/h (1 Bft) 97,56 %
30.01.2018 20:34 2,1 C 4,4 C 95 % 1026,8 hPa 0,0 l/m 2,5 km/h (1 Bft) S-SW 196 0 min 0,000 mm 0,0 UV-I 0 W/m 1,4 C 2,1 C 3,2 km/h (1 Bft) 98,00 %
30.01.2018 20:36 2,2 C 4,4 C 96 % 1026,8 hPa 0,0 l/m 3,1 km/h (1 Bft) S-SW 196 0 min 0,000 mm 0,0 UV-I 0 W/m 1,6 C 2,2 C 4,8 km/h (1 Bft) 96,00 %
30.01.2018 20:38 2,2 C 4,4 C 96 % 1026,8 hPa 0,0 l/m 3,5 km/h (1 Bft) S-SW 196 0 min 0,000 mm 0,0 UV-I 0 W/m 1,6 C 2,2 C 4,8 km/h (1 Bft) 97,56 %
30.01.2018 20:40 2,2 C 4,4 C 96 % 1026,7 hPa 0,0 l/m 3,1 km/h (1 Bft) S-SW 196 0 min 0,000 mm 0,0 UV-I 0 W/m 1,6 C 2,2 C 4,8 km/h (1 Bft) 97,56 %
30.01.2018 20:42 2,2 C 4,4 C 95 % 1026,7 hPa 0,0 l/m 4,2 km/h (1 Bft) S-SW 196 0 min 0,000 mm 0,0 UV-I 0 W/m 1,5 C 2,2 C 6,4 km/h (2 Bft) 96,23 %
30.01.2018 20:44 2,4 C 4,4 C 96 % 1026,7 hPa 0,0 l/m 3,9 km/h (1 Bft) S-SW 196 0 min 0,000 mm 0,0 UV-I 0 W/m 1,8 C 2,4 C 4,8 km/h (1 Bft) 98,11 %
30.01.2018 20:46 2,5 C 4,4 C 96 % 1026,7 hPa 0,0 l/m 3,9 km/h (1 Bft) S-SW 196 0 min 0,000 mm 0,0 UV-I 0 W/m 1,9 C 2,5 C 4,8 km/h (1 Bft) 97,37 %
30.01.2018 20:48 2,3 C 4,4 C 95 % 1026,7 hPa 0,0 l/m 3,4 km/h (1 Bft) S-SW 197 0 min 0,000 mm 0,0 UV-I 0 W/m 1,6 C 2,3 C 4,8 km/h (1 Bft) 98,00 %
30.01.2018 20:50 2,2 C 4,4 C 95 % 1026,7 hPa 0,0 l/m 4,4 km/h (1 Bft) S-SW 201 0 min 0,000 mm 0,0 UV-I 0 W/m 1,5 C 2,2 C 6,4 km/h (2 Bft) 97,87 %
30.01.2018 20:52 2,1 C 4,4 C 95 % 1026,7 hPa 0,0 l/m 3,9 km/h (1 Bft) S-SW 201 0 min 0,000 mm 0,0 UV-I 0 W/m 1,4 C 2,1 C 4,8 km/h (1 Bft) 98,00 %
30.01.2018 20:54 2,0 C 4,4 C 95 % 1026,7 hPa 0,0 l/m 3,7 km/h (1 Bft) S-SW 201 0 min 0,000 mm 0,0 UV-I 0 W/m 1,3 C 2,0 C 4,8 km/h (1 Bft) 94,00 %
30.01.2018 20:56 1,9 C 4,4 C 95 % 1026,7 hPa 0,0 l/m 4,2 km/h (1 Bft) S-SW 201 0 min 0,000 mm 0,0 UV-I 0 W/m 1,2 C 1,9 C 4,8 km/h (1 Bft) 97,37 %
30.01.2018 20:58 2,0 C 4,4 C 96 % 1026,7 hPa 0,0 l/m 4,8 km/h (1 Bft) SW 220 0 min 0,000 mm 0,0 UV-I 0 W/m 1,4 C 2,0 C 6,4 km/h (2 Bft) 96,00 %
30.01.2018 21:00 2,1 C 4,4 C 96 % 1026,7 hPa 0,0 l/m 5,7 km/h (1 Bft) SW 218 0 min 0,000 mm 0,0 UV-I 0 W/m 1,5 C 2,1 C 6,4 km/h (2 Bft) 95,12 %
30.01.2018 21:02 2,2 C 4,4 C 96 % 1026,6 hPa 0,0 l/m 4,1 km/h (1 Bft) SW 218 0 min 0,000 mm 0,0 UV-I 0 W/m 1,6 C 2,2 C 6,4 km/h (2 Bft) 98,00 %
30.01.2018 21:04 2,1 C 4,4 C 96 % 1026,7 hPa 0,0 l/m 3,1 km/h (1 Bft) SW 218 0 min 0,000 mm 0,0 UV-I 0 W/m 1,5 C 2,1 C 4,8 km/h (1 Bft) 95,74 %
30.01.2018 21:06 2,2 C 4,4 C 96 % 1026,6 hPa 0,0 l/m 4,2 km/h (1 Bft) S-SW 194 0 min 0,000 mm 0,0 UV-I 0 W/m 1,6 C 2,2 C 6,4 km/h (2 Bft) 98,11 %
30.01.2018 21:08 2,2 C 4,4 C 96 % 1026,7 hPa 0,0 l/m 3,2 km/h (1 Bft) S-SW 194 0 min 0,000 mm 0,0 UV-I 0 W/m 1,6 C 2,2 C 6,4 km/h (2 Bft) 97,62 %
30.01.2018 21:10 2,1 C 4,4 C 96 % 1026,7 hPa 0,0 l/m 2,8 km/h (1 Bft) S-SW 194 0 min 0,000 mm 0,0 UV-I 0 W/m 1,5 C 2,1 C 6,4 km/h (2 Bft) 95,74 %
30.01.2018 21:12 1,9 C 4,4 C 96 % 1026,6 hPa 0,0 l/m 2,4 km/h (1 Bft) S-SW 194 0 min 0,000 mm 0,0 UV-I 0 W/m 1,3 C 1,9 C 3,2 km/h (1 Bft) 97,87 %
30.01.2018 21:14 1,8 C 4,4 C 96 % 1026,6 hPa 0,0 l/m 2,1 km/h (1 Bft) S-SW 194 0 min 0,000 mm 0,0 UV-I 0 W/m 1,2 C 1,8 C 3,2 km/h (1 Bft) 96,23 %
30.01.2018 21:16 1,8 C 4,4 C 96 % 1026,5 hPa 0,0 l/m 3,0 km/h (1 Bft) S-SW 194 0 min 0,000 mm 0,0 UV-I 0 W/m 1,2 C 1,8 C 4,8 km/h (1 Bft) 97,14 %
30.01.2018 21:18 1,7 C 4,4 C 95 % 1026,5 hPa 0,0 l/m 3,0 km/h (1 Bft) S-SW 194 0 min 0,000 mm 0,0 UV-I 0 W/m 1,0 C 1,7 C 4,8 km/h (1 Bft) 98,11 %
30.01.2018 21:20 1,7 C 4,4 C 96 % 1026,5 hPa 0,0 l/m 3,0 km/h (1 Bft) S-SW 194 0 min 0,000 mm 0,0 UV-I 0 W/m 1,1 C 1,7 C 4,8 km/h (1 Bft) 93,62 %
30.01.2018 21:22 1,8 C 4,4 C 96 % 1026,5 hPa 0,0 l/m 3,5 km/h (1 Bft) S-SW 194 0 min 0,000 mm 0,0 UV-I 0 W/m 1,2 C 1,8 C 4,8 km/h (1 Bft) 98,00 %
30.01.2018 21:24 1,8 C 4,4 C 96 % 1026,5 hPa 0,0 l/m 3,9 km/h (1 Bft) S-SW 194 0 min 0,000 mm 0,0 UV-I 0 W/m 1,2 C 1,8 C 6,4 km/h (2 Bft) 95,74 %
30.01.2018 21:26 1,8 C 4,4 C 96 % 1026,5 hPa 0,0 l/m 3,3 km/h (1 Bft) S-SW 194 0 min 0,000 mm 0,0 UV-I 0 W/m 1,2 C 1,8 C 4,8 km/h (1 Bft) 91,49 %
30.01.2018 21:28 1,8 C 4,4 C 96 % 1026,4 hPa 0,0 l/m 2,5 km/h (1 Bft) S-SW 194 0 min 0,000 mm 0,0 UV-I 0 W/m 1,2 C 1,8 C 4,8 km/h (1 Bft) 95,12 %
30.01.2018 21:30 1,8 C 4,4 C 96 % 1026,4 hPa 0,0 l/m 1,9 km/h (1 Bft) S-SW 194 0 min 0,000 mm 0,0 UV-I 0 W/m 1,2 C 1,8 C 3,2 km/h (1 Bft) 98,00 %
30.01.2018 21:32 1,7 C 4,4 C 96 % 1026,4 hPa 0,0 l/m 1,1 km/h (1 Bft) S-SW 194 0 min 0,000 mm 0,0 UV-I 0 W/m 1,1 C 1,7 C 3,2 km/h (1 Bft) 95,74 %
30.01.2018 21:34 1,7 C 4,4 C 96 % 1026,4 hPa 0,0 l/m 1,4 km/h (1 Bft) S-SW 194 0 min 0,000 mm 0,0 UV-I 0 W/m 1,1 C 1,7 C 3,2 km/h (1 Bft) 98,00 %
30.01.2018 21:36 1,8 C 4,4 C 96 % 1026,4 hPa 0,0 l/m 2,1 km/h (1 Bft) S-SW 194 0 min 0,000 mm 0,0 UV-I 0 W/m 1,2 C 1,8 C 3,2 km/h (1 Bft) 94,29 %
30.01.2018 21:38 2,1 C 4,4 C 96 % 1026,3 hPa 0,0 l/m 2,7 km/h (1 Bft) S-SW 194 0 min 0,000 mm 0,0 UV-I 0 W/m 1,5 C 2,1 C 4,8 km/h (1 Bft) 98,21 %
30.01.2018 21:40 2,1 C 4,4 C 96 % 1026,4 hPa 0,0 l/m 2,1 km/h (1 Bft) S-SW 194 0 min 0,000 mm 0,0 UV-I 0 W/m 1,5 C 2,1 C 3,2 km/h (1 Bft) 97,87 %
30.01.2018 21:42 2,2 C 4,4 C 96 % 1026,3 hPa 0,0 l/m 2,0 km/h (1 Bft) S-SW 194 0 min 0,000 mm 0,0 UV-I 0 W/m 1,6 C 2,2 C 3,2 km/h (1 Bft) 97,62 %
30.01.2018 21:44 2,2 C 4,4 C 96 % 1026,3 hPa 0,0 l/m 3,4 km/h (1 Bft) S-SW 194 0 min 0,000 mm 0,0 UV-I 0 W/m 1,6 C 2,2 C 4,8 km/h (1 Bft) 98,00 %
30.01.2018 21:46 2,2 C 4,4 C 96 % 1026,3 hPa 0,0 l/m 2,6 km/h (1 Bft) S-SW 194 0 min 0,000 mm 0,0 UV-I 0 W/m 1,6 C 2,2 C 3,2 km/h (1 Bft) 92,00 %
30.01.2018 21:48 2,1 C 4,4 C 96 % 1026,3 hPa 0,0 l/m 1,6 km/h (1 Bft) S-SW 194 0 min 0,000 mm 0,0 UV-I 0 W/m 1,5 C 2,1 C 3,2 km/h (1 Bft) 100,00 %
30.01.2018 21:50 1,9 C 4,4 C 95 % 1026,3 hPa 0,0 l/m 1,9 km/h (1 Bft) S-SW 194 0 min 0,000 mm 0,0 UV-I 0 W/m 1,2 C 1,9 C 3,2 km/h (1 Bft) 94,00 %
30.01.2018 21:52 1,9 C 4,4 C 96 % 1026,3 hPa 0,0 l/m 1,5 km/h (1 Bft) S-SW 194 0 min 0,000 mm 0,0 UV-I 0 W/m 1,3 C 1,9 C 3,2 km/h (1 Bft) 95,74 %
30.01.2018 21:54 1,8 C 4,4 C 96 % 1026,2 hPa 0,0 l/m 2,6 km/h (1 Bft) S-SW 194 0 min 0,000 mm 0,0 UV-I 0 W/m 1,2 C 1,8 C 4,8 km/h (1 Bft) 97,87 %
30.01.2018 21:56 1,8 C 4,4 C 96 % 1026,3 hPa 0,0 l/m 2,4 km/h (1 Bft) S-SW 194 0 min 0,000 mm 0,0 UV-I 0 W/m 1,2 C 1,8 C 4,8 km/h (1 Bft) 98,00 %
30.01.2018 21:58 1,8 C 4,4 C 96 % 1026,2 hPa 0,0 l/m 2,1 km/h (1 Bft) S-SW 194 0 min 0,000 mm 0,0 UV-I 0 W/m 1,2 C 1,8 C 3,2 km/h (1 Bft) 97,87 %
30.01.2018 22:00 1,8 C 4,4 C 96 % 1026,3 hPa 0,0 l/m 2,6 km/h (1 Bft) S 178 0 min 0,000 mm 0,0 UV-I 0 W/m 1,2 C 1,8 C 4,8 km/h (1 Bft) 97,56 %
30.01.2018 22:02 1,8 C 4,4 C 96 % 1026,2 hPa 0,0 l/m 3,3 km/h (1 Bft) S 173 0 min 0,000 mm 0,0 UV-I 0 W/m 1,2 C 1,8 C 4,8 km/h (1 Bft) 98,11 %
30.01.2018 22:04 2,2 C 4,4 C 96 % 1026,2 hPa 0,0 l/m 3,8 km/h (1 Bft) S-SO 168 0 min 0,000 mm 0,0 UV-I 0 W/m 1,6 C 2,2 C 6,4 km/h (2 Bft) 95,74 %
30.01.2018 22:06 2,3 C 4,4 C 97 % 1026,1 hPa 0,0 l/m 3,8 km/h (1 Bft) S 169 0 min 0,000 mm 0,0 UV-I 0 W/m 1,9 C 2,3 C 8,0 km/h (2 Bft) 97,37 %
30.01.2018 22:08 2,4 C 4,4 C 97 % 1026,1 hPa 0,0 l/m 2,9 km/h (1 Bft) S-SW 193 0 min 0,000 mm 0,0 UV-I 0 W/m 2,0 C 2,4 C 6,4 km/h (2 Bft) 98,00 %
30.01.2018 22:10 2,4 C 4,4 C 96 % 1026,1 hPa 0,0 l/m 2,2 km/h (1 Bft) S 190 0 min 0,000 mm 0,0 UV-I 0 W/m 1,8 C 2,4 C 4,8 km/h (1 Bft) 94,00 %
30.01.2018 22:12 2,4 C 4,4 C 96 % 1026,1 hPa 0,0 l/m 2,6 km/h (1 Bft) S-SW 193 0 min 0,000 mm 0,0 UV-I 0 W/m 1,8 C 2,4 C 4,8 km/h (1 Bft) 98,11 %
30.01.2018 22:14 2,3 C 4,4 C 96 % 1026,1 hPa 0,0 l/m 2,2 km/h (1 Bft) S-SW 193 0 min 0,000 mm 0,0 UV-I 0 W/m 1,7 C 2,3 C 3,2 km/h (1 Bft) 94,74 %
30.01.2018 22:16 2,1 C 4,4 C 96 % 1026,0 hPa 0,0 l/m 2,7 km/h (1 Bft) S-SW 192 0 min 0,000 mm 0,0 UV-I 0 W/m 1,5 C 2,1 C 4,8 km/h (1 Bft) 94,00 %
30.01.2018 22:18 2,2 C 4,4 C 96 % 1026,0 hPa 0,0 l/m 3,2 km/h (1 Bft) S-SW 192 0 min 0,000 mm 0,0 UV-I 0 W/m 1,6 C 2,2 C 4,8 km/h (1 Bft) 97,73 %
30.01.2018 22:20 2,1 C 4,4 C 96 % 1026,0 hPa 0,0 l/m 2,6 km/h (1 Bft) S-SW 192 0 min 0,000 mm 0,0 UV-I 0 W/m 1,5 C 2,1 C 4,8 km/h (1 Bft) 97,92 %
30.01.2018 22:22 2,1 C 4,4 C 96 % 1026,0 hPa 0,0 l/m 1,7 km/h (1 Bft) S-SW 192 0 min 0,000 mm 0,0 UV-I 0 W/m 1,5 C 2,1 C 3,2 km/h (1 Bft) 97,87 %
30.01.2018 22:24 2,1 C 4,4 C 96 % 1026,0 hPa 0,0 l/m 2,4 km/h (1 Bft) S-SW 192 0 min 0,000 mm 0,0 UV-I 0 W/m 1,5 C 2,1 C 3,2 km/h (1 Bft) 100,00 %
30.01.2018 22:26 1,8 C 4,4 C 95 % 1025,9 hPa 0,0 l/m 3,4 km/h (1 Bft) S-SW 192 0 min 0,000 mm 0,0 UV-I 0 W/m 1,1 C 1,8 C 6,4 km/h (2 Bft) 96,00 %
30.01.2018 22:28 1,7 C 4,4 C 95 % 1025,9 hPa 0,0 l/m 2,9 km/h (1 Bft) S-SW 192 0 min 0,000 mm 0,0 UV-I 0 W/m 1,0 C 1,7 C 4,8 km/h (1 Bft) 100,00 %
30.01.2018 22:30 1,4 C 4,4 C 95 % 1025,9 hPa 0,0 l/m 2,1 km/h (1 Bft) S-SW 192 0 min 0,000 mm 0,0 UV-I 0 W/m 0,7 C 1,4 C 4,8 km/h (1 Bft) 100,00 %
30.01.2018 22:32 1,4 C 4,4 C 96 % 1025,8 hPa 0,0 l/m 2,7 km/h (1 Bft) S-SW 192 0 min 0,000 mm 0,0 UV-I 0 W/m 0,8 C 1,4 C 4,8 km/h (1 Bft) 100,00 %
30.01.2018 22:34 1,7 C 4,4 C 96 % 1025,8 hPa 0,0 l/m 1,9 km/h (1 Bft) S-SW 192 0 min 0,000 mm 0,0 UV-I 0 W/m 1,1 C 1,7 C 3,2 km/h (1 Bft) 100,00 %
30.01.2018 22:36 1,9 C 4,4 C 97 % 1025,7 hPa 0,0 l/m 1,4 km/h (1 Bft) S-SW 192 0 min 0,000 mm 0,0 UV-I 0 W/m 1,5 C 1,9 C 3,2 km/h (1 Bft) 100,00 %
30.01.2018 22:38 2,0 C 4,4 C 97 % 1025,7 hPa 0,0 l/m 1,6 km/h (1 Bft) S-SW 192 0 min 0,000 mm 0,0 UV-I 0 W/m 1,6 C 2,0 C 3,2 km/h (1 Bft) 98,21 %
30.01.2018 22:40 1,9 C 4,4 C 96 % 1025,7 hPa 0,0 l/m 2,3 km/h (1 Bft) S-SW 192 0 min 0,000 mm 0,0 UV-I 0 W/m 1,3 C 1,9 C 3,2 km/h (1 Bft) 94,29 %
30.01.2018 22:42 1,8 C 4,4 C 96 % 1025,7 hPa 0,0 l/m 3,2 km/h (1 Bft) S-SO 167 0 min 0,000 mm 0,0 UV-I 0 W/m 1,2 C 1,8 C 4,8 km/h (1 Bft) 100,00 %
30.01.2018 22:44 1,9 C 4,4 C 96 % 1025,7 hPa 0,0 l/m 3,7 km/h (1 Bft) S-SO 167 0 min 0,000 mm 0,0 UV-I 0 W/m 1,3 C 1,9 C 6,4 km/h (2 Bft) 97,37 %
30.01.2018 22:46 2,0 C 4,4 C 96 % 1025,6 hPa 0,0 l/m 3,0 km/h (1 Bft) S-SO 168 0 min 0,000 mm 0,0 UV-I 0 W/m 1,4 C 2,0 C 6,4 km/h (2 Bft) 98,08 %
30.01.2018 22:48 2,1 C 4,4 C 96 % 1025,6 hPa 0,0 l/m 2,7 km/h (1 Bft) S 169 0 min 0,000 mm 0,0 UV-I 0 W/m 1,5 C 2,1 C 6,4 km/h (2 Bft) 96,00 %
30.01.2018 22:50 2,2 C 4,4 C 97 % 1025,6 hPa 0,0 l/m 2,3 km/h (1 Bft) S 169 0 min 0,000 mm 0,0 UV-I 0 W/m 1,8 C 2,2 C 6,4 km/h (2 Bft) 98,00 %
30.01.2018 22:52 2,3 C 4,4 C 97 % 1025,6 hPa 0,0 l/m 1,7 km/h (1 Bft) S 169 0 min 0,000 mm 0,0 UV-I 0 W/m 1,9 C 2,3 C 3,2 km/h (1 Bft) 97,37 %
30.01.2018 22:54 2,4 C 4,4 C 96 % 1025,6 hPa 0,0 l/m 1,2 km/h (1 Bft) S 169 0 min 0,000 mm 0,0 UV-I 0 W/m 1,8 C 2,4 C 3,2 km/h (1 Bft) 95,45 %
30.01.2018 22:56 2,4 C 4,4 C 97 % 1025,5 hPa 0,0 l/m 1,0 km/h (0 Bft) S 169 0 min 0,000 mm 0,0 UV-I 0 W/m 2,0 C 2,4 C 1,6 km/h (1 Bft) 98,11 %
30.01.2018 22:58 2,5 C 4,4 C 96 % 1025,5 hPa 0,0 l/m 1,0 km/h (0 Bft) S 169 0 min 0,000 mm 0,0 UV-I 0 W/m 1,9 C 2,5 C 3,2 km/h (1 Bft) 94,34 %
30.01.2018 23:00 2,6 C 4,4 C 96 % 1025,4 hPa 0,0 l/m 0,1 km/h (0 Bft) S 169 0 min 0,000 mm 0,0 UV-I 0 W/m 2,0 C 2,6 C 1,6 km/h (1 Bft) 94,87 %
30.01.2018 23:02 2,5 C 4,4 C 96 % 1025,4 hPa 0,0 l/m 0,0 km/h (0 Bft) S 169 0 min 0,000 mm 0,0 UV-I 0 W/m 1,9 C 2,5 C 0,0 km/h (0 Bft) 96,00 %
30.01.2018 23:04 2,6 C 4,4 C 96 % 1025,5 hPa 0,0 l/m 0,1 km/h (0 Bft) S 169 0 min 0,000 mm 0,0 UV-I 0 W/m 2,0 C 2,6 C 1,6 km/h (1 Bft) 98,08 %
30.01.2018 23:06 2,4 C 4,4 C 96 % 1025,4 hPa 0,0 l/m 4,0 km/h (1 Bft) NO 38 0 min 0,000 mm 0,0 UV-I 0 W/m 1,8 C 2,4 C 6,4 km/h (2 Bft) 97,87 %
30.01.2018 23:08 1,8 C 4,4 C 95 % 1025,4 hPa 0,0 l/m 4,7 km/h (1 Bft) NO 39 0 min 0,000 mm 0,0 UV-I 0 W/m 1,1 C 1,8 C 6,4 km/h (2 Bft) 93,75 %
30.01.2018 23:10 1,6 C 4,4 C 95 % 1025,4 hPa 0,0 l/m 4,6 km/h (1 Bft) NO 39 0 min 0,000 mm 0,0 UV-I 0 W/m 0,9 C 1,6 C 4,8 km/h (1 Bft) 91,89 %
30.01.2018 23:12 1,5 C 4,4 C 96 % 1025,4 hPa 0,0 l/m 5,1 km/h (1 Bft) NO 39 0 min 0,000 mm 0,0 UV-I 0 W/m 0,9 C 1,5 C 6,4 km/h (2 Bft) 90,57 %
30.01.2018 23:14 1,4 C 4,4 C 96 % 1025,4 hPa 0,0 l/m 5,6 km/h (1 Bft) NO 46 0 min 0,000 mm 0,0 UV-I 0 W/m 0,8 C 1,4 C 6,4 km/h (2 Bft) 95,74 %
30.01.2018 23:16 1,5 C 4,4 C 96 % 1025,3 hPa 0,0 l/m 6,8 km/h (2 Bft) NO 36 0 min 0,000 mm 0,0 UV-I 0 W/m 0,9 C 1,1 C 8,0 km/h (2 Bft) 95,12 %
30.01.2018 23:18 1,6 C 4,4 C 96 % 1025,4 hPa 0,0 l/m 7,1 km/h (2 Bft) NO 50 0 min 0,000 mm 0,0 UV-I 0 W/m 1,0 C 0,9 C 9,7 km/h (2 Bft) 98,00 %
30.01.2018 23:20 1,7 C 4,4 C 96 % 1025,4 hPa 0,0 l/m 6,4 km/h (2 Bft) NO 51 0 min 0,000 mm 0,0 UV-I 0 W/m 1,1 C 1,7 C 8,0 km/h (2 Bft) 96,00 %
30.01.2018 23:22 1,7 C 4,4 C 96 % 1025,5 hPa 0,0 l/m 5,7 km/h (1 Bft) NO 50 0 min 0,000 mm 0,0 UV-I 0 W/m 1,1 C 1,7 C 6,4 km/h (2 Bft) 92,00 %
30.01.2018 23:24 1,8 C 4,4 C 96 % 1025,4 hPa 0,0 l/m 6,9 km/h (2 Bft) NO 52 0 min 0,000 mm 0,0 UV-I 0 W/m 1,2 C 1,3 C 9,7 km/h (2 Bft) 96,15 %
30.01.2018 23:26 1,8 C 4,4 C 97 % 1025,4 hPa 0,0 l/m 5,3 km/h (1 Bft) NO 52 0 min 0,000 mm 0,0 UV-I 0 W/m 1,4 C 1,8 C 8,0 km/h (2 Bft) 98,46 %
30.01.2018 23:28 1,7 C 4,4 C 96 % 1025,4 hPa 0,0 l/m 4,7 km/h (1 Bft) NO 52 0 min 0,000 mm 0,0 UV-I 0 W/m 1,1 C 1,7 C 6,4 km/h (2 Bft) 97,96 %
30.01.2018 23:30 1,8 C 4,4 C 96 % 1025,4 hPa 0,0 l/m 3,3 km/h (1 Bft) NO 52 0 min 0,000 mm 0,0 UV-I 0 W/m 1,2 C 1,8 C 4,8 km/h (1 Bft) 97,37 %
30.01.2018 23:32 1,6 C 4,4 C 96 % 1025,4 hPa 0,0 l/m 3,6 km/h (1 Bft) NO 52 0 min 0,000 mm 0,0 UV-I 0 W/m 1,0 C 1,6 C 4,8 km/h (1 Bft) 96,23 %
30.01.2018 23:34 1,4 C 4,4 C 96 % 1025,4 hPa 0,0 l/m 5,5 km/h (1 Bft) O-NO 65 0 min 0,000 mm 0,0 UV-I 0 W/m 0,8 C 1,4 C 8,0 km/h (2 Bft) 100,00 %
30.01.2018 23:36 1,8 C 4,4 C 96 % 1025,3 hPa 0,0 l/m 5,3 km/h (1 Bft) NO 53 0 min 0,000 mm 0,0 UV-I 0 W/m 1,2 C 1,8 C 8,0 km/h (2 Bft) 100,00 %
30.01.2018 23:38 2,0 C 4,4 C 97 % 1025,4 hPa 0,0 l/m 5,7 km/h (1 Bft) NO 55 0 min 0,000 mm 0,0 UV-I 0 W/m 1,6 C 2,0 C 8,0 km/h (2 Bft) 98,00 %
30.01.2018 23:40 2,1 C 4,4 C 97 % 1025,4 hPa 0,0 l/m 6,8 km/h (2 Bft) NO 55 0 min 0,000 mm 0,0 UV-I 0 W/m 1,7 C 1,7 C 9,7 km/h (2 Bft) 100,00 %
30.01.2018 23:42 2,1 C 4,4 C 97 % 1025,4 hPa 0,0 l/m 5,4 km/h (1 Bft) NO 52 0 min 0,000 mm 0,0 UV-I 0 W/m 1,7 C 2,1 C 8,0 km/h (2 Bft) 100,00 %
30.01.2018 23:44 1,9 C 4,4 C 96 % 1025,3 hPa 0,0 l/m 6,0 km/h (2 Bft) NO 36 0 min 0,000 mm 0,0 UV-I 0 W/m 1,3 C 1,9 C 8,0 km/h (2 Bft) 98,08 %
30.01.2018 23:46 1,7 C 4,4 C 96 % 1025,3 hPa 0,0 l/m 5,1 km/h (1 Bft) NO 36 0 min 0,000 mm 0,0 UV-I 0 W/m 1,1 C 1,7 C 6,4 km/h (2 Bft) 100,00 %
30.01.2018 23:48 1,7 C 4,4 C 96 % 1025,2 hPa 0,0 l/m 5,1 km/h (1 Bft) NO 37 0 min 0,000 mm 0,0 UV-I 0 W/m 1,1 C 1,7 C 6,4 km/h (2 Bft) 98,00 %
30.01.2018 23:50 1,6 C 4,4 C 96 % 1025,2 hPa 0,0 l/m 4,2 km/h (1 Bft) NO 36 0 min 0,000 mm 0,0 UV-I 0 W/m 1,0 C 1,6 C 4,8 km/h (1 Bft) 100,00 %
30.01.2018 23:52 1,7 C 4,4 C 96 % 1025,2 hPa 0,0 l/m 4,6 km/h (1 Bft) NO 36 0 min 0,000 mm 0,0 UV-I 0 W/m 1,1 C 1,7 C 6,4 km/h (2 Bft) 100,00 %
30.01.2018 23:54 1,7 C 4,4 C 96 % 1025,1 hPa 0,0 l/m 2,9 km/h (1 Bft) NO 36 0 min 0,000 mm 0,0 UV-I 0 W/m 1,1 C 1,7 C 4,8 km/h (1 Bft) 97,56 %
30.01.2018 23:56 1,7 C 4,4 C 96 % 1025,1 hPa 0,0 l/m 2,2 km/h (1 Bft) NO 36 0 min 0,000 mm 0,0 UV-I 0 W/m 1,1 C 1,7 C 3,2 km/h (1 Bft) 98,11 %
30.01.2018 23:58 1,6 C 4,4 C 96 % 1025,0 hPa 0,0 l/m 1,9 km/h (1 Bft) NO 36 0 min 0,000 mm 0,0 UV-I 0 W/m 1,0 C 1,6 C 3,2 km/h (1 Bft) 98,00 %
_ Min-Zeit 22:30 00:00 00:56 23:58 - 19:12 - - - - - - 22:30 03:22 19:20 00:02
Minimum _ 1,4 C 4,4 C 76 % 1025,0 hPa - 0,0 km/h (0 Bft) - - - - - - 0,7 C -2,0 C 0,0 km/h (0 Bft) 11,76 %
_ Max-Zeit 01:08 00:00 22:06 11:46 07:38 03:22 - - 14:56 16:00 12:54 15:32 06:40 15:40 03:14 00:06
Maximum _ 8,6 C 4,4 C 97 % 1029,1 hPa 0,2 l/m 30,6 km/h
W (5 Bft)
- - 2 min 0,077 mm 0,5 UV-I 183 W/m 5,1 C 6,8 C 57,9 km/h
W-SW (7 Bft)
100,00 %
Durchschnitt _ 5,7 C 4,4 C 87 % 1027,1 hPa #1,6 l/m 11,7 km/h (2 Bft) W-SW - #1:06 h #0,762 mm 0,4 UV-I 76 W/m 3,6 C 2,0 C 18,2 km/h (3 Bft) 97,77 %